Wetterdaten: Samstag, 21.05.2022
Datum Zeit Temp. 2m Temp +5 cm Feuchte A. Luftdruck Regen Wind Richtung Richtung Sonnenschein UV Solar Taupunkt Windchill Windben
21.05.2022 00:00 10,3 C 9,4 C 84 % 1021,6 hPa 0,0 l/m 8,0 km/h (2 Bft) SW 225 0 min 0,0 UV-I 0 W/m 7,7 C 9,2 C 12,9 km/h (3 Bft)
21.05.2022 00:01 10,3 C 9,4 C 85 % 1021,5 hPa 0,0 l/m 8,0 km/h (2 Bft) S-SW 202 0 min 0,0 UV-I 0 W/m 7,9 C 9,2 C 11,3 km/h (2 Bft)
21.05.2022 00:02 10,3 C 9,4 C 85 % 1021,6 hPa 0,0 l/m 6,4 km/h (2 Bft) SW 225 0 min 0,0 UV-I 0 W/m 7,9 C 10,3 C 9,7 km/h (2 Bft)
21.05.2022 00:03 10,3 C 9,4 C 85 % 1021,7 hPa 0,0 l/m 8,0 km/h (2 Bft) SW 225 0 min 0,0 UV-I 0 W/m 7,9 C 9,2 C 12,9 km/h (3 Bft)
21.05.2022 00:04 10,3 C 9,4 C 85 % 1021,6 hPa 0,0 l/m 9,7 km/h (2 Bft) SW 225 0 min 0,0 UV-I 0 W/m 7,9 C 8,1 C 12,9 km/h (3 Bft)
21.05.2022 00:05 10,3 C 9,4 C 85 % 1021,7 hPa 0,0 l/m 11,3 km/h (2 Bft) W-SW 247 0 min 0,0 UV-I 0 W/m 7,9 C 7,2 C 16,1 km/h (3 Bft)
21.05.2022 00:06 10,3 C 9,4 C 85 % 1021,7 hPa 0,0 l/m 6,4 km/h (2 Bft) W-SW 247 0 min 0,0 UV-I 0 W/m 7,9 C 10,3 C 9,7 km/h (2 Bft)
21.05.2022 00:07 10,3 C 9,4 C 85 % 1021,6 hPa 0,0 l/m 9,7 km/h (2 Bft) S-SW 202 0 min 0,0 UV-I 0 W/m 7,9 C 8,1 C 12,9 km/h (3 Bft)
21.05.2022 00:08 10,3 C 9,4 C 85 % 1021,7 hPa 0,0 l/m 8,0 km/h (2 Bft) W-SW 247 0 min 0,0 UV-I 0 W/m 7,9 C 9,2 C 12,9 km/h (3 Bft)
21.05.2022 00:09 10,2 C 9,4 C 85 % 1021,7 hPa 0,0 l/m 8,0 km/h (2 Bft) W 270 0 min 0,0 UV-I 0 W/m 7,8 C 9,1 C 12,9 km/h (3 Bft)
21.05.2022 00:10 10,2 C 9,4 C 85 % 1021,7 hPa 0,0 l/m 8,0 km/h (2 Bft) W-SW 247 0 min 0,0 UV-I 0 W/m 7,8 C 9,1 C 16,1 km/h (3 Bft)
21.05.2022 00:11 10,2 C 9,4 C 85 % 1021,7 hPa 0,0 l/m 8,0 km/h (2 Bft) SW 225 0 min 0,0 UV-I 0 W/m 7,8 C 9,1 C 9,7 km/h (2 Bft)
21.05.2022 00:12 10,2 C 8,9 C 85 % 1021,7 hPa 0,0 l/m 8,0 km/h (2 Bft) SW 225 0 min 0,0 UV-I 0 W/m 7,8 C 9,1 C 14,5 km/h (3 Bft)
21.05.2022 00:13 10,2 C 8,9 C 85 % 1021,7 hPa 0,0 l/m 8,0 km/h (2 Bft) W-SW 247 0 min 0,0 UV-I 0 W/m 7,8 C 9,1 C 11,3 km/h (2 Bft)
21.05.2022 00:14 10,2 C 9,4 C 85 % 1021,8 hPa 0,0 l/m 6,4 km/h (2 Bft) W-SW 247 0 min 0,0 UV-I 0 W/m 7,8 C 10,2 C 12,9 km/h (3 Bft)
21.05.2022 00:15 10,2 C 9,4 C 86 % 1021,7 hPa 0,0 l/m 11,3 km/h (2 Bft) SW 225 0 min 0,0 UV-I 0 W/m 8,0 C 7,1 C 19,3 km/h (3 Bft)
21.05.2022 00:16 10,1 C 9,4 C 86 % 1021,7 hPa 0,0 l/m 11,3 km/h (2 Bft) S-SW 202 0 min 0,0 UV-I 0 W/m 7,9 C 7,0 C 19,3 km/h (3 Bft)
21.05.2022 00:17 10,2 C 9,4 C 86 % 1021,7 hPa 0,0 l/m 9,7 km/h (2 Bft) SW 225 0 min 0,0 UV-I 0 W/m 8,0 C 8,0 C 14,5 km/h (3 Bft)
21.05.2022 00:18 10,1 C 9,4 C 86 % 1021,7 hPa 0,0 l/m 11,3 km/h (2 Bft) SW 225 0 min 0,0 UV-I 0 W/m 7,9 C 7,0 C 17,7 km/h (3 Bft)
21.05.2022 00:19 10,1 C 9,4 C 86 % 1021,6 hPa 0,0 l/m 9,7 km/h (2 Bft) W-SW 247 0 min 0,0 UV-I 0 W/m 7,9 C 7,9 C 14,5 km/h (3 Bft)
21.05.2022 00:20 10,1 C 9,4 C 86 % 1021,6 hPa 0,0 l/m 12,9 km/h (3 Bft) W-SW 247 0 min 0,0 UV-I 0 W/m 7,9 C 6,2 C 19,3 km/h (3 Bft)
21.05.2022 00:21 10,1 C 9,4 C 86 % 1021,6 hPa 0,0 l/m 9,7 km/h (2 Bft) W 270 0 min 0,0 UV-I 0 W/m 7,9 C 7,9 C 17,7 km/h (3 Bft)
21.05.2022 00:22 10,1 C 9,4 C 86 % 1021,5 hPa 0,0 l/m 4,8 km/h (1 Bft) W-SW 247 0 min 0,0 UV-I 0 W/m 7,9 C 10,1 C 9,7 km/h (2 Bft)
21.05.2022 00:23 10,1 C 8,9 C 86 % 1021,6 hPa 0,0 l/m 8,0 km/h (2 Bft) W-SW 247 0 min 0,0 UV-I 0 W/m 7,9 C 9,0 C 12,9 km/h (3 Bft)
21.05.2022 00:24 10,1 C 8,9 C 86 % 1021,6 hPa 0,0 l/m 6,4 km/h (2 Bft) W-SW 247 0 min 0,0 UV-I 0 W/m 7,9 C 10,1 C 8,0 km/h (2 Bft)
21.05.2022 00:25 10,1 C 8,9 C 87 % 1021,6 hPa 0,0 l/m 8,0 km/h (2 Bft) W-SW 247 0 min 0,0 UV-I 0 W/m 8,0 C 9,0 C 12,9 km/h (3 Bft)
21.05.2022 00:26 10,0 C 8,9 C 87 % 1021,6 hPa 0,0 l/m 9,7 km/h (2 Bft) SW 225 0 min 0,0 UV-I 0 W/m 7,9 C 7,8 C 16,1 km/h (3 Bft)
21.05.2022 00:27 10,0 C 8,9 C 87 % 1021,6 hPa 0,0 l/m 6,4 km/h (2 Bft) SW 225 0 min 0,0 UV-I 0 W/m 7,9 C 10,0 C 14,5 km/h (3 Bft)
21.05.2022 00:28 9,9 C 8,9 C 87 % 1021,6 hPa 0,0 l/m 9,7 km/h (2 Bft) W-SW 247 0 min 0,0 UV-I 0 W/m 7,8 C 7,7 C 17,7 km/h (3 Bft)
21.05.2022 00:29 9,9 C 8,9 C 87 % 1021,7 hPa 0,0 l/m 12,9 km/h (3 Bft) W-SW 247 0 min 0,0 UV-I 0 W/m 7,8 C 6,0 C 17,7 km/h (3 Bft)
21.05.2022 00:30 9,9 C 8,9 C 87 % 1021,6 hPa 0,0 l/m 8,0 km/h (2 Bft) SW 225 0 min 0,0 UV-I 0 W/m 7,8 C 8,7 C 12,9 km/h (3 Bft)
21.05.2022 00:31 9,9 C 8,9 C 87 % 1021,6 hPa 0,0 l/m 9,7 km/h (2 Bft) W-SW 247 0 min 0,0 UV-I 0 W/m 7,8 C 7,7 C 12,9 km/h (3 Bft)
21.05.2022 00:32 9,9 C 8,9 C 87 % 1021,6 hPa 0,0 l/m 8,0 km/h (2 Bft) W 270 0 min 0,0 UV-I 0 W/m 7,8 C 8,7 C 11,3 km/h (2 Bft)
21.05.2022 00:33 9,9 C 8,9 C 87 % 1021,6 hPa 0,0 l/m 4,8 km/h (1 Bft) SW 225 0 min 0,0 UV-I 0 W/m 7,8 C 9,9 C 8,0 km/h (2 Bft)
21.05.2022 00:34 9,9 C 8,9 C 88 % 1021,6 hPa 0,0 l/m 6,4 km/h (2 Bft) W-SW 247 0 min 0,0 UV-I 0 W/m 8,0 C 9,9 C 11,3 km/h (2 Bft)
21.05.2022 00:35 9,8 C 8,9 C 88 % 1021,6 hPa 0,0 l/m 6,4 km/h (2 Bft) W-SW 247 0 min 0,0 UV-I 0 W/m 7,9 C 9,8 C 12,9 km/h (3 Bft)
21.05.2022 00:36 9,8 C 8,9 C 88 % 1021,7 hPa 0,0 l/m 9,7 km/h (2 Bft) SW 225 0 min 0,0 UV-I 0 W/m 7,9 C 7,6 C 16,1 km/h (3 Bft)
21.05.2022 00:37 9,8 C 8,9 C 88 % 1021,6 hPa 0,0 l/m 11,3 km/h (2 Bft) SW 225 0 min 0,0 UV-I 0 W/m 7,9 C 6,6 C 16,1 km/h (3 Bft)
21.05.2022 00:38 9,8 C 8,9 C 88 % 1021,6 hPa 0,0 l/m 12,9 km/h (3 Bft) W-SW 247 0 min 0,0 UV-I 0 W/m 7,9 C 5,8 C 17,7 km/h (3 Bft)
21.05.2022 00:39 9,8 C 8,9 C 88 % 1021,5 hPa 0,0 l/m 4,8 km/h (1 Bft) SW 225 0 min 0,0 UV-I 0 W/m 7,9 C 9,8 C 8,0 km/h (2 Bft)
21.05.2022 00:40 9,8 C 8,9 C 88 % 1021,6 hPa 0,0 l/m 4,8 km/h (1 Bft) SW 225 0 min 0,0 UV-I 0 W/m 7,9 C 9,8 C 9,7 km/h (2 Bft)
21.05.2022 00:41 9,8 C 8,9 C 88 % 1021,6 hPa 0,0 l/m 8,0 km/h (2 Bft) SW 225 0 min 0,0 UV-I 0 W/m 7,9 C 8,6 C 11,3 km/h (2 Bft)
21.05.2022 00:42 9,8 C 8,9 C 88 % 1021,6 hPa 0,0 l/m 8,0 km/h (2 Bft) W-SW 247 0 min 0,0 UV-I 0 W/m 7,9 C 8,6 C 12,9 km/h (3 Bft)
21.05.2022 00:43 9,8 C 8,9 C 88 % 1021,7 hPa 0,0 l/m 4,8 km/h (1 Bft) W-SW 247 0 min 0,0 UV-I 0 W/m 7,9 C 9,8 C 9,7 km/h (2 Bft)
21.05.2022 00:44 9,9 C 8,9 C 88 % 1021,6 hPa 0,0 l/m 6,4 km/h (2 Bft) S-SW 202 0 min 0,0 UV-I 0 W/m 8,0 C 9,9 C 11,3 km/h (2 Bft)
21.05.2022 00:45 9,9 C 8,9 C 88 % 1021,7 hPa 0,0 l/m 6,4 km/h (2 Bft) SW 225 0 min 0,0 UV-I 0 W/m 8,0 C 9,9 C 8,0 km/h (2 Bft)
21.05.2022 00:46 9,9 C 8,9 C 88 % 1021,7 hPa 0,0 l/m 6,4 km/h (2 Bft) SW 225 0 min 0,0 UV-I 0 W/m 8,0 C 9,9 C 11,3 km/h (2 Bft)
21.05.2022 00:47 9,9 C 8,9 C 88 % 1021,7 hPa 0,0 l/m 11,3 km/h (2 Bft) SW 225 0 min 0,0 UV-I 0 W/m 8,0 C 6,8 C 19,3 km/h (3 Bft)
21.05.2022 00:48 9,9 C 8,9 C 88 % 1021,8 hPa 0,0 l/m 8,0 km/h (2 Bft) SW 225 0 min 0,0 UV-I 0 W/m 8,0 C 8,7 C 9,7 km/h (2 Bft)
21.05.2022 00:49 9,9 C 8,9 C 88 % 1021,8 hPa 0,0 l/m 8,0 km/h (2 Bft) W 270 0 min 0,0 UV-I 0 W/m 8,0 C 8,7 C 9,7 km/h (2 Bft)
21.05.2022 00:50 9,9 C 8,9 C 88 % 1021,7 hPa 0,0 l/m 6,4 km/h (2 Bft) SW 225 0 min 0,0 UV-I 0 W/m 8,0 C 9,9 C 9,7 km/h (2 Bft)
21.05.2022 00:51 9,9 C 8,9 C 88 % 1021,7 hPa 0,0 l/m 6,4 km/h (2 Bft) W-SW 247 0 min 0,0 UV-I 0 W/m 8,0 C 9,9 C 12,9 km/h (3 Bft)
21.05.2022 00:52 9,8 C 8,9 C 88 % 1021,7 hPa 0,0 l/m 4,8 km/h (1 Bft) W-SW 247 0 min 0,0 UV-I 0 W/m 7,9 C 9,8 C 8,0 km/h (2 Bft)
21.05.2022 00:53 9,8 C 8,9 C 88 % 1021,7 hPa 0,0 l/m 9,7 km/h (2 Bft) W 270 0 min 0,0 UV-I 0 W/m 7,9 C 7,6 C 14,5 km/h (3 Bft)
21.05.2022 00:54 9,8 C 8,9 C 88 % 1021,9 hPa 0,0 l/m 9,7 km/h (2 Bft) W-SW 247 0 min 0,0 UV-I 0 W/m 7,9 C 7,6 C 12,9 km/h (3 Bft)
21.05.2022 00:55 9,8 C 8,9 C 88 % 1021,8 hPa 0,0 l/m 8,0 km/h (2 Bft) W-SW 247 0 min 0,0 UV-I 0 W/m 7,9 C 8,6 C 12,9 km/h (3 Bft)
21.05.2022 00:56 9,8 C 8,9 C 88 % 1021,8 hPa 0,0 l/m 6,4 km/h (2 Bft) SW 225 0 min 0,0 UV-I 0 W/m 7,9 C 9,8 C 11,3 km/h (2 Bft)
21.05.2022 00:57 9,8 C 8,9 C 88 % 1021,8 hPa 0,0 l/m 8,0 km/h (2 Bft) W-SW 247 0 min 0,0 UV-I 0 W/m 7,9 C 8,6 C 12,9 km/h (3 Bft)
21.05.2022 00:58 9,8 C 8,9 C 88 % 1021,8 hPa 0,0 l/m 6,4 km/h (2 Bft) S 180 0 min 0,0 UV-I 0 W/m 7,9 C 9,8 C 14,5 km/h (3 Bft)
21.05.2022 00:59 9,8 C 8,9 C 88 % 1021,8 hPa 0,0 l/m 8,0 km/h (2 Bft) SW 225 0 min 0,0 UV-I 0 W/m 7,9 C 8,6 C 14,5 km/h (3 Bft)
21.05.2022 01:00 9,8 C 8,9 C 88 % 1021,8 hPa 0,0 l/m 6,4 km/h (2 Bft) SW 225 0 min 0,0 UV-I 0 W/m 7,9 C 9,8 C 9,7 km/h (2 Bft)
21.05.2022 01:01 9,8 C 8,9 C 88 % 1021,8 hPa 0,0 l/m 6,4 km/h (2 Bft) S-SW 202 0 min 0,0 UV-I 0 W/m 7,9 C 9,8 C 9,7 km/h (2 Bft)
21.05.2022 01:02 9,8 C 8,9 C 88 % 1021,8 hPa 0,0 l/m 9,7 km/h (2 Bft) SW 225 0 min 0,0 UV-I 0 W/m 7,9 C 7,6 C 16,1 km/h (3 Bft)
21.05.2022 01:03 9,8 C 8,9 C 88 % 1021,8 hPa 0,0 l/m 6,4 km/h (2 Bft) SW 225 0 min 0,0 UV-I 0 W/m 7,9 C 9,8 C 12,9 km/h (3 Bft)
21.05.2022 01:04 9,8 C 8,9 C 88 % 1021,8 hPa 0,0 l/m 11,3 km/h (2 Bft) W-SW 247 0 min 0,0 UV-I 0 W/m 7,9 C 6,6 C 17,7 km/h (3 Bft)
21.05.2022 01:05 9,8 C 8,9 C 88 % 1021,8 hPa 0,0 l/m 9,7 km/h (2 Bft) W-SW 247 0 min 0,0 UV-I 0 W/m 7,9 C 7,6 C 16,1 km/h (3 Bft)
21.05.2022 01:06 9,8 C 8,9 C 88 % 1021,9 hPa 0,0 l/m 8,0 km/h (2 Bft) SW 225 0 min 0,0 UV-I 0 W/m 7,9 C 8,6 C 12,9 km/h (3 Bft)
21.05.2022 01:07 9,8 C 8,9 C 88 % 1021,8 hPa 0,0 l/m 12,9 km/h (3 Bft) SW 225 0 min 0,0 UV-I 0 W/m 7,9 C 5,8 C 20,9 km/h (4 Bft)
21.05.2022 01:08 9,8 C 8,9 C 88 % 1021,9 hPa 0,0 l/m 9,7 km/h (2 Bft) SW 225 0 min 0,0 UV-I 0 W/m 7,9 C 7,6 C 20,9 km/h (4 Bft)
21.05.2022 01:09 9,8 C 8,9 C 88 % 1021,8 hPa 0,0 l/m 9,7 km/h (2 Bft) W 270 0 min 0,0 UV-I 0 W/m 7,9 C 7,6 C 16,1 km/h (3 Bft)
21.05.2022 01:10 9,8 C 8,9 C 88 % 1021,9 hPa 0,0 l/m 9,7 km/h (2 Bft) SW 225 0 min 0,0 UV-I 0 W/m 7,9 C 7,6 C 12,9 km/h (3 Bft)
21.05.2022 01:11 9,8 C 8,9 C 88 % 1021,9 hPa 0,0 l/m 6,4 km/h (2 Bft) SW 225 0 min 0,0 UV-I 0 W/m 7,9 C 9,8 C 11,3 km/h (2 Bft)
21.05.2022 01:12 9,8 C 8,9 C 88 % 1021,8 hPa 0,0 l/m 8,0 km/h (2 Bft) W-SW 247 0 min 0,0 UV-I 0 W/m 7,9 C 8,6 C 16,1 km/h (3 Bft)
21.05.2022 01:13 9,8 C 8,9 C 88 % 1021,9 hPa 0,0 l/m 9,7 km/h (2 Bft) SW 225 0 min 0,0 UV-I 0 W/m 7,9 C 7,6 C 17,7 km/h (3 Bft)
21.05.2022 01:14 9,8 C 8,9 C 88 % 1021,8 hPa 0,0 l/m 8,0 km/h (2 Bft) S-SW 202 0 min 0,0 UV-I 0 W/m 7,9 C 8,6 C 14,5 km/h (3 Bft)
21.05.2022 01:15 9,7 C 8,9 C 88 % 1021,8 hPa 0,0 l/m 6,4 km/h (2 Bft) W-SW 247 0 min 0,0 UV-I 0 W/m 7,8 C 9,7 C 11,3 km/h (2 Bft)
21.05.2022 01:16 9,8 C 8,9 C 88 % 1021,8 hPa 0,0 l/m 6,4 km/h (2 Bft) W-SW 247 0 min 0,0 UV-I 0 W/m 7,9 C 9,8 C 11,3 km/h (2 Bft)
21.05.2022 01:17 9,8 C 8,9 C 88 % 1021,9 hPa 0,0 l/m 11,3 km/h (2 Bft) W-SW 247 0 min 0,0 UV-I 0 W/m 7,9 C 6,6 C 19,3 km/h (3 Bft)
21.05.2022 01:18 9,7 C 8,9 C 88 % 1021,9 hPa 0,0 l/m 8,0 km/h (2 Bft) SW 225 0 min 0,0 UV-I 0 W/m 7,8 C 8,5 C 14,5 km/h (3 Bft)
21.05.2022 01:19 9,8 C 8,9 C 88 % 1021,9 hPa 0,0 l/m 6,4 km/h (2 Bft) W-SW 247 0 min 0,0 UV-I 0 W/m 7,9 C 9,8 C 11,3 km/h (2 Bft)
21.05.2022 01:20 9,8 C 8,9 C 88 % 1021,8 hPa 0,0 l/m 11,3 km/h (2 Bft) W-SW 247 0 min 0,0 UV-I 0 W/m 7,9 C 6,6 C 17,7 km/h (3 Bft)
21.05.2022 01:21 9,8 C 8,9 C 88 % 1021,8 hPa 0,0 l/m 11,3 km/h (2 Bft) W-SW 247 0 min 0,0 UV-I 0 W/m 7,9 C 6,6 C 19,3 km/h (3 Bft)
21.05.2022 01:22 9,8 C 8,9 C 88 % 1021,7 hPa 0,0 l/m 11,3 km/h (2 Bft) W-SW 247 0 min 0,0 UV-I 0 W/m 7,9 C 6,6 C 16,1 km/h (3 Bft)
21.05.2022 01:23 9,8 C 8,9 C 88 % 1021,7 hPa 0,0 l/m 6,4 km/h (2 Bft) SW 225 0 min 0,0 UV-I 0 W/m 7,9 C 9,8 C 12,9 km/h (3 Bft)
21.05.2022 01:24 9,8 C 8,9 C 88 % 1021,8 hPa 0,0 l/m 8,0 km/h (2 Bft) W-SW 247 0 min 0,0 UV-I 0 W/m 7,9 C 8,6 C 12,9 km/h (3 Bft)
21.05.2022 01:25 9,8 C 8,9 C 88 % 1021,8 hPa 0,0 l/m 11,3 km/h (2 Bft) SW 225 0 min 0,0 UV-I 0 W/m 7,9 C 6,6 C 20,9 km/h (4 Bft)
21.05.2022 01:26 9,7 C 8,9 C 88 % 1021,8 hPa 0,0 l/m 14,5 km/h (3 Bft) W-SW 247 0 min 0,0 UV-I 0 W/m 7,8 C 5,0 C 20,9 km/h (4 Bft)
21.05.2022 01:27 9,7 C 8,9 C 88 % 1021,8 hPa 0,0 l/m 9,7 km/h (2 Bft) W-SW 247 0 min 0,0 UV-I 0 W/m 7,8 C 7,4 C 19,3 km/h (3 Bft)
21.05.2022 01:28 9,7 C 8,9 C 88 % 1021,8 hPa 0,0 l/m 14,5 km/h (3 Bft) W-SW 247 0 min 0,0 UV-I 0 W/m 7,8 C 5,0 C 19,3 km/h (3 Bft)
21.05.2022 01:29 9,7 C 8,9 C 88 % 1021,8 hPa 0,0 l/m 12,9 km/h (3 Bft) W-SW 247 0 min 0,0 UV-I 0 W/m 7,8 C 5,7 C 17,7 km/h (3 Bft)
21.05.2022 01:30 9,8 C 8,9 C 88 % 1021,7 hPa 0,0 l/m 12,9 km/h (3 Bft) W-SW 247 0 min 0,0 UV-I 0 W/m 7,9 C 5,8 C 19,3 km/h (3 Bft)
21.05.2022 01:31 9,8 C 8,9 C 88 % 1021,8 hPa 0,0 l/m 8,0 km/h (2 Bft) W-SW 247 0 min 0,0 UV-I 0 W/m 7,9 C 8,6 C 16,1 km/h (3 Bft)
21.05.2022 01:32 9,8 C 8,9 C 88 % 1021,8 hPa 0,0 l/m 12,9 km/h (3 Bft) SW 225 0 min 0,0 UV-I 0 W/m 7,9 C 5,8 C 20,9 km/h (4 Bft)
21.05.2022 01:33 9,7 C 8,9 C 88 % 1021,7 hPa 0,0 l/m 9,7 km/h (2 Bft) SW 225 0 min 0,0 UV-I 0 W/m 7,8 C 7,4 C 14,5 km/h (3 Bft)
21.05.2022 01:34 9,7 C 8,9 C 88 % 1021,7 hPa 0,0 l/m 8,0 km/h (2 Bft) SW 225 0 min 0,0 UV-I 0 W/m 7,8 C 8,5 C 12,9 km/h (3 Bft)
21.05.2022 01:35 9,7 C 8,9 C 88 % 1021,8 hPa 0,0 l/m 9,7 km/h (2 Bft) SW 225 0 min 0,0 UV-I 0 W/m 7,8 C 7,4 C 14,5 km/h (3 Bft)
21.05.2022 01:36 9,7 C 8,9 C 88 % 1021,7 hPa 0,0 l/m 11,3 km/h (2 Bft) S-SW 202 0 min 0,0 UV-I 0 W/m 7,8 C 6,5 C 16,1 km/h (3 Bft)
21.05.2022 01:37 9,7 C 8,9 C 88 % 1021,7 hPa 0,0 l/m 16,1 km/h (3 Bft) W-SW 247 0 min 0,0 UV-I 0 W/m 7,8 C 4,3 C 25,7 km/h (4 Bft)
21.05.2022 01:38 9,7 C 8,9 C 88 % 1021,8 hPa 0,0 l/m 12,9 km/h (3 Bft) SW 225 0 min 0,0 UV-I 0 W/m 7,8 C 5,7 C 25,7 km/h (4 Bft)
21.05.2022 01:39 9,7 C 8,9 C 88 % 1021,8 hPa 0,0 l/m 9,7 km/h (2 Bft) W-SW 247 0 min 0,0 UV-I 0 W/m 7,8 C 7,4 C 14,5 km/h (3 Bft)
21.05.2022 01:40 9,7 C 8,9 C 88 % 1021,7 hPa 0,0 l/m 8,0 km/h (2 Bft) W-SW 247 0 min 0,0 UV-I 0 W/m 7,8 C 8,5 C 11,3 km/h (2 Bft)
21.05.2022 01:41 9,7 C 8,9 C 88 % 1021,7 hPa 0,0 l/m 6,4 km/h (2 Bft) SW 225 0 min 0,0 UV-I 0 W/m 7,8 C 9,7 C 12,9 km/h (3 Bft)
21.05.2022 01:42 9,7 C 8,9 C 88 % 1021,7 hPa 0,0 l/m 12,9 km/h (3 Bft) SW 225 0 min 0,0 UV-I 0 W/m 7,8 C 5,7 C 25,7 km/h (4 Bft)
21.05.2022 01:43 9,7 C 8,9 C 88 % 1021,7 hPa 0,0 l/m 16,1 km/h (3 Bft) W-SW 247 0 min 0,0 UV-I 0 W/m 7,8 C 4,3 C 20,9 km/h (4 Bft)
21.05.2022 01:44 9,7 C 8,9 C 88 % 1021,7 hPa 0,0 l/m 11,3 km/h (2 Bft) SW 225 0 min 0,0 UV-I 0 W/m 7,8 C 6,5 C 20,9 km/h (4 Bft)
21.05.2022 01:45 9,7 C 8,9 C 88 % 1021,7 hPa 0,0 l/m 12,9 km/h (3 Bft) W 270 0 min 0,0 UV-I 0 W/m 7,8 C 5,7 C 19,3 km/h (3 Bft)
21.05.2022 01:46 9,7 C 8,9 C 88 % 1021,7 hPa 0,0 l/m 11,3 km/h (2 Bft) SW 225 0 min 0,0 UV-I 0 W/m 7,8 C 6,5 C 20,9 km/h (4 Bft)
21.05.2022 01:47 9,7 C 8,9 C 88 % 1021,8 hPa 0,0 l/m 8,0 km/h (2 Bft) SW 225 0 min 0,0 UV-I 0 W/m 7,8 C 8,5 C 14,5 km/h (3 Bft)
21.05.2022 01:48 9,7 C 8,9 C 88 % 1021,8 hPa 0,0 l/m 9,7 km/h (2 Bft) SW 225 0 min 0,0 UV-I 0 W/m 7,8 C 7,4 C 16,1 km/h (3 Bft)
21.05.2022 01:49 9,7 C 8,9 C 88 % 1021,7 hPa 0,0 l/m 9,7 km/h (2 Bft) W-SW 247 0 min 0,0 UV-I 0 W/m 7,8 C 7,4 C 16,1 km/h (3 Bft)
21.05.2022 01:50 9,7 C 8,9 C 88 % 1021,7 hPa 0,0 l/m 11,3 km/h (2 Bft) SW 225 0 min 0,0 UV-I 0 W/m 7,8 C 6,5 C 16,1 km/h (3 Bft)
21.05.2022 01:51 9,8 C 8,9 C 88 % 1021,7 hPa 0,0 l/m 14,5 km/h (3 Bft) W-SW 247 0 min 0,0 UV-I 0 W/m 7,9 C 5,1 C 19,3 km/h (3 Bft)
21.05.2022 01:52 9,8 C 8,9 C 88 % 1021,7 hPa 0,0 l/m 9,7 km/h (2 Bft) SW 225 0 min 0,0 UV-I 0 W/m 7,9 C 7,6 C 14,5 km/h (3 Bft)
21.05.2022 01:53 9,8 C 8,9 C 88 % 1021,7 hPa 0,0 l/m 12,9 km/h (3 Bft) W-SW 247 0 min 0,0 UV-I 0 W/m 7,9 C 5,8 C 22,5 km/h (4 Bft)
21.05.2022 01:54 9,7 C 8,9 C 88 % 1021,8 hPa 0,0 l/m 14,5 km/h (3 Bft) W-SW 247 0 min 0,0 UV-I 0 W/m 7,8 C 5,0 C 24,1 km/h (4 Bft)
21.05.2022 01:55 9,7 C 8,9 C 88 % 1021,7 hPa 0,0 l/m 14,5 km/h (3 Bft) SW 225 0 min 0,0 UV-I 0 W/m 7,8 C 5,0 C 22,5 km/h (4 Bft)
21.05.2022 01:56 9,7 C 8,9 C 88 % 1021,7 hPa 0,0 l/m 12,9 km/h (3 Bft) SW 225 0 min 0,0 UV-I 0 W/m 7,8 C 5,7 C 22,5 km/h (4 Bft)
21.05.2022 01:57 9,7 C 8,9 C 88 % 1021,7 hPa 0,0 l/m 11,3 km/h (2 Bft) W-SW 247 0 min 0,0 UV-I 0 W/m 7,8 C 6,5 C 19,3 km/h (3 Bft)
21.05.2022 01:58 9,7 C 8,9 C 88 % 1021,6 hPa 0,0 l/m 12,9 km/h (3 Bft) W-SW 247 0 min 0,0 UV-I 0 W/m 7,8 C 5,7 C 16,1 km/h (3 Bft)
21.05.2022 01:59 9,7 C 8,9 C 88 % 1021,8 hPa 0,0 l/m 9,7 km/h (2 Bft) W 270 0 min 0,0 UV-I 0 W/m 7,8 C 7,4 C 20,9 km/h (4 Bft)
21.05.2022 02:00 9,7 C 8,9 C 87 % 1021,7 hPa 0,0 l/m 11,3 km/h (2 Bft) W-SW 247 0 min 0,0 UV-I 0 W/m 7,6 C 6,5 C 19,3 km/h (3 Bft)
21.05.2022 02:01 9,7 C 8,9 C 87 % 1021,6 hPa 0,0 l/m 8,0 km/h (2 Bft) W-SW 247 0 min 0,0 UV-I 0 W/m 7,6 C 8,5 C 11,3 km/h (2 Bft)
21.05.2022 02:02 9,7 C 8,9 C 87 % 1021,7 hPa 0,0 l/m 8,0 km/h (2 Bft) W-SW 247 0 min 0,0 UV-I 0 W/m 7,6 C 8,5 C 20,9 km/h (4 Bft)
21.05.2022 02:03 9,7 C 8,9 C 88 % 1021,7 hPa 0,0 l/m 12,9 km/h (3 Bft) W 270 0 min 0,0 UV-I 0 W/m 7,8 C 5,7 C 17,7 km/h (3 Bft)
21.05.2022 02:04 9,7 C 8,9 C 88 % 1021,7 hPa 0,0 l/m 8,0 km/h (2 Bft) S-SW 202 0 min 0,0 UV-I 0 W/m 7,8 C 8,5 C 16,1 km/h (3 Bft)
21.05.2022 02:05 9,7 C 8,9 C 88 % 1021,7 hPa 0,0 l/m 6,4 km/h (2 Bft) W-SW 247 0 min 0,0 UV-I 0 W/m 7,8 C 9,7 C 11,3 km/h (2 Bft)
21.05.2022 02:06 9,7 C 8,9 C 88 % 1021,7 hPa 0,0 l/m 8,0 km/h (2 Bft) SW 225 0 min 0,0 UV-I 0 W/m 7,8 C 8,5 C 16,1 km/h (3 Bft)
21.05.2022 02:07 9,7 C 8,9 C 88 % 1021,7 hPa 0,0 l/m 8,0 km/h (2 Bft) W-SW 247 0 min 0,0 UV-I 0 W/m 7,8 C 8,5 C 11,3 km/h (2 Bft)
21.05.2022 02:08 9,6 C 8,9 C 88 % 1021,7 hPa 0,0 l/m 12,9 km/h (3 Bft) S-SW 202 0 min 0,0 UV-I 0 W/m 7,7 C 5,6 C 19,3 km/h (3 Bft)
21.05.2022 02:09 9,6 C 8,9 C 88 % 1021,7 hPa 0,0 l/m 9,7 km/h (2 Bft) SW 225 0 min 0,0 UV-I 0 W/m 7,7 C 7,3 C 16,1 km/h (3 Bft)
21.05.2022 02:10 9,6 C 8,3 C 88 % 1021,7 hPa 0,0 l/m 16,1 km/h (3 Bft) SW 225 0 min 0,0 UV-I 0 W/m 7,7 C 4,2 C 22,5 km/h (4 Bft)
21.05.2022 02:11 9,5 C 8,3 C 87 % 1021,8 hPa 0,0 l/m 14,5 km/h (3 Bft) SW 225 0 min 0,0 UV-I 0 W/m 7,4 C 4,7 C 20,9 km/h (4 Bft)
21.05.2022 02:12 9,5 C 8,3 C 87 % 1021,7 hPa 0,0 l/m 12,9 km/h (3 Bft) SW 225 0 min 0,0 UV-I 0 W/m 7,4 C 5,5 C 19,3 km/h (3 Bft)
21.05.2022 02:13 9,4 C 8,3 C 87 % 1021,7 hPa 0,0 l/m 17,7 km/h (3 Bft) SW 225 0 min 0,0 UV-I 0 W/m 7,3 C 3,3 C 24,1 km/h (4 Bft)
21.05.2022 02:14 9,4 C 8,3 C 87 % 1021,6 hPa 0,0 l/m 19,3 km/h (3 Bft) SW 225 0 min 0,0 UV-I 0 W/m 7,3 C 2,7 C 32,2 km/h (5 Bft)
21.05.2022 02:15 9,4 C 8,3 C 87 % 1021,6 hPa 0,0 l/m 14,5 km/h (3 Bft) W-SW 247 0 min 0,0 UV-I 0 W/m 7,3 C 4,6 C 32,2 km/h (5 Bft)
21.05.2022 02:16 9,4 C 8,3 C 87 % 1021,7 hPa 0,0 l/m 12,9 km/h (3 Bft) SW 225 0 min 0,0 UV-I 0 W/m 7,3 C 5,4 C 17,7 km/h (3 Bft)
21.05.2022 02:17 9,4 C 8,3 C 87 % 1021,6 hPa 0,0 l/m 9,7 km/h (2 Bft) SW 225 0 min 0,0 UV-I 0 W/m 7,3 C 7,1 C 17,7 km/h (3 Bft)
21.05.2022 02:18 9,3 C 8,3 C 87 % 1021,7 hPa 0,0 l/m 16,1 km/h (3 Bft) SW 225 0 min 0,0 UV-I 0 W/m 7,2 C 3,8 C 24,1 km/h (4 Bft)
21.05.2022 02:19 9,3 C 8,3 C 87 % 1021,7 hPa 0,0 l/m 9,7 km/h (2 Bft) W-SW 247 0 min 0,0 UV-I 0 W/m 7,2 C 7,0 C 19,3 km/h (3 Bft)
21.05.2022 02:20 9,3 C 8,3 C 87 % 1021,7 hPa 0,0 l/m 16,1 km/h (3 Bft) SW 225 0 min 0,0 UV-I 0 W/m 7,2 C 3,8 C 24,1 km/h (4 Bft)
21.05.2022 02:21 9,3 C 8,3 C 87 % 1021,7 hPa 0,0 l/m 12,9 km/h (3 Bft) SW 225 0 min 0,0 UV-I 0 W/m 7,2 C 5,3 C 22,5 km/h (4 Bft)
21.05.2022 02:22 9,3 C 8,3 C 87 % 1021,7 hPa 0,0 l/m 9,7 km/h (2 Bft) SW 225 0 min 0,0 UV-I 0 W/m 7,2 C 7,0 C 14,5 km/h (3 Bft)
21.05.2022 02:23 9,2 C 8,3 C 87 % 1021,8 hPa 0,0 l/m 11,3 km/h (2 Bft) W 270 0 min 0,0 UV-I 0 W/m 7,2 C 6,0 C 19,3 km/h (3 Bft)
21.05.2022 02:24 9,2 C 8,3 C 87 % 1021,8 hPa 0,0 l/m 11,3 km/h (2 Bft) SW 225 0 min 0,0 UV-I 0 W/m 7,2 C 6,0 C 19,3 km/h (3 Bft)
21.05.2022 02:25 9,2 C 8,3 C 87 % 1021,8 hPa 0,0 l/m 19,3 km/h (3 Bft) SW 225 0 min 0,0 UV-I 0 W/m 7,2 C 2,5 C 27,4 km/h (4 Bft)
21.05.2022 02:26 9,2 C 8,3 C 87 % 1021,8 hPa 0,0 l/m 16,1 km/h (3 Bft) SW 225 0 min 0,0 UV-I 0 W/m 7,2 C 3,7 C 20,9 km/h (4 Bft)
21.05.2022 02:27 9,2 C 8,3 C 87 % 1021,8 hPa 0,0 l/m 12,9 km/h (3 Bft) SW 225 0 min 0,0 UV-I 0 W/m 7,2 C 5,1 C 22,5 km/h (4 Bft)
21.05.2022 02:28 9,2 C 8,3 C 87 % 1021,8 hPa 0,0 l/m 12,9 km/h (3 Bft) SW 225 0 min 0,0 UV-I 0 W/m 7,2 C 5,1 C 20,9 km/h (4 Bft)
21.05.2022 02:29 9,1 C 8,3 C 87 % 1021,9 hPa 0,0 l/m 12,9 km/h (3 Bft) SW 225 0 min 0,0 UV-I 0 W/m 7,1 C 5,0 C 17,7 km/h (3 Bft)
21.05.2022 02:30 9,1 C 8,3 C 87 % 1021,8 hPa 0,0 l/m 12,9 km/h (3 Bft) SW 225 0 min 0,0 UV-I 0 W/m 7,1 C 5,0 C 17,7 km/h (3 Bft)
21.05.2022 02:31 9,1 C 8,3 C 87 % 1021,7 hPa 0,0 l/m 12,9 km/h (3 Bft) SW 225 0 min 0,0 UV-I 0 W/m 7,1 C 5,0 C 20,9 km/h (4 Bft)
21.05.2022 02:32 9,1 C 8,3 C 87 % 1021,8 hPa 0,0 l/m 16,1 km/h (3 Bft) SW 225 0 min 0,0 UV-I 0 W/m 7,1 C 3,6 C 27,4 km/h (4 Bft)
21.05.2022 02:33 9,1 C 8,3 C 87 % 1021,8 hPa 0,0 l/m 17,7 km/h (3 Bft) SW 225 0 min 0,0 UV-I 0 W/m 7,1 C 2,9 C 30,6 km/h (5 Bft)
21.05.2022 02:34 9,1 C 8,3 C 87 % 1021,8 hPa 0,0 l/m 14,5 km/h (3 Bft) W-SW 247 0 min 0,0 UV-I 0 W/m 7,1 C 4,3 C 19,3 km/h (3 Bft)
21.05.2022 02:35 9,2 C 8,3 C 87 % 1021,8 hPa 0,0 l/m 11,3 km/h (2 Bft) W-SW 247 0 min 0,0 UV-I 0 W/m 7,2 C 6,0 C 14,5 km/h (3 Bft)
21.05.2022 02:36 9,1 C 8,3 C 87 % 1021,9 hPa 0,0 l/m 8,0 km/h (2 Bft) W-SW 247 0 min 0,0 UV-I 0 W/m 7,1 C 7,9 C 14,5 km/h (3 Bft)
21.05.2022 02:37 9,1 C 8,3 C 87 % 1021,8 hPa 0,0 l/m 9,7 km/h (2 Bft) S-SW 202 0 min 0,0 UV-I 0 W/m 7,1 C 6,8 C 19,3 km/h (3 Bft)
21.05.2022 02:38 9,1 C 8,3 C 87 % 1021,8 hPa 0,0 l/m 9,7 km/h (2 Bft) SW 225 0 min 0,0 UV-I 0 W/m 7,1 C 6,8 C 17,7 km/h (3 Bft)
21.05.2022 02:39 9,1 C 8,3 C 87 % 1021,9 hPa 0,0 l/m 11,3 km/h (2 Bft) SW 225 0 min 0,0 UV-I 0 W/m 7,1 C 5,9 C 16,1 km/h (3 Bft)
21.05.2022 02:40 9,1 C 8,3 C 87 % 1021,9 hPa 0,0 l/m 8,0 km/h (2 Bft) SW 225 0 min 0,0 UV-I 0 W/m 7,1 C 7,9 C 12,9 km/h (3 Bft)
21.05.2022 02:41 9,1 C 8,3 C 87 % 1021,9 hPa 0,0 l/m 9,7 km/h (2 Bft) S-SW 202 0 min 0,0 UV-I 0 W/m 7,1 C 6,8 C 14,5 km/h (3 Bft)
21.05.2022 02:42 9,1 C 8,3 C 88 % 1022,0 hPa 0,0 l/m 11,3 km/h (2 Bft) SW 225 0 min 0,0 UV-I 0 W/m 7,2 C 5,9 C 16,1 km/h (3 Bft)
21.05.2022 02:43 9,2 C 8,3 C 88 % 1021,9 hPa 0,0 l/m 9,7 km/h (2 Bft) SW 225 0 min 0,0 UV-I 0 W/m 7,3 C 6,9 C 12,9 km/h (3 Bft)
21.05.2022 02:44 9,1 C 8,3 C 88 % 1022,0 hPa 0,0 l/m 3,2 km/h (1 Bft) SW 225 0 min 0,0 UV-I 0 W/m 7,2 C 9,1 C 8,0 km/h (2 Bft)
21.05.2022 02:45 9,1 C 8,3 C 88 % 1022,0 hPa 0,0 l/m 4,8 km/h (1 Bft) W-SW 247 0 min 0,0 UV-I 0 W/m 7,2 C 9,1 C 6,4 km/h (2 Bft)
21.05.2022 02:46 9,1 C 8,3 C 88 % 1021,9 hPa 0,0 l/m 4,8 km/h (1 Bft) W-SW 247 0 min 0,0 UV-I 0 W/m 7,2 C 9,1 C 9,7 km/h (2 Bft)
21.05.2022 02:47 9,1 C 7,8 C 88 % 1022,0 hPa 0,0 l/m 6,4 km/h (2 Bft) S-SW 202 0 min 0,0 UV-I 0 W/m 7,2 C 9,1 C 8,0 km/h (2 Bft)
21.05.2022 02:48 9,1 C 7,8 C 88 % 1021,9 hPa 0,0 l/m 8,0 km/h (2 Bft) S-SW 202 0 min 0,0 UV-I 0 W/m 7,2 C 7,9 C 16,1 km/h (3 Bft)
21.05.2022 02:49 9,0 C 7,8 C 88 % 1022,1 hPa 0,0 l/m 6,4 km/h (2 Bft) SW 225 0 min 0,0 UV-I 0 W/m 7,1 C 9,0 C 9,7 km/h (2 Bft)
21.05.2022 02:50 9,0 C 7,8 C 88 % 1022,0 hPa 0,0 l/m 9,7 km/h (2 Bft) SW 225 0 min 0,0 UV-I 0 W/m 7,1 C 6,7 C 12,9 km/h (3 Bft)
21.05.2022 02:51 9,0 C 7,8 C 88 % 1022,1 hPa 0,0 l/m 8,0 km/h (2 Bft) SW 225 0 min 0,0 UV-I 0 W/m 7,1 C 7,8 C 12,9 km/h (3 Bft)
21.05.2022 02:52 8,9 C 7,8 C 88 % 1022,1 hPa 0,0 l/m 8,0 km/h (2 Bft) SW 225 0 min 0,0 UV-I 0 W/m 7,0 C 7,7 C 14,5 km/h (3 Bft)
21.05.2022 02:53 8,9 C 7,8 C 88 % 1022,1 hPa 0,0 l/m 6,4 km/h (2 Bft) SW 225 0 min 0,0 UV-I 0 W/m 7,0 C 8,9 C 12,9 km/h (3 Bft)
21.05.2022 02:54 8,9 C 7,8 C 88 % 1022,1 hPa 0,0 l/m 8,0 km/h (2 Bft) S-SW 202 0 min 0,0 UV-I 0 W/m 7,0 C 7,7 C 14,5 km/h (3 Bft)
21.05.2022 02:55 8,9 C 7,8 C 88 % 1022,2 hPa 0,0 l/m 8,0 km/h (2 Bft) W-SW 247 0 min 0,0 UV-I 0 W/m 7,0 C 7,7 C 14,5 km/h (3 Bft)
21.05.2022 02:56 8,9 C 7,8 C 88 % 1022,1 hPa 0,0 l/m 8,0 km/h (2 Bft) SW 225 0 min 0,0 UV-I 0 W/m 7,0 C 7,7 C 12,9 km/h (3 Bft)
21.05.2022 02:57 8,9 C 7,8 C 88 % 1022,1 hPa 0,0 l/m 6,4 km/h (2 Bft) SW 225 0 min 0,0 UV-I 0 W/m 7,0 C 8,9 C 9,7 km/h (2 Bft)
21.05.2022 02:58 8,9 C 7,8 C 89 % 1022,1 hPa 0,0 l/m 9,7 km/h (2 Bft) SW 225 0 min 0,0 UV-I 0 W/m 7,2 C 6,6 C 14,5 km/h (3 Bft)
21.05.2022 02:59 8,8 C 7,8 C 88 % 1022,1 hPa 0,0 l/m 8,0 km/h (2 Bft) SW 225 0 min 0,0 UV-I 0 W/m 6,9 C 7,6 C 12,9 km/h (3 Bft)
21.05.2022 03:00 8,8 C 7,8 C 89 % 1022,1 hPa 0,0 l/m 9,7 km/h (2 Bft) S-SW 202 0 min 0,0 UV-I 0 W/m 7,1 C 6,5 C 14,5 km/h (3 Bft)
21.05.2022 03:01 8,8 C 7,8 C 89 % 1022,1 hPa 0,0 l/m 9,7 km/h (2 Bft) S 180 0 min 0,0 UV-I 0 W/m 7,1 C 6,5 C 12,9 km/h (3 Bft)
21.05.2022 03:02 8,8 C 7,8 C 89 % 1022,1 hPa 0,0 l/m 6,4 km/h (2 Bft) S-SW 202 0 min 0,0 UV-I 0 W/m 7,1 C 8,8 C 8,0 km/h (2 Bft)
21.05.2022 03:03 8,8 C 7,8 C 89 % 1022,1 hPa 0,0 l/m 3,2 km/h (1 Bft) SW 225 0 min 0,0 UV-I 0 W/m 7,1 C 8,8 C 4,8 km/h (1 Bft)
21.05.2022 03:04 8,8 C 7,8 C 89 % 1022,0 hPa 0,0 l/m 6,4 km/h (2 Bft) SW 225 0 min 0,0 UV-I 0 W/m 7,1 C 8,8 C 14,5 km/h (3 Bft)
21.05.2022 03:05 8,7 C 7,8 C 89 % 1022,2 hPa 0,0 l/m 4,8 km/h (1 Bft) W-SW 247 0 min 0,0 UV-I 0 W/m 7,0 C 8,7 C 8,0 km/h (2 Bft)
21.05.2022 03:06 8,7 C 7,8 C 89 % 1022,1 hPa 0,0 l/m 4,8 km/h (1 Bft) SW 225 0 min 0,0 UV-I 0 W/m 7,0 C 8,7 C 8,0 km/h (2 Bft)
21.05.2022 03:07 8,7 C 7,8 C 88 % 1022,1 hPa 0,0 l/m 4,8 km/h (1 Bft) SW 225 0 min 0,0 UV-I 0 W/m 6,8 C 8,7 C 6,4 km/h (2 Bft)
21.05.2022 03:08 8,7 C 7,2 C 89 % 1022,1 hPa 0,0 l/m 4,8 km/h (1 Bft) SW 225 0 min 0,0 UV-I 0 W/m 7,0 C 8,7 C 6,4 km/h (2 Bft)
21.05.2022 03:09 8,6 C 7,2 C 89 % 1022,1 hPa 0,0 l/m 3,2 km/h (1 Bft) SW 225 0 min 0,0 UV-I 0 W/m 6,9 C 8,6 C 6,4 km/h (2 Bft)
21.05.2022 03:10 8,6 C 7,2 C 89 % 1022,1 hPa 0,0 l/m 1,6 km/h (1 Bft) SW 225 0 min 0,0 UV-I 0 W/m 6,9 C 8,6 C 4,8 km/h (1 Bft)
21.05.2022 03:11 8,6 C 7,2 C 89 % 1022,1 hPa 0,0 l/m 4,8 km/h (1 Bft) S-SW 202 0 min 0,0 UV-I 0 W/m 6,9 C 8,6 C 6,4 km/h (2 Bft)
21.05.2022 03:12 8,5 C 6,7 C 89 % 1022,2 hPa 0,0 l/m 6,4 km/h (2 Bft) S-SW 202 0 min 0,0 UV-I 0 W/m 6,8 C 8,5 C 11,3 km/h (2 Bft)
21.05.2022 03:13 8,5 C 7,2 C 89 % 1022,2 hPa 0,0 l/m 6,4 km/h (2 Bft) SW 225 0 min 0,0 UV-I 0 W/m 6,8 C 8,5 C 9,7 km/h (2 Bft)
21.05.2022 03:14 8,4 C 7,2 C 89 % 1022,1 hPa 0,0 l/m 8,0 km/h (2 Bft) S-SW 202 0 min 0,0 UV-I 0 W/m 6,7 C 7,2 C 11,3 km/h (2 Bft)
21.05.2022 03:15 8,4 C 7,2 C 89 % 1022,2 hPa 0,0 l/m 6,4 km/h (2 Bft) SW 225 0 min 0,0 UV-I 0 W/m 6,7 C 8,4 C 12,9 km/h (3 Bft)
21.05.2022 03:16 8,4 C 7,2 C 89 % 1022,3 hPa 0,0 l/m 6,4 km/h (2 Bft) SW 225 0 min 0,0 UV-I 0 W/m 6,7 C 8,4 C 9,7 km/h (2 Bft)
21.05.2022 03:17 8,4 C 7,2 C 89 % 1022,4 hPa 0,0 l/m 6,4 km/h (2 Bft) S-SW 202 0 min 0,0 UV-I 0 W/m 6,7 C 8,4 C 11,3 km/h (2 Bft)
21.05.2022 03:18 8,4 C 7,2 C 89 % 1022,3 hPa 0,0 l/m 4,8 km/h (1 Bft) W-SW 247 0 min 0,0 UV-I 0 W/m 6,7 C 8,4 C 6,4 km/h (2 Bft)
21.05.2022 03:19 8,4 C 7,2 C 89 % 1022,3 hPa 0,0 l/m 6,4 km/h (2 Bft) SW 225 0 min 0,0 UV-I 0 W/m 6,7 C 8,4 C 8,0 km/h (2 Bft)
21.05.2022 03:20 8,4 C 7,2 C 89 % 1022,3 hPa 0,0 l/m 6,4 km/h (2 Bft) S-SW 202 0 min 0,0 UV-I 0 W/m 6,7 C 8,4 C 12,9 km/h (3 Bft)
21.05.2022 03:21 8,4 C 7,2 C 89 % 1022,2 hPa 0,0 l/m 4,8 km/h (1 Bft) SW 225 0 min 0,0 UV-I 0 W/m 6,7 C 8,4 C 8,0 km/h (2 Bft)
21.05.2022 03:22 8,4 C 7,2 C 89 % 1022,2 hPa 0,0 l/m 6,4 km/h (2 Bft) S-SW 202 0 min 0,0 UV-I 0 W/m 6,7 C 8,4 C 8,0 km/h (2 Bft)
21.05.2022 03:23 8,3 C 7,2 C 89 % 1022,2 hPa 0,0 l/m 4,8 km/h (1 Bft) S-SW 202 0 min 0,0 UV-I 0 W/m 6,6 C 8,3 C 12,9 km/h (3 Bft)
21.05.2022 03:24 8,3 C 7,2 C 89 % 1022,2 hPa 0,0 l/m 9,7 km/h (2 Bft) S-SW 202 0 min 0,0 UV-I 0 W/m 6,6 C 5,9 C 11,3 km/h (2 Bft)
21.05.2022 03:25 8,4 C 7,2 C 90 % 1022,3 hPa 0,0 l/m 4,8 km/h (1 Bft) S-SW 202 0 min 0,0 UV-I 0 W/m 6,9 C 8,4 C 6,4 km/h (2 Bft)
21.05.2022 03:26 8,4 C 7,2 C 89 % 1022,2 hPa 0,0 l/m 6,4 km/h (2 Bft) S-SW 202 0 min 0,0 UV-I 0 W/m 6,7 C 8,4 C 9,7 km/h (2 Bft)
21.05.2022 03:27 8,3 C 7,2 C 90 % 1022,3 hPa 0,0 l/m 4,8 km/h (1 Bft) SW 225 0 min 0,0 UV-I 0 W/m 6,8 C 8,3 C 9,7 km/h (2 Bft)
21.05.2022 03:28 8,3 C 7,2 C 90 % 1022,3 hPa 0,0 l/m 3,2 km/h (1 Bft) SW 225 0 min 0,0 UV-I 0 W/m 6,8 C 8,3 C 6,4 km/h (2 Bft)
21.05.2022 03:29 8,3 C 7,2 C 90 % 1022,4 hPa 0,0 l/m 8,0 km/h (2 Bft) S-SW 202 0 min 0,0 UV-I 0 W/m 6,8 C 7,1 C 14,5 km/h (3 Bft)
21.05.2022 03:30 8,3 C 7,2 C 90 % 1022,3 hPa 0,0 l/m 8,0 km/h (2 Bft) S-SW 202 0 min 0,0 UV-I 0 W/m 6,8 C 7,1 C 14,5 km/h (3 Bft)
21.05.2022 03:31 8,3 C 7,2 C 90 % 1022,3 hPa 0,0 l/m 9,7 km/h (2 Bft) SW 225 0 min 0,0 UV-I 0 W/m 6,8 C 5,9 C 16,1 km/h (3 Bft)
21.05.2022 03:32 8,3 C 7,2 C 90 % 1022,2 hPa 0,0 l/m 6,4 km/h (2 Bft) S-SW 202 0 min 0,0 UV-I 0 W/m 6,8 C 8,3 C 8,0 km/h (2 Bft)
21.05.2022 03:33 8,3 C 7,2 C 90 % 1022,3 hPa 0,0 l/m 4,8 km/h (1 Bft) S-SW 202 0 min 0,0 UV-I 0 W/m 6,8 C 8,3 C 8,0 km/h (2 Bft)
21.05.2022 03:34 8,3 C 7,2 C 90 % 1022,3 hPa 0,0 l/m 4,8 km/h (1 Bft) S-SW 202 0 min 0,0 UV-I 0 W/m 6,8 C 8,3 C 8,0 km/h (2 Bft)
21.05.2022 03:35 8,3 C 7,2 C 90 % 1022,2 hPa 0,0 l/m 6,4 km/h (2 Bft) S-SW 202 0 min 0,0 UV-I 0 W/m 6,8 C 8,3 C 9,7 km/h (2 Bft)
21.05.2022 03:36 8,3 C 7,2 C 90 % 1022,2 hPa 0,0 l/m 6,4 km/h (2 Bft) S-SW 202 0 min 0,0 UV-I 0 W/m 6,8 C 8,3 C 8,0 km/h (2 Bft)
21.05.2022 03:37 8,3 C 7,2 C 90 % 1022,2 hPa 0,0 l/m 6,4 km/h (2 Bft) S-SW 202 0 min 0,0 UV-I 0 W/m 6,8 C 8,3 C 14,5 km/h (3 Bft)
21.05.2022 03:38 8,3 C 7,2 C 90 % 1022,2 hPa 0,0 l/m 8,0 km/h (2 Bft) S 180 0 min 0,0 UV-I 0 W/m 6,8 C 7,1 C 14,5 km/h (3 Bft)
21.05.2022 03:39 8,3 C 6,7 C 90 % 1022,3 hPa 0,0 l/m 6,4 km/h (2 Bft) S-SW 202 0 min 0,0 UV-I 0 W/m 6,8 C 8,3 C 11,3 km/h (2 Bft)
21.05.2022 03:40 8,3 C 6,7 C 90 % 1022,3 hPa 0,0 l/m 8,0 km/h (2 Bft) S-SW 202 0 min 0,0 UV-I 0 W/m 6,8 C 7,1 C 11,3 km/h (2 Bft)
21.05.2022 03:41 8,2 C 6,7 C 90 % 1022,2 hPa 0,0 l/m 8,0 km/h (2 Bft) S-SW 202 0 min 0,0 UV-I 0 W/m 6,7 C 7,0 C 11,3 km/h (2 Bft)
21.05.2022 03:42 8,2 C 7,2 C 90 % 1022,2 hPa 0,0 l/m 6,4 km/h (2 Bft) SW 225 0 min 0,0 UV-I 0 W/m 6,7 C 8,2 C 8,0 km/h (2 Bft)
21.05.2022 03:43 8,2 C 7,2 C 90 % 1022,2 hPa 0,0 l/m 4,8 km/h (1 Bft) S-SW 202 0 min 0,0 UV-I 0 W/m 6,7 C 8,2 C 8,0 km/h (2 Bft)
21.05.2022 03:44 8,2 C 6,7 C 90 % 1022,1 hPa 0,0 l/m 6,4 km/h (2 Bft) S-SW 202 0 min 0,0 UV-I 0 W/m 6,7 C 8,2 C 11,3 km/h (2 Bft)
21.05.2022 03:45 8,2 C 6,7 C 90 % 1022,2 hPa 0,0 l/m 6,4 km/h (2 Bft) S-SW 202 0 min 0,0 UV-I 0 W/m 6,7 C 8,2 C 11,3 km/h (2 Bft)
21.05.2022 03:46 8,2 C 7,2 C 90 % 1022,3 hPa 0,0 l/m 8,0 km/h (2 Bft) S-SW 202 0 min 0,0 UV-I 0 W/m 6,7 C 7,0 C 12,9 km/h (3 Bft)
21.05.2022 03:47 8,2 C 7,2 C 90 % 1022,4 hPa 0,0 l/m 4,8 km/h (1 Bft) S-SW 202 0 min 0,0 UV-I 0 W/m 6,7 C 8,2 C 9,7 km/h (2 Bft)
21.05.2022 03:48 8,2 C 7,2 C 90 % 1022,3 hPa 0,0 l/m 8,0 km/h (2 Bft) S 180 0 min 0,0 UV-I 0 W/m 6,7 C 7,0 C 9,7 km/h (2 Bft)
21.05.2022 03:49 8,2 C 7,2 C 90 % 1022,3 hPa 0,0 l/m 4,8 km/h (1 Bft) S 180 0 min 0,0 UV-I 0 W/m 6,7 C 8,2 C 9,7 km/h (2 Bft)
21.05.2022 03:50 8,2 C 7,2 C 90 % 1022,3 hPa 0,0 l/m 9,7 km/h (2 Bft) S-SW 202 0 min 0,0 UV-I 0 W/m 6,7 C 5,8 C 14,5 km/h (3 Bft)
21.05.2022 03:51 8,2 C 7,2 C 90 % 1022,3 hPa 0,0 l/m 6,4 km/h (2 Bft) SW 225 0 min 0,0 UV-I 0 W/m 6,7 C 8,2 C 11,3 km/h (2 Bft)
21.05.2022 03:52 8,3 C 7,2 C 90 % 1022,3 hPa 0,0 l/m 4,8 km/h (1 Bft) S-SW 202 0 min 0,0 UV-I 0 W/m 6,8 C 8,3 C 6,4 km/h (2 Bft)
21.05.2022 03:53 8,2 C 7,2 C 90 % 1022,3 hPa 0,0 l/m 4,8 km/h (1 Bft) SW 225 0 min 0,0 UV-I 0 W/m 6,7 C 8,2 C 8,0 km/h (2 Bft)
21.05.2022 03:54 8,2 C 7,2 C 90 % 1022,4 hPa 0,0 l/m 8,0 km/h (2 Bft) SW 225 0 min 0,0 UV-I 0 W/m 6,7 C 7,0 C 9,7 km/h (2 Bft)
21.05.2022 03:55 8,2 C 7,2 C 90 % 1022,3 hPa 0,0 l/m 9,7 km/h (2 Bft) S-SW 202 0 min 0,0 UV-I 0 W/m 6,7 C 5,8 C 12,9 km/h (3 Bft)
21.05.2022 03:56 8,2 C 7,2 C 90 % 1022,4 hPa 0,0 l/m 8,0 km/h (2 Bft) S-SW 202 0 min 0,0 UV-I 0 W/m 6,7 C 7,0 C 12,9 km/h (3 Bft)
21.05.2022 03:57 8,2 C 7,2 C 90 % 1022,4 hPa 0,0 l/m 6,4 km/h (2 Bft) S-SW 202 0 min 0,0 UV-I 0 W/m 6,7 C 8,2 C 9,7 km/h (2 Bft)
21.05.2022 03:58 8,2 C 7,2 C 90 % 1022,4 hPa 0,0 l/m 6,4 km/h (2 Bft) S-SW 202 0 min 0,0 UV-I 0 W/m 6,7 C 8,2 C 9,7 km/h (2 Bft)
21.05.2022 03:59 8,2 C 6,7 C 90 % 1022,4 hPa 0,0 l/m 8,0 km/h (2 Bft) S-SW 202 0 min 0,0 UV-I 0 W/m 6,7 C 7,0 C 11,3 km/h (2 Bft)
21.05.2022 04:00 8,1 C 6,7 C 90 % 1022,4 hPa 0,0 l/m 8,0 km/h (2 Bft) S-SW 202 0 min 0,0 UV-I 0 W/m 6,6 C 6,9 C 11,3 km/h (2 Bft)
21.05.2022 04:01 8,2 C 6,7 C 90 % 1022,4 hPa 0,0 l/m 8,0 km/h (2 Bft) S 180 0 min 0,0 UV-I 0 W/m 6,7 C 7,0 C 12,9 km/h (3 Bft)
21.05.2022 04:02 8,1 C 6,7 C 90 % 1022,4 hPa 0,0 l/m 6,4 km/h (2 Bft) S 180 0 min 0,0 UV-I 0 W/m 6,6 C 8,1 C 9,7 km/h (2 Bft)
21.05.2022 04:03 8,1 C 6,7 C 90 % 1022,4 hPa 0,0 l/m 8,0 km/h (2 Bft) S-SW 202 0 min 0,0 UV-I 0 W/m 6,6 C 6,9 C 16,1 km/h (3 Bft)
21.05.2022 04:04 8,1 C 6,7 C 90 % 1022,4 hPa 0,0 l/m 8,0 km/h (2 Bft) S-SW 202 0 min 0,0 UV-I 0 W/m 6,6 C 6,9 C 14,5 km/h (3 Bft)
21.05.2022 04:05 8,1 C 6,7 C 90 % 1022,4 hPa 0,0 l/m 8,0 km/h (2 Bft) S-SW 202 0 min 0,0 UV-I 0 W/m 6,6 C 6,9 C 9,7 km/h (2 Bft)
21.05.2022 04:06 8,1 C 6,7 C 90 % 1022,4 hPa 0,0 l/m 6,4 km/h (2 Bft) S-SW 202 0 min 0,0 UV-I 0 W/m 6,6 C 8,1 C 8,0 km/h (2 Bft)
21.05.2022 04:07 8,1 C 6,7 C 90 % 1022,4 hPa 0,0 l/m 8,0 km/h (2 Bft) S-SW 202 0 min 0,0 UV-I 0 W/m 6,6 C 6,9 C 11,3 km/h (2 Bft)
21.05.2022 04:08 8,0 C 6,7 C 90 % 1022,3 hPa 0,0 l/m 8,0 km/h (2 Bft) S-SW 202 0 min 0,0 UV-I 0 W/m 6,5 C 6,8 C 12,9 km/h (3 Bft)
21.05.2022 04:09 8,0 C 6,7 C 90 % 1022,4 hPa 0,0 l/m 9,7 km/h (2 Bft) S 180 0 min 0,0 UV-I 0 W/m 6,5 C 5,6 C 12,9 km/h (3 Bft)
21.05.2022 04:10 7,9 C 6,7 C 90 % 1022,4 hPa 0,0 l/m 8,0 km/h (2 Bft) S-SW 202 0 min 0,0 UV-I 0 W/m 6,4 C 6,6 C 11,3 km/h (2 Bft)
21.05.2022 04:11 8,0 C 6,7 C 90 % 1022,5 hPa 0,0 l/m 9,7 km/h (2 Bft) S-SW 202 0 min 0,0 UV-I 0 W/m 6,5 C 5,6 C 12,9 km/h (3 Bft)
21.05.2022 04:12 8,0 C 6,7 C 90 % 1022,4 hPa 0,0 l/m 6,4 km/h (2 Bft) S 180 0 min 0,0 UV-I 0 W/m 6,5 C 8,0 C 8,0 km/h (2 Bft)
21.05.2022 04:13 7,9 C 6,7 C 90 % 1022,4 hPa 0,0 l/m 4,8 km/h (1 Bft) S 180 0 min 0,0 UV-I 0 W/m 6,4 C 7,9 C 6,4 km/h (2 Bft)
21.05.2022 04:14 7,9 C 6,7 C 90 % 1022,4 hPa 0,0 l/m 8,0 km/h (2 Bft) S-SW 202 0 min 0,0 UV-I 0 W/m 6,4 C 6,6 C 8,0 km/h (2 Bft)
21.05.2022 04:15 7,9 C 6,7 C 90 % 1022,4 hPa 0,0 l/m 4,8 km/h (1 Bft) S-SW 202 0 min 0,0 UV-I 0 W/m 6,4 C 7,9 C 8,0 km/h (2 Bft)
21.05.2022 04:16 7,9 C 6,7 C 90 % 1022,4 hPa 0,0 l/m 6,4 km/h (2 Bft) S 180 0 min 0,0 UV-I 0 W/m 6,4 C 7,9 C 9,7 km/h (2 Bft)
21.05.2022 04:17 7,8 C 6,7 C 90 % 1022,4 hPa 0,0 l/m 6,4 km/h (2 Bft) S-SW 202 0 min 0,0 UV-I 0 W/m 6,3 C 7,8 C 9,7 km/h (2 Bft)
21.05.2022 04:18 7,8 C 6,7 C 90 % 1022,4 hPa 0,0 l/m 6,4 km/h (2 Bft) S-SW 202 0 min 0,0 UV-I 0 W/m 6,3 C 7,8 C 9,7 km/h (2 Bft)
21.05.2022 04:19 7,8 C 6,7 C 90 % 1022,3 hPa 0,0 l/m 8,0 km/h (2 Bft) S 180 0 min 0,0 UV-I 0 W/m 6,3 C 6,5 C 11,3 km/h (2 Bft)
21.05.2022 04:20 7,8 C 6,7 C 90 % 1022,3 hPa 0,0 l/m 6,4 km/h (2 Bft) S 180 0 min 0,0 UV-I 0 W/m 6,3 C 7,8 C 9,7 km/h (2 Bft)
21.05.2022 04:21 7,8 C 6,7 C 90 % 1022,3 hPa 0,0 l/m 6,4 km/h (2 Bft) S-SW 202 0 min 0,0 UV-I 0 W/m 6,3 C 7,8 C 11,3 km/h (2 Bft)
21.05.2022 04:22 7,8 C 6,7 C 90 % 1022,3 hPa 0,0 l/m 6,4 km/h (2 Bft) S 180 0 min 0,0 UV-I 0 W/m 6,3 C 7,8 C 11,3 km/h (2 Bft)
21.05.2022 04:23 7,8 C 6,7 C 90 % 1022,4 hPa 0,0 l/m 8,0 km/h (2 Bft) S-SW 202 0 min 0,0 UV-I 0 W/m 6,3 C 6,5 C 11,3 km/h (2 Bft)
21.05.2022 04:24 7,8 C 6,7 C 90 % 1022,3 hPa 0,0 l/m 8,0 km/h (2 Bft) S-SW 202 0 min 0,0 UV-I 0 W/m 6,3 C 6,5 C 11,3 km/h (2 Bft)
21.05.2022 04:25 7,8 C 6,7 C 90 % 1022,4 hPa 0,0 l/m 8,0 km/h (2 Bft) S 180 0 min 0,0 UV-I 0 W/m 6,3 C 6,5 C 11,3 km/h (2 Bft)
21.05.2022 04:26 7,8 C 7,2 C 90 % 1022,3 hPa 0,0 l/m 8,0 km/h (2 Bft) S-SW 202 0 min 0,0 UV-I 0 W/m 6,3 C 6,5 C 9,7 km/h (2 Bft)
21.05.2022 04:27 7,8 C 7,2 C 90 % 1022,4 hPa 0,0 l/m 8,0 km/h (2 Bft) S-SW 202 0 min 0,0 UV-I 0 W/m 6,3 C 6,5 C 9,7 km/h (2 Bft)
21.05.2022 04:28 7,8 C 7,2 C 90 % 1022,4 hPa 0,0 l/m 4,8 km/h (1 Bft) S-SW 202 0 min 0,0 UV-I 0 W/m 6,3 C 7,8 C 8,0 km/h (2 Bft)
21.05.2022 04:29 7,8 C 7,2 C 90 % 1022,3 hPa 0,0 l/m 8,0 km/h (2 Bft) S-SW 202 0 min 0,0 UV-I 0 W/m 6,3 C 6,5 C 11,3 km/h (2 Bft)
21.05.2022 04:30 7,8 C 7,2 C 90 % 1022,3 hPa 0,0 l/m 6,4 km/h (2 Bft) S-SW 202 0 min 0,0 UV-I 0 W/m 6,3 C 7,8 C 8,0 km/h (2 Bft)
21.05.2022 04:31 7,9 C 7,2 C 90 % 1022,3 hPa 0,0 l/m 6,4 km/h (2 Bft) S-SW 202 0 min 0,0 UV-I 0 W/m 6,4 C 7,9 C 8,0 km/h (2 Bft)
21.05.2022 04:32 7,9 C 7,2 C 90 % 1022,3 hPa 0,0 l/m 8,0 km/h (2 Bft) S-SW 202 0 min 0,0 UV-I 0 W/m 6,4 C 6,6 C 9,7 km/h (2 Bft)
21.05.2022 04:33 7,9 C 7,2 C 90 % 1022,2 hPa 0,0 l/m 8,0 km/h (2 Bft) S-SW 202 0 min 0,0 UV-I 0 W/m 6,4 C 6,6 C 9,7 km/h (2 Bft)
21.05.2022 04:34 7,9 C 7,2 C 90 % 1022,2 hPa 0,0 l/m 4,8 km/h (1 Bft) S-SW 202 0 min 0,0 UV-I 0 W/m 6,4 C 7,9 C 6,4 km/h (2 Bft)
21.05.2022 04:35 8,0 C 7,2 C 90 % 1022,2 hPa 0,0 l/m 4,8 km/h (1 Bft) S 180 0 min 0,0 UV-I 0 W/m 6,5 C 8,0 C 6,4 km/h (2 Bft)
21.05.2022 04:36 8,0 C 7,8 C 90 % 1022,2 hPa 0,0 l/m 6,4 km/h (2 Bft) SW 225 0 min 0,0 UV-I 0 W/m 6,5 C 8,0 C 12,9 km/h (3 Bft)
21.05.2022 04:37 8,0 C 7,8 C 91 % 1022,2 hPa 0,0 l/m 8,0 km/h (2 Bft) S-SW 202 0 min 0,0 UV-I 0 W/m 6,6 C 6,8 C 12,9 km/h (3 Bft)
21.05.2022 04:38 8,1 C 7,8 C 90 % 1022,2 hPa 0,0 l/m 8,0 km/h (2 Bft) S-SW 202 0 min 0,0 UV-I 0 W/m 6,6 C 6,9 C 12,9 km/h (3 Bft)
21.05.2022 04:39 8,1 C 7,8 C 90 % 1022,1 hPa 0,0 l/m 9,7 km/h (2 Bft) S-SW 202 0 min 0,0 UV-I 0 W/m 6,6 C 5,7 C 11,3 km/h (2 Bft)
21.05.2022 04:40 8,1 C 7,8 C 90 % 1022,2 hPa 0,0 l/m 6,4 km/h (2 Bft) S-SW 202 0 min 0,0 UV-I 0 W/m 6,6 C 8,1 C 11,3 km/h (2 Bft)
21.05.2022 04:41 8,1 C 7,8 C 90 % 1022,2 hPa 0,0 l/m 9,7 km/h (2 Bft) S 180 0 min 0,0 UV-I 0 W/m 6,6 C 5,7 C 16,1 km/h (3 Bft)
21.05.2022 04:42 8,2 C 7,8 C 90 % 1022,2 hPa 0,0 l/m 9,7 km/h (2 Bft) S-SW 202 0 min 0,0 UV-I 0 W/m 6,7 C 5,8 C 19,3 km/h (3 Bft)
21.05.2022 04:43 8,2 C 7,8 C 90 % 1022,2 hPa 0,0 l/m 9,7 km/h (2 Bft) S-SW 202 0 min 0,0 UV-I 0 W/m 6,7 C 5,8 C 14,5 km/h (3 Bft)
21.05.2022 04:44 8,2 C 7,8 C 90 % 1022,1 hPa 0,0 l/m 8,0 km/h (2 Bft) S 180 0 min 0,0 UV-I 0 W/m 6,7 C 7,0 C 9,7 km/h (2 Bft)
21.05.2022 04:45 8,2 C 7,8 C 90 % 1022,1 hPa 0,0 l/m 8,0 km/h (2 Bft) S 180 0 min 0,0 UV-I 0 W/m 6,7 C 7,0 C 11,3 km/h (2 Bft)
21.05.2022 04:46 8,2 C 7,8 C 90 % 1022,1 hPa 0,0 l/m 8,0 km/h (2 Bft) S 180 0 min 0,0 UV-I 0 W/m 6,7 C 7,0 C 12,9 km/h (3 Bft)
21.05.2022 04:47 8,3 C 7,8 C 90 % 1022,2 hPa 0,0 l/m 9,7 km/h (2 Bft) S 180 0 min 0,0 UV-I 0 W/m 6,8 C 5,9 C 12,9 km/h (3 Bft)
21.05.2022 04:48 8,3 C 7,8 C 90 % 1022,2 hPa 0,0 l/m 9,7 km/h (2 Bft) S 180 0 min 0,0 UV-I 0 W/m 6,8 C 5,9 C 12,9 km/h (3 Bft)
21.05.2022 04:49 8,3 C 7,8 C 90 % 1022,1 hPa 0,0 l/m 11,3 km/h (2 Bft) S-SW 202 0 min 0,0 UV-I 0 W/m 6,8 C 4,9 C 20,9 km/h (4 Bft)
21.05.2022 04:50 8,3 C 7,8 C 90 % 1022,1 hPa 0,0 l/m 9,7 km/h (2 Bft) S 180 0 min 0,0 UV-I 0 W/m 6,8 C 5,9 C 14,5 km/h (3 Bft)
21.05.2022 04:51 8,3 C 7,8 C 90 % 1022,1 hPa 0,0 l/m 8,0 km/h (2 Bft) S-SW 202 0 min 0,0 UV-I 0 W/m 6,8 C 7,1 C 14,5 km/h (3 Bft)
21.05.2022 04:52 8,3 C 7,8 C 90 % 1022,2 hPa 0,0 l/m 9,7 km/h (2 Bft) S 180 0 min 0,0 UV-I 0 W/m 6,8 C 5,9 C 14,5 km/h (3 Bft)
21.05.2022 04:53 8,3 C 7,8 C 90 % 1022,1 hPa 0,0 l/m 11,3 km/h (2 Bft) S-SW 202 0 min 0,0 UV-I 0 W/m 6,8 C 4,9 C 12,9 km/h (3 Bft)
21.05.2022 04:54 8,3 C 7,8 C 90 % 1022,1 hPa 0,0 l/m 11,3 km/h (2 Bft) S 180 0 min 0,0 UV-I 0 W/m 6,8 C 4,9 C 16,1 km/h (3 Bft)
21.05.2022 04:55 8,3 C 7,8 C 89 % 1022,1 hPa 0,0 l/m 11,3 km/h (2 Bft) S-SW 202 0 min 0,0 UV-I 0 W/m 6,6 C 4,9 C 19,3 km/h (3 Bft)
21.05.2022 04:56 8,3 C 7,8 C 90 % 1022,1 hPa 0,0 l/m 9,7 km/h (2 Bft) S 180 0 min 0,0 UV-I 0 W/m 6,8 C 5,9 C 14,5 km/h (3 Bft)
21.05.2022 04:57 8,3 C 7,8 C 89 % 1022,1 hPa 0,0 l/m 9,7 km/h (2 Bft) S-SW 202 0 min 0,0 UV-I 0 W/m 6,6 C 5,9 C 19,3 km/h (3 Bft)
21.05.2022 04:58 8,3 C 7,8 C 89 % 1022,1 hPa 0,0 l/m 11,3 km/h (2 Bft) S 180 0 min 0,0 UV-I 0 W/m 6,6 C 4,9 C 16,1 km/h (3 Bft)
21.05.2022 04:59 8,3 C 7,8 C 89 % 1022,1 hPa 0,0 l/m 11,3 km/h (2 Bft) S 180 0 min 0,0 UV-I 0 W/m 6,6 C 4,9 C 16,1 km/h (3 Bft)
21.05.2022 05:00 8,4 C 7,8 C 89 % 1022,1 hPa 0,0 l/m 8,0 km/h (2 Bft) S-SW 202 0 min 0,0 UV-I 0 W/m 6,7 C 7,2 C 14,5 km/h (3 Bft)
21.05.2022 05:01 8,4 C 7,8 C 89 % 1022,1 hPa 0,0 l/m 11,3 km/h (2 Bft) S 180 0 min 0,0 UV-I 0 W/m 6,7 C 5,1 C 16,1 km/h (3 Bft)
21.05.2022 05:02 8,4 C 7,8 C 89 % 1022,2 hPa 0,0 l/m 12,9 km/h (3 Bft) S 180 0 min 0,0 UV-I 0 W/m 6,7 C 4,2 C 17,7 km/h (3 Bft)
21.05.2022 05:03 8,4 C 7,8 C 89 % 1022,3 hPa 0,0 l/m 12,9 km/h (3 Bft) S-SW 202 0 min 0,0 UV-I 0 W/m 6,7 C 4,2 C 17,7 km/h (3 Bft)
21.05.2022 05:04 8,3 C 7,8 C 89 % 1022,2 hPa 0,0 l/m 9,7 km/h (2 Bft) S 180 0 min 0,0 UV-I 0 W/m 6,6 C 5,9 C 12,9 km/h (3 Bft)
21.05.2022 05:05 8,3 C 7,8 C 89 % 1022,4 hPa 0,0 l/m 12,9 km/h (3 Bft) S-SW 202 0 min 0,0 UV-I 0 W/m 6,6 C 4,1 C 16,1 km/h (3 Bft)
21.05.2022 05:06 8,3 C 7,8 C 89 % 1022,2 hPa 0,0 l/m 8,0 km/h (2 Bft) S-SW 202 0 min 0,0 UV-I 0 W/m 6,6 C 7,1 C 16,1 km/h (3 Bft)
21.05.2022 05:07 8,4 C 7,8 C 89 % 1022,2 hPa 0,0 l/m 11,3 km/h (2 Bft) S-SW 202 0 min 0,0 UV-I 0 W/m 6,7 C 5,1 C 16,1 km/h (3 Bft)
21.05.2022 05:08 8,3 C 7,8 C 89 % 1022,3 hPa 0,0 l/m 9,7 km/h (2 Bft) S 180 0 min 0,0 UV-I 0 W/m 6,6 C 5,9 C 14,5 km/h (3 Bft)
21.05.2022 05:09 8,4 C 7,8 C 89 % 1022,2 hPa 0,0 l/m 8,0 km/h (2 Bft) S 180 0 min 0,0 UV-I 0 W/m 6,7 C 7,2 C 11,3 km/h (2 Bft)
21.05.2022 05:10 8,4 C 7,8 C 89 % 1022,3 hPa 0,0 l/m 9,7 km/h (2 Bft) S-SW 202 0 min 0,0 UV-I 0 W/m 6,7 C 6,0 C 17,7 km/h (3 Bft)
21.05.2022 05:11 8,3 C 7,8 C 89 % 1022,3 hPa 0,0 l/m 14,5 km/h (3 Bft) S-SW 202 0 min 0,0 UV-I 0 W/m 6,6 C 3,3 C 19,3 km/h (3 Bft)
21.05.2022 05:12 8,4 C 7,8 C 89 % 1022,3 hPa 0,0 l/m 11,3 km/h (2 Bft) S-SW 202 0 min 0,0 UV-I 0 W/m 6,7 C 5,1 C 16,1 km/h (3 Bft)
21.05.2022 05:13 8,4 C 7,8 C 89 % 1022,3 hPa 0,0 l/m 9,7 km/h (2 Bft) S 180 0 min 0,0 UV-I 0 W/m 6,7 C 6,0 C 14,5 km/h (3 Bft)
21.05.2022 05:14 8,4 C 7,8 C 89 % 1022,3 hPa 0,0 l/m 11,3 km/h (2 Bft) S 180 0 min 0,0 UV-I 0 W/m 6,7 C 5,1 C 20,9 km/h (4 Bft)
21.05.2022 05:15 8,4 C 7,8 C 89 % 1022,3 hPa 0,0 l/m 8,0 km/h (2 Bft) S-SW 202 0 min 0,0 UV-I 0 W/m 6,7 C 7,2 C 11,3 km/h (2 Bft)
21.05.2022 05:16 8,4 C 7,8 C 89 % 1022,2 hPa 0,0 l/m 11,3 km/h (2 Bft) S-SW 202 0 min 0,0 UV-I 0 W/m 6,7 C 5,1 C 16,1 km/h (3 Bft)
21.05.2022 05:17 8,4 C 7,8 C 89 % 1022,3 hPa 0,0 l/m 14,5 km/h (3 Bft) S-SW 202 0 min 0,0 UV-I 0 W/m 6,7 C 3,4 C 17,7 km/h (3 Bft)
21.05.2022 05:18 8,4 C 7,8 C 89 % 1022,2 hPa 0,0 l/m 11,3 km/h (2 Bft) S 180 0 min 0,0 UV-I 0 W/m 6,7 C 5,1 C 14,5 km/h (3 Bft)
21.05.2022 05:19 8,4 C 7,8 C 89 % 1022,3 hPa 0,0 l/m 11,3 km/h (2 Bft) S-SW 202 0 min 0,0 UV-I 0 W/m 6,7 C 5,1 C 12,9 km/h (3 Bft)
21.05.2022 05:20 8,4 C 7,8 C 89 % 1022,3 hPa 0,0 l/m 11,3 km/h (2 Bft) S-SW 202 0 min 0,0 UV-I 0 W/m 6,7 C 5,1 C 14,5 km/h (3 Bft)
21.05.2022 05:21 8,4 C 7,8 C 89 % 1022,4 hPa 0,0 l/m 9,7 km/h (2 Bft) S-SW 202 0 min 0,0 UV-I 0 W/m 6,7 C 6,0 C 12,9 km/h (3 Bft)
21.05.2022 05:22 8,4 C 7,8 C 89 % 1022,3 hPa 0,0 l/m 9,7 km/h (2 Bft) S-SW 202 0 min 0,0 UV-I 0 W/m 6,7 C 6,0 C 16,1 km/h (3 Bft)
21.05.2022 05:23 8,4 C 8,3 C 89 % 1022,3 hPa 0,0 l/m 11,3 km/h (2 Bft) S 180 0 min 0,0 UV-I 0 W/m 6,7 C 5,1 C 17,7 km/h (3 Bft)
21.05.2022 05:24 8,4 C 8,3 C 89 % 1022,3 hPa 0,0 l/m 8,0 km/h (2 Bft) S-SW 202 0 min 0,0 UV-I 0 W/m 6,7 C 7,2 C 11,3 km/h (2 Bft)
21.05.2022 05:25 8,4 C 8,3 C 89 % 1022,2 hPa 0,0 l/m 9,7 km/h (2 Bft) S 180 0 min 0,0 UV-I 0 W/m 6,7 C 6,0 C 14,5 km/h (3 Bft)
21.05.2022 05:26 8,4 C 7,8 C 89 % 1022,2 hPa 0,0 l/m 11,3 km/h (2 Bft) S-SW 202 0 min 0,0 UV-I 0 W/m 6,7 C 5,1 C 16,1 km/h (3 Bft)
21.05.2022 05:27 8,4 C 7,8 C 89 % 1022,4 hPa 0,0 l/m 11,3 km/h (2 Bft) S 180 0 min 0,0 UV-I 0 W/m 6,7 C 5,1 C 16,1 km/h (3 Bft)
21.05.2022 05:28 8,4 C 7,8 C 89 % 1022,3 hPa 0,0 l/m 9,7 km/h (2 Bft) S 180 0 min 0,0 UV-I 0 W/m 6,7 C 6,0 C 12,9 km/h (3 Bft)
21.05.2022 05:29 8,4 C 7,8 C 89 % 1022,4 hPa 0,0 l/m 11,3 km/h (2 Bft) S-SW 202 0 min 0,0 UV-I 0 W/m 6,7 C 5,1 C 16,1 km/h (3 Bft)
21.05.2022 05:30 8,4 C 7,8 C 89 % 1022,3 hPa 0,0 l/m 11,3 km/h (2 Bft) S-SW 202 0 min 0,0 UV-I 0 W/m 6,7 C 5,1 C 16,1 km/h (3 Bft)
21.05.2022 05:31 8,4 C 7,8 C 89 % 1022,3 hPa 0,0 l/m 12,9 km/h (3 Bft) S-SW 202 0 min 0,0 UV-I 0 W/m 6,7 C 4,2 C 16,1 km/h (3 Bft)
21.05.2022 05:32 8,4 C 7,8 C 89 % 1022,2 hPa 0,0 l/m 11,3 km/h (2 Bft) S-SW 202 0 min 0,0 UV-I 0 W/m 6,7 C 5,1 C 12,9 km/h (3 Bft)
21.05.2022 05:33 8,4 C 7,8 C 89 % 1022,3 hPa 0,0 l/m 9,7 km/h (2 Bft) S 180 0 min 0,0 UV-I 0 W/m 6,7 C 6,0 C 12,9 km/h (3 Bft)
21.05.2022 05:34 8,4 C 7,8 C 89 % 1022,4 hPa 0,0 l/m 9,7 km/h (2 Bft) SW 225 0 min 0,0 UV-I 0 W/m 6,7 C 6,0 C 12,9 km/h (3 Bft)
21.05.2022 05:35 8,4 C 7,8 C 89 % 1022,4 hPa 0,0 l/m 9,7 km/h (2 Bft) S-SW 202 0 min 0,0 UV-I 0 W/m 6,7 C 6,0 C 12,9 km/h (3 Bft)
21.05.2022 05:36 8,4 C 7,8 C 89 % 1022,3 hPa 0,0 l/m 9,7 km/h (2 Bft) S-SW 202 0 min 0,0 UV-I 0 W/m 6,7 C 6,0 C 14,5 km/h (3 Bft)
21.05.2022 05:37 8,4 C 7,8 C 89 % 1022,3 hPa 0,0 l/m 12,9 km/h (3 Bft) S-SW 202 0 min 0,0 UV-I 0 W/m 6,7 C 4,2 C 17,7 km/h (3 Bft)
21.05.2022 05:38 8,4 C 8,3 C 89 % 1022,3 hPa 0,0 l/m 9,7 km/h (2 Bft) S 180 0 min 0,0 UV-I 0 W/m 6,7 C 6,0 C 14,5 km/h (3 Bft)
21.05.2022 05:39 8,4 C 8,3 C 89 % 1022,3 hPa 0,0 l/m 11,3 km/h (2 Bft) S 180 0 min 0,0 UV-I 0 W/m 6,7 C 5,1 C 16,1 km/h (3 Bft)
21.05.2022 05:40 8,4 C 8,3 C 89 % 1022,4 hPa 0,0 l/m 9,7 km/h (2 Bft) S-SW 202 0 min 0,0 UV-I 0 W/m 6,7 C 6,0 C 16,1 km/h (3 Bft)
21.05.2022 05:41 8,4 C 8,3 C 89 % 1022,3 hPa 0,0 l/m 11,3 km/h (2 Bft) S-SW 202 0 min 0,0 UV-I 0 W/m 6,7 C 5,1 C 16,1 km/h (3 Bft)
21.05.2022 05:42 8,4 C 8,3 C 89 % 1022,3 hPa 0,0 l/m 12,9 km/h (3 Bft) S-SW 202 0 min 0,0 UV-I 0 W/m 6,7 C 4,2 C 16,1 km/h (3 Bft)
21.05.2022 05:43 8,4 C 8,3 C 89 % 1022,4 hPa 0,0 l/m 14,5 km/h (3 Bft) S-SW 202 0 min 0,0 UV-I 0 W/m 6,7 C 3,4 C 19,3 km/h (3 Bft)
21.05.2022 05:44 8,4 C 8,3 C 89 % 1022,4 hPa 0,0 l/m 14,5 km/h (3 Bft) S 180 0 min 0,0 UV-I 0 W/m 6,7 C 3,4 C 19,3 km/h (3 Bft)
21.05.2022 05:45 8,4 C 8,3 C 89 % 1022,4 hPa 0,0 l/m 14,5 km/h (3 Bft) S-SW 202 0 min 0,0 UV-I 0 W/m 6,7 C 3,4 C 19,3 km/h (3 Bft)
21.05.2022 05:46 8,4 C 8,3 C 89 % 1022,2 hPa 0,0 l/m 11,3 km/h (2 Bft) S-SW 202 0 min 0,0 UV-I 0 W/m 6,7 C 5,1 C 19,3 km/h (3 Bft)
21.05.2022 05:47 8,4 C 8,3 C 89 % 1022,4 hPa 0,0 l/m 11,3 km/h (2 Bft) S-SW 202 0 min 0,0 UV-I 0 W/m 6,7 C 5,1 C 17,7 km/h (3 Bft)
21.05.2022 05:48 8,4 C 8,3 C 89 % 1022,3 hPa 0,0 l/m 14,5 km/h (3 Bft) S-SW 202 0 min 0,0 UV-I 5 W/m 6,7 C 3,4 C 17,7 km/h (3 Bft)
21.05.2022 05:49 8,4 C 7,8 C 89 % 1022,3 hPa 0,0 l/m 9,7 km/h (2 Bft) S-SW 202 0 min 0,0 UV-I 5 W/m 6,7 C 6,0 C 14,5 km/h (3 Bft)
21.05.2022 05:50 8,4 C 7,8 C 89 % 1022,3 hPa 0,0 l/m 9,7 km/h (2 Bft) SW 225 0 min 0,0 UV-I 5 W/m 6,7 C 6,0 C 16,1 km/h (3 Bft)
21.05.2022 05:51 8,4 C 7,8 C 89 % 1022,3 hPa 0,0 l/m 9,7 km/h (2 Bft) S-SW 202 0 min 0,0 UV-I 7 W/m 6,7 C 6,0 C 12,9 km/h (3 Bft)
21.05.2022 05:52 8,4 C 7,8 C 89 % 1022,3 hPa 0,0 l/m 11,3 km/h (2 Bft) S-SW 202 0 min 0,0 UV-I 7 W/m 6,7 C 5,1 C 17,7 km/h (3 Bft)
21.05.2022 05:53 8,4 C 7,8 C 88 % 1022,3 hPa 0,0 l/m 12,9 km/h (3 Bft) S-SW 202 0 min 0,0 UV-I 7 W/m 6,5 C 4,2 C 17,7 km/h (3 Bft)
21.05.2022 05:54 8,3 C 7,8 C 88 % 1022,4 hPa 0,0 l/m 9,7 km/h (2 Bft) S-SW 202 0 min 0,0 UV-I 9 W/m 6,4 C 5,9 C 17,7 km/h (3 Bft)
21.05.2022 05:55 8,3 C 7,8 C 88 % 1022,4 hPa 0,0 l/m 12,9 km/h (3 Bft) S-SW 202 0 min 0,0 UV-I 9 W/m 6,4 C 4,1 C 16,1 km/h (3 Bft)
21.05.2022 05:56 8,3 C 7,8 C 88 % 1022,3 hPa 0,0 l/m 8,0 km/h (2 Bft) S-SW 202 0 min 0,0 UV-I 9 W/m 6,4 C 7,1 C 11,3 km/h (2 Bft)
21.05.2022 05:57 8,3 C 7,8 C 88 % 1022,3 hPa 0,0 l/m 6,4 km/h (2 Bft) SW 225 0 min 0,0 UV-I 9 W/m 6,4 C 8,3 C 11,3 km/h (2 Bft)
21.05.2022 05:58 8,3 C 7,8 C 88 % 1022,3 hPa 0,0 l/m 11,3 km/h (2 Bft) S-SW 202 0 min 0,0 UV-I 9 W/m 6,4 C 4,9 C 14,5 km/h (3 Bft)
21.05.2022 05:59 8,3 C 7,2 C 88 % 1022,3 hPa 0,0 l/m 9,7 km/h (2 Bft) S 180 0 min 0,0 UV-I 11 W/m 6,4 C 5,9 C 12,9 km/h (3 Bft)
21.05.2022 06:00 8,3 C 7,2 C 88 % 1022,3 hPa 0,0 l/m 9,7 km/h (2 Bft) S-SW 202 0 min 0,0 UV-I 11 W/m 6,4 C 5,9 C 17,7 km/h (3 Bft)
21.05.2022 06:01 8,2 C 7,2 C 88 % 1022,3 hPa 0,0 l/m 9,7 km/h (2 Bft) S-SW 202 0 min 0,0 UV-I 12 W/m 6,3 C 5,8 C 12,9 km/h (3 Bft)
21.05.2022 06:02 8,2 C 7,2 C 88 % 1022,3 hPa 0,0 l/m 9,7 km/h (2 Bft) S-SW 202 0 min 0,0 UV-I 14 W/m 6,3 C 5,8 C 14,5 km/h (3 Bft)
21.05.2022 06:03 8,2 C 7,2 C 88 % 1022,2 hPa 0,0 l/m 9,7 km/h (2 Bft) S-SW 202 0 min 0,0 UV-I 16 W/m 6,3 C 5,8 C 11,3 km/h (2 Bft)
21.05.2022 06:04 8,1 C 7,2 C 88 % 1022,3 hPa 0,0 l/m 9,7 km/h (2 Bft) S 180 0 min 0,0 UV-I 21 W/m 6,2 C 5,7 C 11,3 km/h (2 Bft)
21.05.2022 06:05 8,1 C 7,2 C 88 % 1022,4 hPa 0,0 l/m 6,4 km/h (2 Bft) S-SW 202 0 min 0,0 UV-I 25 W/m 6,2 C 8,1 C 12,9 km/h (3 Bft)
21.05.2022 06:06 8,1 C 7,2 C 89 % 1022,4 hPa 0,0 l/m 9,7 km/h (2 Bft) S 180 0 min 0,0 UV-I 23 W/m 6,4 C 5,7 C 19,3 km/h (3 Bft)
21.05.2022 06:07 8,1 C 7,2 C 88 % 1022,3 hPa 0,0 l/m 11,3 km/h (2 Bft) S-SW 202 0 min 0,0 UV-I 23 W/m 6,2 C 4,7 C 24,1 km/h (4 Bft)
21.05.2022 06:08 8,1 C 7,2 C 89 % 1022,3 hPa 0,0 l/m 14,5 km/h (3 Bft) S 180 0 min 0,0 UV-I 23 W/m 6,4 C 3,1 C 19,3 km/h (3 Bft)
21.05.2022 06:09 8,1 C 7,2 C 89 % 1022,3 hPa 0,0 l/m 11,3 km/h (2 Bft) S-SW 202 0 min 0,0 UV-I 25 W/m 6,4 C 4,7 C 14,5 km/h (3 Bft)
21.05.2022 06:10 8,1 C 7,8 C 89 % 1022,3 hPa 0,0 l/m 9,7 km/h (2 Bft) S-SW 202 0 min 0,0 UV-I 25 W/m 6,4 C 5,7 C 14,5 km/h (3 Bft)
21.05.2022 06:11 8,1 C 7,8 C 89 % 1022,3 hPa 0,0 l/m 12,9 km/h (3 Bft) S 180 0 min 0,0 UV-I 25 W/m 6,4 C 3,8 C 16,1 km/h (3 Bft)
21.05.2022 06:12 8,1 C 7,8 C 89 % 1022,3 hPa 0,0 l/m 8,0 km/h (2 Bft) S-SW 202 0 min 0,0 UV-I 25 W/m 6,4 C 6,9 C 12,9 km/h (3 Bft)
21.05.2022 06:13 8,2 C 7,8 C 89 % 1022,4 hPa 0,0 l/m 8,0 km/h (2 Bft) S-SW 202 0 min 0,0 UV-I 26 W/m 6,5 C 7,0 C 12,9 km/h (3 Bft)
21.05.2022 06:14 8,2 C 7,8 C 89 % 1022,4 hPa 0,0 l/m 9,7 km/h (2 Bft) S-SW 202 0 min 0,0 UV-I 28 W/m 6,5 C 5,8 C 14,5 km/h (3 Bft)
21.05.2022 06:15 8,2 C 7,8 C 89 % 1022,4 hPa 0,0 l/m 11,3 km/h (2 Bft) S-SW 202 0 min 0,0 UV-I 26 W/m 6,5 C 4,8 C 17,7 km/h (3 Bft)
21.05.2022 06:16 8,2 C 7,8 C 89 % 1022,3 hPa 0,0 l/m 9,7 km/h (2 Bft) S-SW 202 0 min 0,0 UV-I 28 W/m 6,5 C 5,8 C 14,5 km/h (3 Bft)
21.05.2022 06:17 8,2 C 7,8 C 89 % 1022,4 hPa 0,0 l/m 11,3 km/h (2 Bft) S-SW 202 0 min 0,0 UV-I 28 W/m 6,5 C 4,8 C 14,5 km/h (3 Bft)
21.05.2022 06:18 8,2 C 7,8 C 89 % 1022,4 hPa 0,0 l/m 8,0 km/h (2 Bft) S-SW 202 0 min 0,0 UV-I 28 W/m 6,5 C 7,0 C 12,9 km/h (3 Bft)
21.05.2022 06:19 8,2 C 7,8 C 89 % 1022,3 hPa 0,0 l/m 11,3 km/h (2 Bft) S-SW 202 0 min 0,0 UV-I 27 W/m 6,5 C 4,8 C 17,7 km/h (3 Bft)
21.05.2022 06:20 8,2 C 7,8 C 89 % 1022,4 hPa 0,0 l/m 11,3 km/h (2 Bft) S-SW 202 0 min 0,0 UV-I 21 W/m 6,5 C 4,8 C 14,5 km/h (3 Bft)
21.05.2022 06:21 8,2 C 7,8 C 89 % 1022,4 hPa 0,0 l/m 9,7 km/h (2 Bft) S 180 0 min 0,0 UV-I 23 W/m 6,5 C 5,8 C 16,1 km/h (3 Bft)
21.05.2022 06:22 8,3 C 7,8 C 89 % 1022,4 hPa 0,0 l/m 11,3 km/h (2 Bft) S 180 0 min 0,0 UV-I 21 W/m 6,6 C 4,9 C 14,5 km/h (3 Bft)
21.05.2022 06:23 8,3 C 7,8 C 89 % 1022,5 hPa 0,0 l/m 11,3 km/h (2 Bft) S-SW 202 0 min 0,0 UV-I 21 W/m 6,6 C 4,9 C 14,5 km/h (3 Bft)
21.05.2022 06:24 8,3 C 7,8 C 89 % 1022,4 hPa 0,0 l/m 12,9 km/h (3 Bft) S 180 0 min 0,0 UV-I 25 W/m 6,6 C 4,1 C 19,3 km/h (3 Bft)
21.05.2022 06:25 8,3 C 7,8 C 89 % 1022,5 hPa 0,0 l/m 11,3 km/h (2 Bft) S-SW 202 0 min 0,0 UV-I 26 W/m 6,6 C 4,9 C 16,1 km/h (3 Bft)
21.05.2022 06:26 8,3 C 8,3 C 89 % 1022,5 hPa 0,0 l/m 14,5 km/h (3 Bft) S-SW 202 0 min 0,0 UV-I 23 W/m 6,6 C 3,3 C 20,9 km/h (4 Bft)
21.05.2022 06:27 8,3 C 8,3 C 89 % 1022,6 hPa 0,0 l/m 11,3 km/h (2 Bft) S-SW 202 0 min 0,0 UV-I 23 W/m 6,6 C 4,9 C 16,1 km/h (3 Bft)
21.05.2022 06:28 8,3 C 8,3 C 89 % 1022,5 hPa 0,0 l/m 11,3 km/h (2 Bft) S 180 0 min 0,0 UV-I 23 W/m 6,6 C 4,9 C 14,5 km/h (3 Bft)
21.05.2022 06:29 8,3 C 8,3 C 89 % 1022,5 hPa 0,0 l/m 9,7 km/h (2 Bft) S-SW 202 0 min 0,0 UV-I 23 W/m 6,6 C 5,9 C 14,5 km/h (3 Bft)
21.05.2022 06:30 8,3 C 8,3 C 89 % 1022,6 hPa 0,0 l/m 11,3 km/h (2 Bft) S-SW 202 0 min 0,0 UV-I 23 W/m 6,6 C 4,9 C 14,5 km/h (3 Bft)
21.05.2022 06:31 8,4 C 8,3 C 89 % 1022,6 hPa 0,0 l/m 8,0 km/h (2 Bft) S-SW 202 0 min 0,0 UV-I 23 W/m 6,7 C 7,2 C 11,3 km/h (2 Bft)
21.05.2022 06:32 8,4 C 8,3 C 89 % 1022,6 hPa 0,0 l/m 8,0 km/h (2 Bft) S-SW 202 0 min 0,0 UV-I 25 W/m 6,7 C 7,2 C 11,3 km/h (2 Bft)
21.05.2022 06:33 8,4 C 8,3 C 89 % 1022,5 hPa 0,0 l/m 8,0 km/h (2 Bft) S-SW 202 0 min 0,0 UV-I 25 W/m 6,7 C 7,2 C 16,1 km/h (3 Bft)
21.05.2022 06:34 8,4 C 8,3 C 89 % 1022,6 hPa 0,0 l/m 11,3 km/h (2 Bft) S 180 0 min 0,0 UV-I 28 W/m 6,7 C 5,1 C 14,5 km/h (3 Bft)
21.05.2022 06:35 8,4 C 8,3 C 89 % 1022,4 hPa 0,0 l/m 8,0 km/h (2 Bft) S-SW 202 0 min 0,0 UV-I 37 W/m 6,7 C 7,2 C 12,9 km/h (3 Bft)
21.05.2022 06:36 8,4 C 8,3 C 89 % 1022,5 hPa 0,0 l/m 8,0 km/h (2 Bft) S-SW 202 0 min 0,0 UV-I 48 W/m 6,7 C 7,2 C 11,3 km/h (2 Bft)
21.05.2022 06:37 8,4 C 8,3 C 89 % 1022,4 hPa 0,0 l/m 8,0 km/h (2 Bft) S-SW 202 0 min 0,0 UV-I 46 W/m 6,7 C 7,2 C 11,3 km/h (2 Bft)
21.05.2022 06:38 8,4 C 8,3 C 89 % 1022,5 hPa 0,0 l/m 8,0 km/h (2 Bft) S 180 0 min 0,0 UV-I 35 W/m 6,7 C 7,2 C 12,9 km/h (3 Bft)
21.05.2022 06:39 8,4 C 8,3 C 89 % 1022,5 hPa 0,0 l/m 9,7 km/h (2 Bft) S-SW 202 0 min 0,0 UV-I 33 W/m 6,7 C 6,0 C 14,5 km/h (3 Bft)
21.05.2022 06:40 8,4 C 8,3 C 89 % 1022,4 hPa 0,0 l/m 8,0 km/h (2 Bft) S 180 0 min 0,0 UV-I 33 W/m 6,7 C 7,2 C 11,3 km/h (2 Bft)
21.05.2022 06:41 8,4 C 8,3 C 89 % 1022,4 hPa 0,0 l/m 12,9 km/h (3 Bft) S-SW 202 0 min 0,0 UV-I 35 W/m 6,7 C 4,2 C 19,3 km/h (3 Bft)
21.05.2022 06:42 8,4 C 8,3 C 89 % 1022,6 hPa 0,0 l/m 12,9 km/h (3 Bft) S-SW 202 0 min 0,0 UV-I 34 W/m 6,7 C 4,2 C 17,7 km/h (3 Bft)
21.05.2022 06:43 8,4 C 8,3 C 89 % 1022,4 hPa 0,0 l/m 12,9 km/h (3 Bft) S-SW 202 0 min 0,0 UV-I 32 W/m 6,7 C 4,2 C 27,4 km/h (4 Bft)
21.05.2022 06:44 8,5 C 8,3 C 89 % 1022,4 hPa 0,0 l/m 12,9 km/h (3 Bft) S-SW 202 0 min 0,0 UV-I 35 W/m 6,8 C 4,3 C 16,1 km/h (3 Bft)
21.05.2022 06:45 8,5 C 8,3 C 89 % 1022,4 hPa 0,0 l/m 14,5 km/h (3 Bft) S-SW 202 0 min 0,0 UV-I 40 W/m 6,8 C 3,5 C 17,7 km/h (3 Bft)
21.05.2022 06:46 8,5 C 8,3 C 89 % 1022,4 hPa 0,0 l/m 12,9 km/h (3 Bft) S-SW 202 0 min 0,0 UV-I 42 W/m 6,8 C 4,3 C 17,7 km/h (3 Bft)
21.05.2022 06:47 8,6 C 8,3 C 89 % 1022,5 hPa 0,0 l/m 9,7 km/h (2 Bft) S-SW 202 0 min 0,0 UV-I 39 W/m 6,9 C 6,2 C 11,3 km/h (2 Bft)
21.05.2022 06:48 8,6 C 8,3 C 89 % 1022,6 hPa 0,0 l/m 8,0 km/h (2 Bft) S-SW 202 0 min 0,0 UV-I 37 W/m 6,9 C 7,4 C 11,3 km/h (2 Bft)
21.05.2022 06:49 8,6 C 8,3 C 89 % 1022,6 hPa 0,0 l/m 12,9 km/h (3 Bft) S-SW 202 0 min 0,0 UV-I 42 W/m 6,9 C 4,4 C 20,9 km/h (4 Bft)
21.05.2022 06:50 8,6 C 8,3 C 89 % 1022,5 hPa 0,0 l/m 11,3 km/h (2 Bft) S-SW 202 0 min 0,0 UV-I 42 W/m 6,9 C 5,3 C 17,7 km/h (3 Bft)
21.05.2022 06:51 8,6 C 8,3 C 89 % 1022,5 hPa 0,0 l/m 11,3 km/h (2 Bft) S-SW 202 0 min 0,0 UV-I 49 W/m 6,9 C 5,3 C 17,7 km/h (3 Bft)
21.05.2022 06:52 8,6 C 8,3 C 89 % 1022,6 hPa 0,0 l/m 12,9 km/h (3 Bft) SW 225 0 min 0,0 UV-I 42 W/m 6,9 C 4,4 C 16,1 km/h (3 Bft)
21.05.2022 06:53 8,6 C 8,3 C 89 % 1022,6 hPa 0,0 l/m 14,5 km/h (3 Bft) S 180 0 min 0,0 UV-I 39 W/m 6,9 C 3,7 C 20,9 km/h (4 Bft)
21.05.2022 06:54 8,6 C 8,3 C 89 % 1022,6 hPa 0,0 l/m 14,5 km/h (3 Bft) S-SW 202 0 min 0,0 UV-I 36 W/m 6,9 C 3,7 C 17,7 km/h (3 Bft)
21.05.2022 06:55 8,6 C 8,3 C 88 % 1022,6 hPa 0,0 l/m 16,1 km/h (3 Bft) S-SW 202 0 min 0,0 UV-I 39 W/m 6,7 C 3,0 C 19,3 km/h (3 Bft)
21.05.2022 06:56 8,7 C 8,3 C 88 % 1022,6 hPa 0,0 l/m 12,9 km/h (3 Bft) S-SW 202 0 min 0,0 UV-I 46 W/m 6,8 C 4,6 C 17,7 km/h (3 Bft)
21.05.2022 06:57 8,7 C 8,3 C 88 % 1022,6 hPa 0,0 l/m 12,9 km/h (3 Bft) S-SW 202 0 min 0,0 UV-I 49 W/m 6,8 C 4,6 C 16,1 km/h (3 Bft)
21.05.2022 06:58 8,7 C 8,3 C 88 % 1022,6 hPa 0,0 l/m 16,1 km/h (3 Bft) S-SW 202 0 min 0,0 UV-I 49 W/m 6,8 C 3,1 C 20,9 km/h (4 Bft)
21.05.2022 06:59 8,7 C 8,3 C 88 % 1022,7 hPa 0,0 l/m 17,7 km/h (3 Bft) S-SW 202 0 min 0,0 UV-I 39 W/m 6,8 C 2,4 C 22,5 km/h (4 Bft)
21.05.2022 07:00 8,7 C 8,3 C 88 % 1022,6 hPa 0,0 l/m 11,3 km/h (2 Bft) S-SW 202 0 min 0,0 UV-I 35 W/m 6,8 C 5,4 C 16,1 km/h (3 Bft)
21.05.2022 07:01 8,7 C 8,3 C 88 % 1022,7 hPa 0,0 l/m 8,0 km/h (2 Bft) S 180 0 min 0,0 UV-I 25 W/m 6,8 C 7,5 C 11,3 km/h (2 Bft)
21.05.2022 07:02 8,7 C 8,3 C 88 % 1022,7 hPa 0,0 l/m 9,7 km/h (2 Bft) S-SW 202 0 min 0,0 UV-I 21 W/m 6,8 C 6,3 C 14,5 km/h (3 Bft)
21.05.2022 07:03 8,7 C 8,3 C 88 % 1022,7 hPa 0,0 l/m 11,3 km/h (2 Bft) SW 225 0 min 0,0 UV-I 25 W/m 6,8 C 5,4 C 14,5 km/h (3 Bft)
21.05.2022 07:04 8,7 C 8,3 C 88 % 1022,8 hPa 0,0 l/m 11,3 km/h (2 Bft) S-SW 202 0 min 0,0 UV-I 30 W/m 6,8 C 5,4 C 16,1 km/h (3 Bft)
21.05.2022 07:05 8,7 C 8,3 C 89 % 1022,8 hPa 0,0 l/m 9,7 km/h (2 Bft) S-SW 202 0 min 0,0 UV-I 32 W/m 7,0 C 6,3 C 16,1 km/h (3 Bft)
21.05.2022 07:06 8,7 C 8,3 C 89 % 1022,8 hPa 0,0 l/m 14,5 km/h (3 Bft) S-SW 202 0 min 0,0 UV-I 26 W/m 7,0 C 3,8 C 17,7 km/h (3 Bft)
21.05.2022 07:07 8,7 C 8,3 C 89 % 1022,8 hPa 0,0 l/m 12,9 km/h (3 Bft) S-SW 202 0 min 0,0 UV-I 30 W/m 7,0 C 4,6 C 16,1 km/h (3 Bft)
21.05.2022 07:08 8,7 C 8,3 C 88 % 1022,8 hPa 0,0 l/m 12,9 km/h (3 Bft) S-SW 202 0 min 0,0 UV-I 35 W/m 6,8 C 4,6 C 17,7 km/h (3 Bft)
21.05.2022 07:09 8,7 C 8,3 C 88 % 1022,8 hPa 0,0 l/m 9,7 km/h (2 Bft) S-SW 202 0 min 0,0 UV-I 40 W/m 6,8 C 6,3 C 16,1 km/h (3 Bft)
21.05.2022 07:10 8,7 C 8,3 C 88 % 1022,8 hPa 0,0 l/m 12,9 km/h (3 Bft) S-SW 202 0 min 0,0 UV-I 46 W/m 6,8 C 4,6 C 17,7 km/h (3 Bft)
21.05.2022 07:11 8,7 C 8,9 C 88 % 1022,8 hPa 0,0 l/m 14,5 km/h (3 Bft) S-SW 202 0 min 0,0 UV-I 51 W/m 6,8 C 3,8 C 19,3 km/h (3 Bft)
21.05.2022 07:12 8,7 C 8,9 C 88 % 1022,8 hPa 0,0 l/m 12,9 km/h (3 Bft) S-SW 202 0 min 0,0 UV-I 50 W/m 6,8 C 4,6 C 16,1 km/h (3 Bft)
21.05.2022 07:13 8,7 C 8,9 C 88 % 1022,8 hPa 0,0 l/m 12,9 km/h (3 Bft) S-SW 202 0 min 0,0 UV-I 44 W/m 6,8 C 4,6 C 16,1 km/h (3 Bft)
21.05.2022 07:14 8,7 C 8,9 C 88 % 1022,9 hPa 0,0 l/m 14,5 km/h (3 Bft) S-SW 202 0 min 0,0 UV-I 40 W/m 6,8 C 3,8 C 20,9 km/h (4 Bft)
21.05.2022 07:15 8,7 C 8,9 C 88 % 1022,8 hPa 0,0 l/m 11,3 km/h (2 Bft) SW 225 0 min 0,0 UV-I 40 W/m 6,8 C 5,4 C 16,1 km/h (3 Bft)
21.05.2022 07:16 8,7 C 8,9 C 88 % 1022,8 hPa 0,0 l/m 11,3 km/h (2 Bft) S-SW 202 0 min 0,0 UV-I 58 W/m 6,8 C 5,4 C 14,5 km/h (3 Bft)
21.05.2022 07:17 8,7 C 8,9 C 88 % 1022,8 hPa 0,0 l/m 16,1 km/h (3 Bft) SW 225 0 min 0,0 UV-I 85 W/m 6,8 C 3,1 C 19,3 km/h (3 Bft)
21.05.2022 07:18 8,7 C 8,9 C 89 % 1022,9 hPa 0,0 l/m 12,9 km/h (3 Bft) SW 225 0 min 0,0 UV-I 62 W/m 7,0 C 4,6 C 19,3 km/h (3 Bft)
21.05.2022 07:19 8,7 C 8,9 C 88 % 1022,9 hPa 0,0 l/m 12,9 km/h (3 Bft) S-SW 202 0 min 0,0 UV-I 74 W/m 6,8 C 4,6 C 16,1 km/h (3 Bft)
21.05.2022 07:20 8,7 C 8,9 C 89 % 1022,8 hPa 0,0 l/m 11,3 km/h (2 Bft) S-SW 202 0 min 0,0 UV-I 76 W/m 7,0 C 5,4 C 16,1 km/h (3 Bft)
21.05.2022 07:21 8,7 C 8,9 C 89 % 1022,8 hPa 0,0 l/m 14,5 km/h (3 Bft) S-SW 202 0 min 0,0 UV-I 62 W/m 7,0 C 3,8 C 17,7 km/h (3 Bft)
21.05.2022 07:22 8,7 C 8,9 C 89 % 1022,7 hPa 0,0 l/m 14,5 km/h (3 Bft) S-SW 202 0 min 0,0 UV-I 49 W/m 7,0 C 3,8 C 17,7 km/h (3 Bft)
21.05.2022 07:23 8,7 C 8,9 C 89 % 1022,8 hPa 0,0 l/m 11,3 km/h (2 Bft) S-SW 202 0 min 0,0 UV-I 52 W/m 7,0 C 5,4 C 16,1 km/h (3 Bft)
21.05.2022 07:24 8,7 C 8,9 C 89 % 1022,7 hPa 0,0 l/m 12,9 km/h (3 Bft) S-SW 202 0 min 0,0 UV-I 60 W/m 7,0 C 4,6 C 17,7 km/h (3 Bft)
21.05.2022 07:25 8,8 C 8,9 C 89 % 1022,8 hPa 0,0 l/m 12,9 km/h (3 Bft) SW 225 0 min 0,0 UV-I 67 W/m 7,1 C 4,7 C 16,1 km/h (3 Bft)
21.05.2022 07:26 8,8 C 8,9 C 89 % 1022,8 hPa 0,0 l/m 12,9 km/h (3 Bft) S-SW 202 0 min 0,0 UV-I 53 W/m 7,1 C 4,7 C 17,7 km/h (3 Bft)
21.05.2022 07:27 8,8 C 8,9 C 89 % 1022,8 hPa 0,0 l/m 11,3 km/h (2 Bft) S-SW 202 0 min 0,0 UV-I 49 W/m 7,1 C 5,5 C 19,3 km/h (3 Bft)
21.05.2022 07:28 8,8 C 8,9 C 89 % 1022,7 hPa 0,0 l/m 11,3 km/h (2 Bft) S-SW 202 0 min 0,0 UV-I 53 W/m 7,1 C 5,5 C 14,5 km/h (3 Bft)
21.05.2022 07:29 8,8 C 8,9 C 89 % 1022,7 hPa 0,0 l/m 12,9 km/h (3 Bft) S-SW 202 0 min 0,0 UV-I 64 W/m 7,1 C 4,7 C 16,1 km/h (3 Bft)
21.05.2022 07:30 8,8 C 8,9 C 89 % 1022,8 hPa 0,0 l/m 8,0 km/h (2 Bft) S-SW 202 0 min 0,0 UV-I 74 W/m 7,1 C 7,6 C 14,5 km/h (3 Bft)
21.05.2022 07:31 8,8 C 8,9 C 89 % 1022,8 hPa 0,0 l/m 9,7 km/h (2 Bft) S-SW 202 0 min 0,0 UV-I 79 W/m 7,1 C 6,5 C 16,1 km/h (3 Bft)
21.05.2022 07:32 8,8 C 8,9 C 89 % 1022,8 hPa 0,0 l/m 11,3 km/h (2 Bft) S-SW 202 0 min 0,0 UV-I 70 W/m 7,1 C 5,5 C 16,1 km/h (3 Bft)
21.05.2022 07:33 8,8 C 8,9 C 89 % 1022,9 hPa 0,0 l/m 11,3 km/h (2 Bft) S-SW 202 0 min 0,0 UV-I 54 W/m 7,1 C 5,5 C 12,9 km/h (3 Bft)
21.05.2022 07:34 8,8 C 8,9 C 89 % 1022,8 hPa 0,0 l/m 12,9 km/h (3 Bft) SW 225 0 min 0,0 UV-I 47 W/m 7,1 C 4,7 C 17,7 km/h (3 Bft)
21.05.2022 07:35 8,9 C 8,9 C 89 % 1022,8 hPa 0,0 l/m 8,0 km/h (2 Bft) SW 225 0 min 0,0 UV-I 62 W/m 7,2 C 7,7 C 14,5 km/h (3 Bft)
21.05.2022 07:36 8,9 C 8,9 C 89 % 1022,8 hPa 0,0 l/m 9,7 km/h (2 Bft) S-SW 202 0 min 0,0 UV-I 69 W/m 7,2 C 6,6 C 14,5 km/h (3 Bft)
21.05.2022 07:37 8,9 C 8,9 C 89 % 1022,8 hPa 0,0 l/m 6,4 km/h (2 Bft) SW 225 0 min 0,0 UV-I 62 W/m 7,2 C 8,9 C 9,7 km/h (2 Bft)
21.05.2022 07:38 8,9 C 8,9 C 89 % 1022,8 hPa 0,0 l/m 8,0 km/h (2 Bft) S-SW 202 0 min 0,0 UV-I 58 W/m 7,2 C 7,7 C 11,3 km/h (2 Bft)
21.05.2022 07:39 8,9 C 8,9 C 89 % 1022,9 hPa 0,0 l/m 9,7 km/h (2 Bft) S-SW 202 0 min 0,0 UV-I 56 W/m 7,2 C 6,6 C 12,9 km/h (3 Bft)
21.05.2022 07:40 8,9 C 8,9 C 89 % 1022,8 hPa 0,0 l/m 9,7 km/h (2 Bft) S-SW 202 0 min 0,0 UV-I 67 W/m 7,2 C 6,6 C 12,9 km/h (3 Bft)
21.05.2022 07:41 8,9 C 9,4 C 89 % 1022,9 hPa 0,0 l/m 11,3 km/h (2 Bft) S-SW 202 0 min 0,0 UV-I 64 W/m 7,2 C 5,6 C 17,7 km/h (3 Bft)
21.05.2022 07:42 8,9 C 9,4 C 89 % 1022,9 hPa 0,0 l/m 9,7 km/h (2 Bft) S-SW 202 0 min 0,0 UV-I 58 W/m 7,2 C 6,6 C 14,5 km/h (3 Bft)
21.05.2022 07:43 9,0 C 9,4 C 89 % 1022,9 hPa 0,0 l/m 9,7 km/h (2 Bft) S-SW 202 0 min 0,0 UV-I 67 W/m 7,3 C 6,7 C 12,9 km/h (3 Bft)
21.05.2022 07:44 9,0 C 9,4 C 89 % 1022,9 hPa 0,0 l/m 8,0 km/h (2 Bft) S-SW 202 0 min 0,0 UV-I 67 W/m 7,3 C 7,8 C 12,9 km/h (3 Bft)
21.05.2022 07:45 9,0 C 9,4 C 89 % 1022,9 hPa 0,0 l/m 11,3 km/h (2 Bft) S-SW 202 0 min 0,0 UV-I 56 W/m 7,3 C 5,7 C 17,7 km/h (3 Bft)
21.05.2022 07:46 9,1 C 9,4 C 89 % 1023,0 hPa 0,0 l/m 9,7 km/h (2 Bft) S-SW 202 0 min 0,0 UV-I 56 W/m 7,4 C 6,8 C 12,9 km/h (3 Bft)
21.05.2022 07:47 9,1 C 9,4 C 89 % 1023,0 hPa 0,0 l/m 9,7 km/h (2 Bft) S-SW 202 0 min 0,0 UV-I 65 W/m 7,4 C 6,8 C 12,9 km/h (3 Bft)
21.05.2022 07:48 9,1 C 9,4 C 89 % 1022,9 hPa 0,0 l/m 9,7 km/h (2 Bft) S-SW 202 0 min 0,0 UV-I 84 W/m 7,4 C 6,8 C 12,9 km/h (3 Bft)
21.05.2022 07:49 9,1 C 9,4 C 89 % 1022,9 hPa 0,0 l/m 11,3 km/h (2 Bft) S-SW 202 0 min 0,0 UV-I 77 W/m 7,4 C 5,9 C 17,7 km/h (3 Bft)
21.05.2022 07:50 9,1 C 9,4 C 89 % 1022,9 hPa 0,0 l/m 9,7 km/h (2 Bft) S-SW 202 0 min 0,5 UV-I 88 W/m 7,4 C 6,8 C 12,9 km/h (3 Bft)
21.05.2022 07:51 9,1 C 9,4 C 89 % 1022,9 hPa 0,0 l/m 9,7 km/h (2 Bft) SW 225 0 min 0,5 UV-I 91 W/m 7,4 C 6,8 C 12,9 km/h (3 Bft)
21.05.2022 07:52 9,2 C 9,4 C 89 % 1022,9 hPa 0,0 l/m 6,4 km/h (2 Bft) SW 225 0 min 0,5 UV-I 98 W/m 7,5 C 9,2 C 11,3 km/h (2 Bft)
21.05.2022 07:53 9,2 C 9,4 C 89 % 1022,9 hPa 0,0 l/m 9,7 km/h (2 Bft) S-SW 202 0 min 0,5 UV-I 99 W/m 7,5 C 6,9 C 12,9 km/h (3 Bft)
21.05.2022 07:54 9,2 C 9,4 C 89 % 1022,9 hPa 0,0 l/m 6,4 km/h (2 Bft) S-SW 202 0 min 0,5 UV-I 98 W/m 7,5 C 9,2 C 9,7 km/h (2 Bft)
21.05.2022 07:55 9,2 C 9,4 C 89 % 1022,9 hPa 0,0 l/m 8,0 km/h (2 Bft) S 180 0 min 0,0 UV-I 88 W/m 7,5 C 8,0 C 12,9 km/h (3 Bft)
21.05.2022 07:56 9,2 C 9,4 C 89 % 1023,0 hPa 0,0 l/m 6,4 km/h (2 Bft) S-SW 202 0 min 0,5 UV-I 90 W/m 7,5 C 9,2 C 12,9 km/h (3 Bft)
21.05.2022 07:57 9,3 C 9,4 C 89 % 1022,9 hPa 0,0 l/m 4,8 km/h (1 Bft) S-SW 202 0 min 0,0 UV-I 77 W/m 7,6 C 9,3 C 8,0 km/h (2 Bft)
21.05.2022 07:58 9,3 C 10,0 C 89 % 1023,0 hPa 0,0 l/m 8,0 km/h (2 Bft) S-SW 202 0 min 0,6 UV-I 102 W/m 7,6 C 8,1 C 11,3 km/h (2 Bft)
21.05.2022 07:59 9,3 C 10,0 C 88 % 1023,0 hPa 0,0 l/m 4,8 km/h (1 Bft) SW 225 0 min 0,6 UV-I 107 W/m 7,4 C 9,3 C 9,7 km/h (2 Bft)
21.05.2022 08:00 9,4 C 10,0 C 88 % 1022,9 hPa 0,0 l/m 6,4 km/h (2 Bft) S-SW 202 0 min 0,5 UV-I 83 W/m 7,5 C 9,4 C 9,7 km/h (2 Bft)
21.05.2022 08:01 9,4 C 10,0 C 89 % 1023,0 hPa 0,0 l/m 8,0 km/h (2 Bft) S-SW 202 0 min 0,5 UV-I 79 W/m 7,7 C 8,2 C 11,3 km/h (2 Bft)
21.05.2022 08:02 9,4 C 10,0 C 88 % 1022,9 hPa 0,0 l/m 11,3 km/h (2 Bft) S-SW 202 0 min 0,6 UV-I 98 W/m 7,5 C 6,2 C 16,1 km/h (3 Bft)
21.05.2022 08:03 9,4 C 10,0 C 88 % 1022,9 hPa 0,0 l/m 6,4 km/h (2 Bft) S 180 0 min 0,5 UV-I 93 W/m 7,5 C 9,4 C 9,7 km/h (2 Bft)
21.05.2022 08:04 9,4 C 10,0 C 88 % 1022,9 hPa 0,0 l/m 6,4 km/h (2 Bft) S-SW 202 0 min 0,6 UV-I 118 W/m 7,5 C 9,4 C 11,3 km/h (2 Bft)
21.05.2022 08:05 9,5 C 10,0 C 88 % 1022,9 hPa 0,0 l/m 8,0 km/h (2 Bft) S 180 0 min 0,6 UV-I 134 W/m 7,6 C 8,3 C 9,7 km/h (2 Bft)
21.05.2022 08:06 9,5 C 10,0 C 88 % 1022,9 hPa 0,0 l/m 8,0 km/h (2 Bft) S-SW 202 0 min 0,5 UV-I 114 W/m 7,6 C 8,3 C 12,9 km/h (3 Bft)
21.05.2022 08:07 9,6 C 10,0 C 88 % 1022,9 hPa 0,0 l/m 6,4 km/h (2 Bft) S-SW 202 0 min 0,0 UV-I 95 W/m 7,7 C 9,6 C 9,7 km/h (2 Bft)
21.05.2022 08:08 9,6 C 10,0 C 88 % 1022,9 hPa 0,0 l/m 8,0 km/h (2 Bft) S-SW 202 0 min 0,0 UV-I 67 W/m 7,7 C 8,4 C 12,9 km/h (3 Bft)
21.05.2022 08:09 9,6 C 10,0 C 88 % 1022,9 hPa 0,0 l/m 8,0 km/h (2 Bft) S-SW 202 0 min 0,0 UV-I 63 W/m 7,7 C 8,4 C 12,9 km/h (3 Bft)
21.05.2022 08:10 9,6 C 10,0 C 88 % 1023,0 hPa 0,0 l/m 3,2 km/h (1 Bft) S-SW 202 0 min 0,5 UV-I 80 W/m 7,7 C 9,6 C 8,0 km/h (2 Bft)
21.05.2022 08:11 9,6 C 10,0 C 88 % 1023,0 hPa 0,0 l/m 9,7 km/h (2 Bft) S-SW 202 0 min 0,6 UV-I 84 W/m 7,7 C 7,3 C 14,5 km/h (3 Bft)
21.05.2022 08:12 9,6 C 10,0 C 88 % 1023,0 hPa 0,0 l/m 9,7 km/h (2 Bft) SW 225 0 min 0,7 UV-I 102 W/m 7,7 C 7,3 C 14,5 km/h (3 Bft)
21.05.2022 08:13 9,7 C 10,0 C 88 % 1023,1 hPa 0,0 l/m 8,0 km/h (2 Bft) S 180 0 min 0,8 UV-I 151 W/m 7,8 C 8,5 C 12,9 km/h (3 Bft)
21.05.2022 08:14 9,7 C 10,0 C 88 % 1023,1 hPa 0,0 l/m 4,8 km/h (1 Bft) S-SW 202 0 min 0,7 UV-I 163 W/m 7,8 C 9,7 C 8,0 km/h (2 Bft)
21.05.2022 08:15 9,7 C 10,6 C 88 % 1023,1 hPa 0,0 l/m 4,8 km/h (1 Bft) W-SW 247 0 min 0,6 UV-I 174 W/m 7,8 C 9,7 C 8,0 km/h (2 Bft)
21.05.2022 08:16 9,7 C 10,6 C 88 % 1023,1 hPa 0,0 l/m 6,4 km/h (2 Bft) S 180 0 min 0,5 UV-I 145 W/m 7,8 C 9,7 C 11,3 km/h (2 Bft)
21.05.2022 08:17 9,8 C 10,6 C 88 % 1023,1 hPa 0,0 l/m 8,0 km/h (2 Bft) SW 225 0 min 0,6 UV-I 111 W/m 7,9 C 8,6 C 14,5 km/h (3 Bft)
21.05.2022 08:18 9,8 C 10,6 C 88 % 1023,1 hPa 0,0 l/m 11,3 km/h (2 Bft) S-SW 202 0 min 0,7 UV-I 137 W/m 7,9 C 6,6 C 20,9 km/h (4 Bft)
21.05.2022 08:19 9,8 C 10,6 C 88 % 1023,2 hPa 0,0 l/m 9,7 km/h (2 Bft) SW 225 0 min 0,6 UV-I 135 W/m 7,9 C 7,6 C 12,9 km/h (3 Bft)
21.05.2022 08:20 9,8 C 10,6 C 88 % 1023,3 hPa 0,0 l/m 8,0 km/h (2 Bft) SW 225 0 min 0,6 UV-I 118 W/m 7,9 C 8,6 C 14,5 km/h (3 Bft)
21.05.2022 08:21 9,8 C 10,6 C 88 % 1023,2 hPa 0,0 l/m 6,4 km/h (2 Bft) W-SW 247 0 min 0,6 UV-I 113 W/m 7,9 C 9,8 C 12,9 km/h (3 Bft)
21.05.2022 08:22 9,8 C 10,6 C 87 % 1023,2 hPa 0,0 l/m 8,0 km/h (2 Bft) W-SW 247 0 min 0,7 UV-I 125 W/m 7,7 C 8,6 C 12,9 km/h (3 Bft)
21.05.2022 08:23 9,8 C 10,6 C 87 % 1023,2 hPa 0,0 l/m 3,2 km/h (1 Bft) W 270 0 min 0,9 UV-I 163 W/m 7,7 C 9,8 C 6,4 km/h (2 Bft)
21.05.2022 08:24 9,8 C 10,6 C 87 % 1023,2 hPa 0,0 l/m 8,0 km/h (2 Bft) W-SW 247 0 min 0,9 UV-I 169 W/m 7,7 C 8,6 C 16,1 km/h (3 Bft)
21.05.2022 08:25 9,8 C 10,6 C 87 % 1023,3 hPa 0,0 l/m 11,3 km/h (2 Bft) S-SW 202 0 min 0,9 UV-I 158 W/m 7,7 C 6,6 C 17,7 km/h (3 Bft)
21.05.2022 08:26 9,8 C 10,6 C 87 % 1023,2 hPa 0,0 l/m 11,3 km/h (2 Bft) S-SW 202 0 min 0,9 UV-I 148 W/m 7,7 C 6,6 C 14,5 km/h (3 Bft)
21.05.2022 08:27 9,9 C 10,6 C 87 % 1023,2 hPa 0,0 l/m 6,4 km/h (2 Bft) SW 225 0 min 0,9 UV-I 151 W/m 7,8 C 9,9 C 9,7 km/h (2 Bft)
21.05.2022 08:28 9,9 C 11,1 C 87 % 1023,2 hPa 0,0 l/m 6,4 km/h (2 Bft) SW 225 0 min 0,9 UV-I 168 W/m 7,8 C 9,9 C 9,7 km/h (2 Bft)
21.05.2022 08:29 9,9 C 11,1 C 87 % 1023,2 hPa 0,0 l/m 11,3 km/h (2 Bft) S-SW 202 0 min 1,1 UV-I 193 W/m 7,8 C 6,8 C 17,7 km/h (3 Bft)
21.05.2022 08:30 10,0 C 11,1 C 87 % 1023,1 hPa 0,0 l/m 11,3 km/h (2 Bft) S-SW 202 0 min 1,2 UV-I 244 W/m 7,9 C 6,9 C 16,1 km/h (3 Bft)
21.05.2022 08:31 10,0 C 11,1 C 87 % 1023,2 hPa 0,0 l/m 8,0 km/h (2 Bft) SW 225 0 min 1,4 UV-I 244 W/m 7,9 C 8,9 C 14,5 km/h (3 Bft)
21.05.2022 08:32 10,1 C 11,1 C 87 % 1023,1 hPa 0,0 l/m 6,4 km/h (2 Bft) S 180 0 min 1,1 UV-I 244 W/m 8,0 C 10,1 C 9,7 km/h (2 Bft)
21.05.2022 08:33 10,1 C 11,7 C 87 % 1023,1 hPa 0,0 l/m 4,8 km/h (1 Bft) SW 225 0 min 1,3 UV-I 236 W/m 8,0 C 10,1 C 8,0 km/h (2 Bft)
21.05.2022 08:34 10,2 C 11,7 C 87 % 1023,1 hPa 0,0 l/m 6,4 km/h (2 Bft) S-SW 202 0 min 1,3 UV-I 241 W/m 8,1 C 10,2 C 11,3 km/h (2 Bft)
21.05.2022 08:35 10,2 C 11,7 C 87 % 1023,1 hPa 0,0 l/m 9,7 km/h (2 Bft) S-SW 202 0 min 1,3 UV-I 241 W/m 8,1 C 8,0 C 11,3 km/h (2 Bft)
21.05.2022 08:36 10,2 C 11,7 C 87 % 1023,1 hPa 0,0 l/m 8,0 km/h (2 Bft) S-SW 202 0 min 1,1 UV-I 227 W/m 8,1 C 9,1 C 11,3 km/h (2 Bft)
21.05.2022 08:40 10,2 C 11,7 C 86 % 1023,3 hPa 0,0 l/m 9,5 km/h (2 Bft) SW 222 0 min 1,0 UV-I 200 W/m 8,0 C 8,1 C 12,9 km/h (3 Bft)
21.05.2022 08:42 10,2 C 11,7 C 86 % 1023,3 hPa 0,0 l/m 8,5 km/h (2 Bft) S 184 0 min 0,8 UV-I 181 W/m 8,0 C 8,7 C 11,3 km/h (2 Bft)
21.05.2022 08:44 10,2 C 11,7 C 86 % 1023,4 hPa 0,0 l/m 9,5 km/h (2 Bft) S-SW 202 0 min 0,7 UV-I 141 W/m 8,0 C 8,1 C 14,5 km/h (3 Bft)
21.05.2022 08:46 10,2 C 11,7 C 86 % 1023,4 hPa 0,0 l/m 7,4 km/h (2 Bft) S 184 0 min 0,7 UV-I 123 W/m 8,0 C 9,5 C 12,9 km/h (3 Bft)
21.05.2022 08:48 10,2 C 11,1 C 86 % 1023,4 hPa 0,0 l/m 9,4 km/h (2 Bft) S-SW 194 0 min 0,7 UV-I 135 W/m 8,0 C 8,2 C 16,1 km/h (3 Bft)
21.05.2022 08:50 10,2 C 11,1 C 86 % 1023,3 hPa 0,0 l/m 10,4 km/h (2 Bft) S-SW 194 0 min 0,4 UV-I 111 W/m 8,0 C 7,6 C 14,5 km/h (3 Bft)
21.05.2022 08:52 10,2 C 11,1 C 86 % 1023,3 hPa 0,0 l/m 8,4 km/h (2 Bft) S-SW 200 0 min 0,0 UV-I 88 W/m 8,0 C 8,8 C 11,3 km/h (2 Bft)
21.05.2022 08:54 10,1 C 10,6 C 85 % 1023,4 hPa 0,0 l/m 7,2 km/h (2 Bft) S-SW 205 0 min 0,2 UV-I 94 W/m 7,7 C 9,5 C 11,3 km/h (2 Bft)
21.05.2022 08:56 10,2 C 10,6 C 86 % 1023,4 hPa 0,0 l/m 6,3 km/h (2 Bft) S-SW 195 0 min 0,4 UV-I 96 W/m 8,0 C 10,2 C 9,7 km/h (2 Bft)
21.05.2022 08:58 10,2 C 11,1 C 86 % 1023,6 hPa 0,0 l/m 6,7 km/h (2 Bft) W-SW 243 0 min 0,6 UV-I 123 W/m 8,0 C 10,0 C 11,3 km/h (2 Bft)
21.05.2022 09:00 10,2 C 11,1 C 86 % 1023,5 hPa 0,0 l/m 8,8 km/h (2 Bft) S-SW 196 0 min 0,5 UV-I 114 W/m 8,0 C 8,5 C 12,9 km/h (3 Bft)
21.05.2022 09:02 10,2 C 11,1 C 85 % 1023,5 hPa 0,0 l/m 11,0 km/h (2 Bft) S-SW 213 0 min 0,8 UV-I 157 W/m 7,8 C 7,3 C 20,9 km/h (4 Bft)
21.05.2022 09:04 10,2 C 11,1 C 85 % 1023,5 hPa 0,0 l/m 9,2 km/h (2 Bft) S 183 0 min 1,2 UV-I 209 W/m 7,8 C 8,3 C 17,7 km/h (3 Bft)
21.05.2022 09:06 10,3 C 11,1 C 85 % 1023,4 hPa 0,0 l/m 8,3 km/h (2 Bft) S 186 0 min 1,2 UV-I 255 W/m 7,9 C 9,0 C 12,9 km/h (3 Bft)
21.05.2022 09:08 10,4 C 11,7 C 86 % 1023,6 hPa 0,0 l/m 7,7 km/h (2 Bft) S-SW 213 0 min 1,0 UV-I 222 W/m 8,2 C 9,5 C 11,3 km/h (2 Bft)
21.05.2022 09:10 10,5 C 11,7 C 85 % 1023,6 hPa 0,0 l/m 9,6 km/h (2 Bft) SW 219 0 min 0,9 UV-I 212 W/m 8,1 C 8,4 C 14,5 km/h (3 Bft)
21.05.2022 09:12 10,6 C 11,7 C 86 % 1023,6 hPa 0,0 l/m 8,5 km/h (2 Bft) S-SW 203 0 min 0,9 UV-I 181 W/m 8,4 C 9,2 C 12,9 km/h (3 Bft)
21.05.2022 09:14 10,5 C 11,7 C 85 % 1023,6 hPa 0,0 l/m 12,7 km/h (3 Bft) S 182 0 min 0,9 UV-I 172 W/m 8,1 C 6,8 C 17,7 km/h (3 Bft)
21.05.2022 09:16 10,4 C 11,7 C 85 % 1023,5 hPa 0,0 l/m 13,3 km/h (3 Bft) S-SW 209 0 min 1,3 UV-I 204 W/m 8,0 C 6,4 C 19,3 km/h (3 Bft)
21.05.2022 09:18 10,5 C 11,7 C 86 % 1023,5 hPa 0,0 l/m 9,4 km/h (2 Bft) SW 215 0 min 1,5 UV-I 233 W/m 8,3 C 8,5 C 12,9 km/h (3 Bft)
21.05.2022 09:20 10,7 C 12,2 C 85 % 1023,4 hPa 0,0 l/m 9,7 km/h (2 Bft) S-SW 202 2 min 2,1 UV-I 392 W/m 8,3 C 8,5 C 17,7 km/h (3 Bft)
21.05.2022 09:22 10,9 C 12,8 C 85 % 1023,5 hPa 0,0 l/m 11,0 km/h (2 Bft) S 184 2 min 2,2 UV-I 555 W/m 8,5 C 8,1 C 14,5 km/h (3 Bft)
21.05.2022 09:24 11,2 C 13,3 C 84 % 1023,5 hPa 0,0 l/m 7,8 km/h (2 Bft) S 189 2 min 2,1 UV-I 545 W/m 8,6 C 10,2 C 11,3 km/h (2 Bft)
21.05.2022 09:26 11,4 C 13,9 C 84 % 1023,4 hPa 0,0 l/m 11,9 km/h (2 Bft) W-SW 243 2 min 2,1 UV-I 398 W/m 8,8 C 8,2 C 17,7 km/h (3 Bft)
21.05.2022 09:28 11,4 C 13,3 C 84 % 1023,4 hPa 0,0 l/m 10,9 km/h (2 Bft) S 182 0 min 2,0 UV-I 308 W/m 8,8 C 8,7 C 19,3 km/h (3 Bft)
21.05.2022 09:30 11,6 C 13,9 C 84 % 1023,3 hPa 0,0 l/m 10,5 km/h (2 Bft) W-SW 242 0 min 2,0 UV-I 265 W/m 9,0 C 9,1 C 12,9 km/h (3 Bft)
21.05.2022 09:32 11,7 C 13,3 C 84 % 1023,4 hPa 0,0 l/m 9,1 km/h (2 Bft) SW 219 0 min 1,6 UV-I 250 W/m 9,1 C 10,0 C 12,9 km/h (3 Bft)
21.05.2022 09:34 11,6 C 13,3 C 83 % 1023,4 hPa 0,0 l/m 11,5 km/h (2 Bft) S-SW 196 0 min 2,0 UV-I 281 W/m 8,8 C 8,6 C 19,3 km/h (3 Bft)
21.05.2022 09:36 11,4 C 13,3 C 83 % 1023,5 hPa 0,0 l/m 10,6 km/h (2 Bft) S-SW 200 2 min 2,2 UV-I 373 W/m 8,6 C 8,8 C 14,5 km/h (3 Bft)
21.05.2022 09:38 11,6 C 13,3 C 84 % 1023,4 hPa 0,0 l/m 9,5 km/h (2 Bft) S-SW 212 2 min 2,7 UV-I 533 W/m 9,0 C 9,6 C 14,5 km/h (3 Bft)
21.05.2022 09:40 11,7 C 13,9 C 83 % 1023,4 hPa 0,0 l/m 7,8 km/h (2 Bft) W-SW 250 2 min 2,6 UV-I 538 W/m 8,9 C 10,8 C 12,9 km/h (3 Bft)
21.05.2022 09:42 11,9 C 14,4 C 82 % 1023,4 hPa 0,0 l/m 9,2 km/h (2 Bft) W 272 2 min 2,6 UV-I 538 W/m 8,9 C 10,1 C 17,7 km/h (3 Bft)
21.05.2022 09:44 12,0 C 13,9 C 81 % 1023,5 hPa 0,0 l/m 8,8 km/h (2 Bft) SW 232 0 min 2,1 UV-I 262 W/m 8,8 C 10,5 C 17,7 km/h (3 Bft)
21.05.2022 09:46 11,8 C 13,3 C 80 % 1023,5 hPa 0,0 l/m 11,8 km/h (2 Bft) S-SW 196 0 min 1,4 UV-I 194 W/m 8,5 C 8,7 C 19,3 km/h (3 Bft)
21.05.2022 09:48 11,6 C 13,3 C 81 % 1023,4 hPa 0,0 l/m 13,5 km/h (3 Bft) S-SW 201 0 min 1,6 UV-I 243 W/m 8,5 C 7,7 C 19,3 km/h (3 Bft)
21.05.2022 09:50 11,6 C 13,3 C 81 % 1023,4 hPa 0,0 l/m 13,0 km/h (3 Bft) SW 220 0 min 1,3 UV-I 255 W/m 8,5 C 7,9 C 20,9 km/h (4 Bft)
21.05.2022 09:52 11,4 C 12,8 C 81 % 1023,5 hPa 0,0 l/m 12,5 km/h (3 Bft) W-SW 237 0 min 1,7 UV-I 212 W/m 8,3 C 7,9 C 19,3 km/h (3 Bft)
21.05.2022 09:54 11,4 C 12,8 C 82 % 1023,5 hPa 0,0 l/m 13,3 km/h (3 Bft) SW 220 0 min 2,1 UV-I 224 W/m 8,4 C 7,5 C 20,9 km/h (4 Bft)
21.05.2022 09:56 11,5 C 13,3 C 82 % 1023,5 hPa 0,0 l/m 9,2 km/h (2 Bft) S-SW 194 0 min 2,7 UV-I 288 W/m 8,5 C 9,7 C 12,9 km/h (3 Bft)
21.05.2022 09:58 11,7 C 13,9 C 82 % 1023,5 hPa 0,0 l/m 9,7 km/h (2 Bft) S 178 2 min 3,0 UV-I 509 W/m 8,7 C 9,6 C 17,7 km/h (3 Bft)
21.05.2022 10:00 11,7 C 13,9 C 80 % 1023,4 hPa 0,0 l/m 13,7 km/h (3 Bft) SW 222 2 min 2,6 UV-I 591 W/m 8,4 C 7,7 C 17,7 km/h (3 Bft)
21.05.2022 10:02 11,9 C 14,4 C 81 % 1023,4 hPa 0,0 l/m 13,9 km/h (3 Bft) W-SW 249 2 min 2,8 UV-I 595 W/m 8,7 C 7,9 C 19,3 km/h (3 Bft)
21.05.2022 10:04 11,8 C 13,9 C 81 % 1023,4 hPa 0,0 l/m 11,0 km/h (2 Bft) SW 232 2 min 1,9 UV-I 390 W/m 8,6 C 9,1 C 16,1 km/h (3 Bft)
21.05.2022 10:06 11,8 C 13,9 C 81 % 1023,5 hPa 0,0 l/m 14,3 km/h (3 Bft) S-SW 192 2 min 1,8 UV-I 357 W/m 8,6 C 7,6 C 22,5 km/h (4 Bft)
21.05.2022 10:08 11,8 C 13,3 C 80 % 1023,5 hPa 0,0 l/m 13,4 km/h (3 Bft) S-SW 211 0 min 1,7 UV-I 185 W/m 8,5 C 8,0 C 19,3 km/h (3 Bft)
21.05.2022 10:10 11,8 C 13,3 C 80 % 1023,5 hPa 0,0 l/m 13,3 km/h (3 Bft) SW 223 0 min 2,7 UV-I 190 W/m 8,5 C 8,0 C 22,5 km/h (4 Bft)
21.05.2022 10:12 12,0 C 14,4 C 81 % 1023,5 hPa 0,0 l/m 14,1 km/h (3 Bft) S-SW 196 2 min 3,3 UV-I 547 W/m 8,8 C 7,9 C 20,9 km/h (4 Bft)
21.05.2022 10:14 11,9 C 14,4 C 80 % 1023,5 hPa 0,0 l/m 13,5 km/h (3 Bft) W-SW 254 2 min 2,7 UV-I 625 W/m 8,6 C 8,0 C 22,5 km/h (4 Bft)
21.05.2022 10:16 11,9 C 13,9 C 79 % 1023,6 hPa 0,0 l/m 12,7 km/h (3 Bft) SW 232 2 min 1,8 UV-I 470 W/m 8,4 C 8,4 C 16,1 km/h (3 Bft)
21.05.2022 10:18 11,8 C 13,9 C 80 % 1023,6 hPa 0,0 l/m 9,5 km/h (2 Bft) SW 214 0 min 1,4 UV-I 193 W/m 8,5 C 9,9 C 17,7 km/h (3 Bft)
21.05.2022 10:20 11,7 C 13,3 C 80 % 1023,6 hPa 0,0 l/m 13,7 km/h (3 Bft) S-SW 198 0 min 2,0 UV-I 281 W/m 8,4 C 7,7 C 24,1 km/h (4 Bft)
21.05.2022 10:22 11,6 C 13,3 C 80 % 1023,6 hPa 0,0 l/m 14,0 km/h (3 Bft) S 187 0 min 2,3 UV-I 291 W/m 8,3 C 7,5 C 19,3 km/h (3 Bft)
21.05.2022 10:24 11,8 C 14,4 C 80 % 1023,6 hPa 0,0 l/m 11,8 km/h (2 Bft) S-SW 201 0 min 3,1 UV-I 321 W/m 8,5 C 8,7 C 19,3 km/h (3 Bft)
21.05.2022 10:26 11,8 C 14,4 C 80 % 1023,5 hPa 0,0 l/m 10,8 km/h (2 Bft) S-SW 200 0 min 1,7 UV-I 245 W/m 8,5 C 9,2 C 17,7 km/h (3 Bft)
21.05.2022 10:28 11,9 C 14,4 C 80 % 1023,6 hPa 0,0 l/m 12,2 km/h (2 Bft) SW 215 0 min 2,5 UV-I 264 W/m 8,6 C 8,6 C 20,9 km/h (4 Bft)
21.05.2022 10:30 11,9 C 14,4 C 79 % 1023,6 hPa 0,0 l/m 11,1 km/h (2 Bft) S-SW 201 0 min 2,1 UV-I 277 W/m 8,4 C 9,1 C 17,7 km/h (3 Bft)
21.05.2022 10:32 11,9 C 13,9 C 79 % 1023,7 hPa 0,0 l/m 15,0 km/h (3 Bft) SW 217 0 min 2,0 UV-I 270 W/m 8,4 C 7,4 C 22,5 km/h (4 Bft)
21.05.2022 10:34 12,0 C 15,0 C 79 % 1023,7 hPa 0,0 l/m 13,6 km/h (3 Bft) S-SW 200 2 min 3,0 UV-I 357 W/m 8,5 C 8,1 C 19,3 km/h (3 Bft)
21.05.2022 10:36 12,0 C 14,4 C 78 % 1023,7 hPa 0,0 l/m 15,9 km/h (3 Bft) SW 227 0 min 2,2 UV-I 331 W/m 8,3 C 7,2 C 20,9 km/h (4 Bft)
21.05.2022 10:38 11,9 C 13,9 C 78 % 1023,7 hPa 0,0 l/m 13,6 km/h (3 Bft) SW 235 0 min 2,1 UV-I 310 W/m 8,2 C 8,0 C 19,3 km/h (3 Bft)
21.05.2022 10:40 11,9 C 13,9 C 78 % 1023,7 hPa 0,0 l/m 16,4 km/h (3 Bft) S-SW 204 0 min 2,2 UV-I 283 W/m 8,2 C 6,9 C 22,5 km/h (4 Bft)
21.05.2022 10:42 11,9 C 13,3 C 79 % 1023,7 hPa 0,0 l/m 13,2 km/h (3 Bft) SW 230 0 min 3,0 UV-I 278 W/m 8,4 C 8,2 C 20,9 km/h (4 Bft)
21.05.2022 10:44 12,1 C 15,0 C 78 % 1023,8 hPa 0,0 l/m 12,7 km/h (3 Bft) SW 215 2 min 4,2 UV-I 383 W/m 8,4 C 8,6 C 19,3 km/h (3 Bft)
21.05.2022 10:46 12,5 C 16,1 C 78 % 1023,7 hPa 0,0 l/m 13,3 km/h (3 Bft) S-SW 207 2 min 3,9 UV-I 838 W/m 8,8 C 8,8 C 19,3 km/h (3 Bft)
21.05.2022 10:48 12,7 C 16,1 C 77 % 1023,7 hPa 0,0 l/m 14,2 km/h (3 Bft) W-SW 244 2 min 3,2 UV-I 666 W/m 8,8 C 8,7 C 20,9 km/h (4 Bft)
21.05.2022 10:50 12,7 C 15,6 C 77 % 1023,8 hPa 0,0 l/m 16,7 km/h (3 Bft) S-SW 212 2 min 2,4 UV-I 364 W/m 8,8 C 7,8 C 24,1 km/h (4 Bft)
21.05.2022 10:52 12,6 C 15,0 C 77 % 1023,7 hPa 0,0 l/m 12,5 km/h (3 Bft) SW 217 0 min 2,5 UV-I 343 W/m 8,7 C 9,3 C 17,7 km/h (3 Bft)
21.05.2022 10:54 12,4 C 15,0 C 77 % 1023,6 hPa 0,0 l/m 11,6 km/h (2 Bft) S-SW 208 0 min 2,3 UV-I 296 W/m 8,5 C 9,5 C 20,9 km/h (4 Bft)
21.05.2022 10:56 12,3 C 14,4 C 77 % 1023,7 hPa 0,0 l/m 14,6 km/h (3 Bft) SW 215 0 min 2,7 UV-I 282 W/m 8,4 C 8,1 C 22,5 km/h (4 Bft)
21.05.2022 10:58 12,3 C 15,0 C 78 % 1023,7 hPa 0,0 l/m 11,8 km/h (2 Bft) S 188 0 min 3,2 UV-I 303 W/m 8,6 C 9,3 C 19,3 km/h (3 Bft)
21.05.2022 11:00 12,4 C 15,0 C 77 % 1023,6 hPa 0,0 l/m 11,7 km/h (2 Bft) SW 218 0 min 2,3 UV-I 337 W/m 8,5 C 9,4 C 19,3 km/h (3 Bft)
21.05.2022 11:02 12,6 C 15,0 C 77 % 1023,7 hPa 0,0 l/m 11,2 km/h (2 Bft) SW 231 0 min 3,2 UV-I 313 W/m 8,7 C 9,9 C 16,1 km/h (3 Bft)
21.05.2022 11:04 12,7 C 15,6 C 76 % 1023,7 hPa 0,0 l/m 13,7 km/h (3 Bft) S-SW 192 0 min 3,8 UV-I 313 W/m 8,6 C 8,9 C 22,5 km/h (4 Bft)
21.05.2022 11:06 12,9 C 16,1 C 76 % 1023,7 hPa 0,0 l/m 15,7 km/h (3 Bft) SW 217 2 min 3,9 UV-I 848 W/m 8,8 C 8,4 C 24,1 km/h (4 Bft)
21.05.2022 11:08 13,2 C 17,2 C 75 % 1023,6 hPa 0,0 l/m 13,5 km/h (3 Bft) S 186 2 min 3,2 UV-I 896 W/m 8,9 C 9,6 C 20,9 km/h (4 Bft)
21.05.2022 11:10 13,1 C 15,6 C 74 % 1023,7 hPa 0,0 l/m 11,5 km/h (2 Bft) SW 232 2 min 2,0 UV-I 428 W/m 8,6 C 10,3 C 17,7 km/h (3 Bft)
21.05.2022 11:12 12,9 C 15,0 C 74 % 1023,8 hPa 0,0 l/m 15,3 km/h (3 Bft) SW 224 0 min 1,9 UV-I 295 W/m 8,4 C 8,5 C 22,5 km/h (4 Bft)
21.05.2022 11:14 12,7 C 15,0 C 74 % 1023,7 hPa 0,0 l/m 13,3 km/h (3 Bft) S 184 0 min 2,0 UV-I 286 W/m 8,2 C 9,1 C 19,3 km/h (3 Bft)
21.05.2022 11:16 12,6 C 15,0 C 74 % 1023,7 hPa 0,0 l/m 12,9 km/h (3 Bft) W-SW 238 2 min 2,5 UV-I 377 W/m 8,1 C 9,1 C 22,5 km/h (4 Bft)
21.05.2022 11:18 12,7 C 15,0 C 75 % 1023,6 hPa 0,0 l/m 10,9 km/h (2 Bft) SW 223 2 min 2,7 UV-I 372 W/m 8,4 C 10,1 C 19,3 km/h (3 Bft)
21.05.2022 11:20 12,9 C 15,0 C 74 % 1023,7 hPa 0,0 l/m 15,4 km/h (3 Bft) SW 227 0 min 2,5 UV-I 319 W/m 8,4 C 8,5 C 22,5 km/h (4 Bft)
21.05.2022 11:22 12,9 C 15,0 C 73 % 1023,7 hPa 0,0 l/m 10,0 km/h (2 Bft) S-SW 193 0 min 3,2 UV-I 316 W/m 8,2 C 10,8 C 16,1 km/h (3 Bft)
21.05.2022 11:24 13,2 C 17,2 C 73 % 1023,7 hPa 0,0 l/m 14,9 km/h (3 Bft) W 266 2 min 4,9 UV-I 644 W/m 8,5 C 9,0 C 19,3 km/h (3 Bft)
21.05.2022 11:26 13,6 C 18,3 C 73 % 1023,7 hPa 0,0 l/m 11,5 km/h (2 Bft) W-NW 303 2 min 3,9 UV-I 817 W/m 8,9 C 10,9 C 17,7 km/h (3 Bft)
21.05.2022 11:28 13,7 C 17,2 C 71 % 1023,9 hPa 0,0 l/m 16,7 km/h (3 Bft) SW 236 2 min 2,2 UV-I 352 W/m 8,5 C 9,0 C 25,7 km/h (4 Bft)
21.05.2022 11:30 13,4 C 15,6 C 72 % 1023,9 hPa 0,0 l/m 16,0 km/h (3 Bft) SW 222 0 min 2,0 UV-I 296 W/m 8,5 C 8,9 C 29,0 km/h (5 Bft)
21.05.2022 11:32 13,2 C 15,0 C 73 % 1023,9 hPa 0,0 l/m 16,5 km/h (3 Bft) SW 224 0 min 2,2 UV-I 263 W/m 8,5 C 8,5 C 29,0 km/h (5 Bft)
21.05.2022 11:34 13,1 C 15,0 C 73 % 1024,0 hPa 0,0 l/m 13,0 km/h (3 Bft) W-SW 257 0 min 3,0 UV-I 223 W/m 8,4 C 9,7 C 22,5 km/h (4 Bft)
21.05.2022 11:36 13,3 C 16,7 C 73 % 1024,0 hPa 0,0 l/m 14,6 km/h (3 Bft) W-SW 248 0 min 4,2 UV-I 295 W/m 8,6 C 9,3 C 20,9 km/h (4 Bft)
21.05.2022 11:38 13,6 C 17,2 C 72 % 1023,9 hPa 0,0 l/m 12,0 km/h (2 Bft) S-SW 205 2 min 4,8 UV-I 750 W/m 8,6 C 10,7 C 22,5 km/h (4 Bft)
21.05.2022 11:40 13,8 C 18,3 C 72 % 1023,9 hPa 0,0 l/m 11,7 km/h (2 Bft) W 280 2 min 4,9 UV-I 792 W/m 8,8 C 11,0 C 22,5 km/h (4 Bft)
21.05.2022 11:42 14,2 C 18,9 C 71 % 1023,9 hPa 0,0 l/m 13,0 km/h (3 Bft) SW 215 2 min 5,1 UV-I 860 W/m 9,0 C 11,0 C 24,1 km/h (4 Bft)
21.05.2022 11:44 14,2 C 18,9 C 71 % 1024,0 hPa 0,0 l/m 11,3 km/h (2 Bft) SW 225 2 min 3,9 UV-I 857 W/m 9,0 C 11,6 C 20,9 km/h (4 Bft)
21.05.2022 11:46 14,2 C 17,8 C 69 % 1023,9 hPa 0,0 l/m 14,5 km/h (3 Bft) S-SW 213 2 min 3,6 UV-I 858 W/m 8,6 C 10,4 C 30,6 km/h (5 Bft)
21.05.2022 11:48 13,9 C 17,2 C 69 % 1023,9 hPa 0,0 l/m 10,2 km/h (2 Bft) W-SW 241 2 min 3,9 UV-I 858 W/m 8,3 C 11,8 C 17,7 km/h (3 Bft)
21.05.2022 11:50 13,8 C 15,6 C 69 % 1024,0 hPa 0,0 l/m 11,6 km/h (2 Bft) S-SW 194 2 min 3,0 UV-I 858 W/m 8,2 C 11,1 C 19,3 km/h (3 Bft)
21.05.2022 11:52 13,7 C 15,0 C 69 % 1023,8 hPa 0,0 l/m 13,4 km/h (3 Bft) W 259 2 min 2,8 UV-I 410 W/m 8,1 C 10,2 C 19,3 km/h (3 Bft)
21.05.2022 11:54 13,5 C 15,0 C 69 % 1023,8 hPa 0,0 l/m 5,7 km/h (1 Bft) W-SW 257 0 min 3,1 UV-I 305 W/m 7,9 C 13,5 C 14,5 km/h (3 Bft)
21.05.2022 11:56 13,6 C 17,2 C 69 % 1023,8 hPa 0,0 l/m 7,7 km/h (2 Bft) SW 223 2 min 4,7 UV-I 711 W/m 8,0 C 12,8 C 14,5 km/h (3 Bft)
21.05.2022 11:58 13,7 C 16,7 C 69 % 1023,8 hPa 0,0 l/m 9,3 km/h (2 Bft) S 190 2 min 2,8 UV-I 356 W/m 8,1 C 12,0 C 20,9 km/h (4 Bft)
21.05.2022 12:00 13,6 C 16,1 C 69 % 1023,7 hPa 0,0 l/m 17,6 km/h (3 Bft) W-SW 250 0 min 2,9 UV-I 284 W/m 8,0 C 8,6 C 25,7 km/h (4 Bft)
21.05.2022 12:02 13,7 C 17,2 C 70 % 1023,7 hPa 0,0 l/m 16,7 km/h (3 Bft) SW 222 0 min 4,3 UV-I 297 W/m 8,3 C 9,0 C 22,5 km/h (4 Bft)
21.05.2022 12:04 14,1 C 18,3 C 70 % 1023,8 hPa 0,0 l/m 17,0 km/h (3 Bft) W 267 0 min 5,2 UV-I 297 W/m 8,7 C 9,4 C 25,7 km/h (4 Bft)
21.05.2022 12:06 14,2 C 17,8 C 69 % 1023,9 hPa 0,0 l/m 13,3 km/h (3 Bft) W 263 2 min 4,1 UV-I 373 W/m 8,6 C 10,8 C 22,5 km/h (4 Bft)
21.05.2022 12:08 14,2 C 18,3 C 68 % 1023,8 hPa 0,0 l/m 9,9 km/h (2 Bft) S-SW 209 2 min 5,7 UV-I 811 W/m 8,4 C 12,3 C 19,3 km/h (3 Bft)
21.05.2022 12:10 14,3 C 19,4 C 68 % 1023,8 hPa 0,0 l/m 11,9 km/h (2 Bft) SW 221 2 min 5,4 UV-I 969 W/m 8,5 C 11,5 C 19,3 km/h (3 Bft)
21.05.2022 12:12 14,7 C 20,6 C 68 % 1023,9 hPa 0,0 l/m 14,7 km/h (3 Bft) S-SW 206 2 min 5,9 UV-I 959 W/m 8,9 C 10,9 C 24,1 km/h (4 Bft)
21.05.2022 12:14 14,9 C 20,6 C 66 % 1023,8 hPa 0,0 l/m 14,6 km/h (3 Bft) S-SW 198 2 min 5,8 UV-I 913 W/m 8,6 C 11,2 C 25,7 km/h (4 Bft)
21.05.2022 12:16 14,9 C 20,6 C 67 % 1023,8 hPa 0,0 l/m 14,7 km/h (3 Bft) SW 235 2 min 5,0 UV-I 873 W/m 8,8 C 11,2 C 24,1 km/h (4 Bft)
21.05.2022 12:18 14,8 C 20,0 C 67 % 1023,8 hPa 0,0 l/m 12,8 km/h (3 Bft) SW 223 2 min 5,6 UV-I 872 W/m 8,7 C 11,7 C 20,9 km/h (4 Bft)
21.05.2022 12:20 15,2 C 20,6 C 68 % 1023,8 hPa 0,0 l/m 10,6 km/h (2 Bft) W 269 2 min 5,7 UV-I 898 W/m 9,3 C 13,1 C 17,7 km/h (3 Bft)
21.05.2022 12:22 15,2 C 20,6 C 66 % 1023,7 hPa 0,0 l/m 9,4 km/h (2 Bft) W 263 2 min 5,7 UV-I 849 W/m 8,9 C 13,6 C 17,7 km/h (3 Bft)
21.05.2022 12:24 15,2 C 20,0 C 66 % 1023,8 hPa 0,0 l/m 11,7 km/h (2 Bft) S-SW 198 2 min 5,8 UV-I 923 W/m 8,9 C 12,6 C 20,9 km/h (4 Bft)
21.05.2022 12:26 15,0 C 18,3 C 65 % 1023,8 hPa 0,0 l/m 15,6 km/h (3 Bft) SW 221 2 min 4,3 UV-I 526 W/m 8,5 C 11,0 C 22,5 km/h (4 Bft)
21.05.2022 12:28 15,2 C 20,0 C 67 % 1023,8 hPa 0,0 l/m 8,4 km/h (2 Bft) SW 223 2 min 5,0 UV-I 884 W/m 9,1 C 14,1 C 17,7 km/h (3 Bft)
21.05.2022 12:30 15,2 C 18,9 C 65 % 1023,8 hPa 0,0 l/m 13,3 km/h (3 Bft) W-SW 255 2 min 4,0 UV-I 509 W/m 8,7 C 12,0 C 24,1 km/h (4 Bft)
21.05.2022 12:32 15,0 C 18,9 C 66 % 1023,7 hPa 0,0 l/m 12,5 km/h (3 Bft) W-SW 241 0 min 5,2 UV-I 323 W/m 8,7 C 12,1 C 16,1 km/h (3 Bft)
21.05.2022 12:34 15,1 C 19,4 C 64 % 1023,7 hPa 0,0 l/m 11,9 km/h (2 Bft) NW 309 2 min 5,6 UV-I 370 W/m 8,3 C 12,4 C 16,1 km/h (3 Bft)
21.05.2022 12:36 15,3 C 20,0 C 66 % 1023,7 hPa 0,0 l/m 17,3 km/h (3 Bft) W 280 2 min 5,3 UV-I 886 W/m 9,0 C 10,9 C 27,4 km/h (4 Bft)
21.05.2022 12:38 15,2 C 18,3 C 65 % 1023,7 hPa 0,0 l/m 13,8 km/h (3 Bft) W 275 2 min 3,1 UV-I 435 W/m 8,7 C 11,8 C 22,5 km/h (4 Bft)
21.05.2022 12:40 15,1 C 18,3 C 65 % 1023,8 hPa 0,0 l/m 10,9 km/h (2 Bft) W-SW 248 0 min 4,2 UV-I 301 W/m 8,6 C 12,8 C 19,3 km/h (3 Bft)
21.05.2022 12:42 14,9 C 17,8 C 66 % 1023,9 hPa 0,0 l/m 15,0 km/h (3 Bft) W 264 0 min 3,6 UV-I 301 W/m 8,6 C 11,1 C 27,4 km/h (4 Bft)
21.05.2022 12:44 14,9 C 17,8 C 65 % 1023,8 hPa 0,0 l/m 17,1 km/h (3 Bft) S 186 0 min 3,8 UV-I 301 W/m 8,4 C 10,4 C 25,7 km/h (4 Bft)
21.05.2022 12:46 14,7 C 17,2 C 65 % 1023,8 hPa 0,0 l/m 15,3 km/h (3 Bft) W-SW 238 0 min 2,8 UV-I 253 W/m 8,2 C 10,7 C 27,4 km/h (4 Bft)
21.05.2022 12:48 14,5 C 16,7 C 66 % 1023,7 hPa 0,0 l/m 16,1 km/h (3 Bft) SW 233 0 min 4,7 UV-I 234 W/m 8,2 C 10,2 C 27,4 km/h (4 Bft)
21.05.2022 12:50 14,7 C 18,9 C 68 % 1023,7 hPa 0,0 l/m 12,4 km/h (3 Bft) W-SW 238 2 min 5,7 UV-I 470 W/m 8,9 C 11,8 C 22,5 km/h (4 Bft)
21.05.2022 12:52 14,9 C 19,4 C 65 % 1023,6 hPa 0,0 l/m 18,3 km/h (3 Bft) SW 227 2 min 5,6 UV-I 789 W/m 8,4 C 10,1 C 27,4 km/h (4 Bft)
21.05.2022 12:54 15,1 C 20,0 C 64 % 1023,7 hPa 0,0 l/m 18,2 km/h (3 Bft) W-SW 241 2 min 5,8 UV-I 867 W/m 8,3 C 10,4 C 25,7 km/h (4 Bft)
21.05.2022 12:56 15,2 C 20,6 C 64 % 1023,6 hPa 0,0 l/m 12,1 km/h (2 Bft) S-SW 198 2 min 6,1 UV-I 912 W/m 8,4 C 12,5 C 22,5 km/h (4 Bft)
21.05.2022 12:58 15,4 C 21,7 C 66 % 1023,6 hPa 0,0 l/m 10,1 km/h (2 Bft) W-SW 252 2 min 6,3 UV-I 934 W/m 9,1 C 13,5 C 17,7 km/h (3 Bft)
21.05.2022 13:00 15,8 C 21,7 C 63 % 1023,7 hPa 0,0 l/m 16,5 km/h (3 Bft) S-SW 196 2 min 5,6 UV-I 1031 W/m 8,8 C 11,7 C 30,6 km/h (5 Bft)
21.05.2022 13:02 15,6 C 18,9 C 62 % 1023,7 hPa 0,0 l/m 16,9 km/h (3 Bft) W-SW 240 2 min 3,8 UV-I 586 W/m 8,3 C 11,3 C 25,7 km/h (4 Bft)
21.05.2022 13:04 15,2 C 18,9 C 62 % 1023,7 hPa 0,0 l/m 15,1 km/h (3 Bft) W 279 0 min 4,6 UV-I 315 W/m 8,0 C 11,4 C 24,1 km/h (4 Bft)
21.05.2022 13:06 15,4 C 20,6 C 66 % 1023,8 hPa 0,0 l/m 15,7 km/h (3 Bft) S-SW 207 0 min 6,0 UV-I 315 W/m 9,1 C 11,5 C 25,7 km/h (4 Bft)
21.05.2022 13:08 15,7 C 21,1 C 65 % 1023,7 hPa 0,0 l/m 14,2 km/h (3 Bft) S 180 2 min 6,1 UV-I 962 W/m 9,1 C 12,3 C 22,5 km/h (4 Bft)
21.05.2022 13:10 15,8 C 22,2 C 65 % 1023,7 hPa 0,0 l/m 15,6 km/h (3 Bft) SW 233 2 min 6,7 UV-I 1077 W/m 9,2 C 12,0 C 24,1 km/h (4 Bft)
21.05.2022 13:12 16,1 C 22,2 C 64 % 1023,6 hPa 0,0 l/m 14,5 km/h (3 Bft) S-SW 213 2 min 5,9 UV-I 956 W/m 9,3 C 12,7 C 22,5 km/h (4 Bft)
21.05.2022 13:14 15,8 C 21,1 C 60 % 1023,7 hPa 0,0 l/m 17,7 km/h (3 Bft) S-SW 213 2 min 5,4 UV-I 994 W/m 8,1 C 11,4 C 29,0 km/h (5 Bft)
21.05.2022 13:16 15,7 C 20,6 C 64 % 1023,7 hPa 0,0 l/m 12,9 km/h (3 Bft) S-SW 200 2 min 5,7 UV-I 436 W/m 8,9 C 12,7 C 20,9 km/h (4 Bft)
21.05.2022 13:18 16,1 C 21,7 C 63 % 1023,7 hPa 0,0 l/m 15,8 km/h (3 Bft) W 269 2 min 6,1 UV-I 893 W/m 9,1 C 12,3 C 24,1 km/h (4 Bft)
21.05.2022 13:20 16,3 C 22,2 C 61 % 1023,7 hPa 0,0 l/m 16,2 km/h (3 Bft) W-NW 292 2 min 6,4 UV-I 954 W/m 8,8 C 12,4 C 32,2 km/h (5 Bft)
21.05.2022 13:22 16,4 C 22,8 C 59 % 1023,8 hPa 0,0 l/m 17,5 km/h (3 Bft) S-SW 196 2 min 6,6 UV-I 1027 W/m 8,4 C 12,2 C 29,0 km/h (5 Bft)
21.05.2022 13:24 16,3 C 21,7 C 62 % 1023,7 hPa 0,0 l/m 13,4 km/h (3 Bft) SW 233 2 min 6,0 UV-I 952 W/m 9,0 C 13,3 C 24,1 km/h (4 Bft)
21.05.2022 13:26 16,3 C 21,7 C 59 % 1023,8 hPa 0,0 l/m 13,6 km/h (3 Bft) SW 231 2 min 5,2 UV-I 910 W/m 8,3 C 13,2 C 27,4 km/h (4 Bft)
21.05.2022 13:28 16,1 C 21,1 C 60 % 1023,7 hPa 0,0 l/m 16,1 km/h (3 Bft) W-SW 252 2 min 5,6 UV-I 729 W/m 8,3 C 12,2 C 24,1 km/h (4 Bft)
21.05.2022 13:30 16,1 C 21,7 C 59 % 1023,7 hPa 0,0 l/m 16,3 km/h (3 Bft) W 269 2 min 5,4 UV-I 779 W/m 8,1 C 12,1 C 27,4 km/h (4 Bft)
21.05.2022 13:32 16,0 C 20,6 C 60 % 1023,6 hPa 0,0 l/m 10,1 km/h (2 Bft) S-SW 205 2 min 5,1 UV-I 728 W/m 8,2 C 14,2 C 16,1 km/h (3 Bft)
21.05.2022 13:34 16,2 C 21,1 C 62 % 1023,7 hPa 0,0 l/m 15,8 km/h (3 Bft) S-SW 209 2 min 5,2 UV-I 755 W/m 8,9 C 12,4 C 22,5 km/h (4 Bft)
21.05.2022 13:36 15,9 C 20,6 C 60 % 1023,7 hPa 0,0 l/m 17,5 km/h (3 Bft) SW 220 2 min 4,9 UV-I 684 W/m 8,1 C 11,6 C 25,7 km/h (4 Bft)
21.05.2022 13:38 15,8 C 20,0 C 61 % 1023,8 hPa 0,0 l/m 14,5 km/h (3 Bft) W 277 2 min 4,5 UV-I 585 W/m 8,3 C 12,3 C 20,9 km/h (4 Bft)
21.05.2022 13:40 16,1 C 20,0 C 62 % 1023,8 hPa 0,0 l/m 12,2 km/h (2 Bft) SW 231 2 min 4,5 UV-I 570 W/m 8,8 C 13,5 C 24,1 km/h (4 Bft)
21.05.2022 13:42 16,1 C 20,0 C 60 % 1023,8 hPa 0,0 l/m 14,9 km/h (3 Bft) W-SW 255 2 min 4,8 UV-I 605 W/m 8,3 C 12,6 C 25,7 km/h (4 Bft)
21.05.2022 13:44 16,3 C 21,1 C 61 % 1023,8 hPa 0,0 l/m 15,5 km/h (3 Bft) W 272 2 min 5,3 UV-I 747 W/m 8,8 C 12,6 C 27,4 km/h (4 Bft)
21.05.2022 13:46 16,4 C 21,7 C 60 % 1023,7 hPa 0,0 l/m 14,6 km/h (3 Bft) S-SW 198 2 min 5,4 UV-I 773 W/m 8,6 C 13,0 C 22,5 km/h (4 Bft)
21.05.2022 13:48 16,1 C 19,4 C 59 % 1023,7 hPa 0,0 l/m 13,2 km/h (3 Bft) SW 231 2 min 4,7 UV-I 636 W/m 8,1 C 13,1 C 17,7 km/h (3 Bft)
21.05.2022 13:50 16,2 C 20,0 C 61 % 1023,7 hPa 0,0 l/m 10,2 km/h (2 Bft) SW 222 2 min 4,4 UV-I 541 W/m 8,7 C 14,4 C 19,3 km/h (3 Bft)
21.05.2022 13:52 16,1 C 20,0 C 58 % 1023,7 hPa 0,0 l/m 13,4 km/h (3 Bft) W-NW 287 2 min 5,0 UV-I 686 W/m 7,8 C 13,0 C 19,3 km/h (3 Bft)
21.05.2022 13:54 16,3 C 21,1 C 59 % 1023,7 hPa 0,0 l/m 13,5 km/h (3 Bft) W-SW 255 2 min 5,1 UV-I 668 W/m 8,3 C 13,2 C 20,9 km/h (4 Bft)
21.05.2022 13:56 16,4 C 21,1 C 58 % 1023,8 hPa 0,0 l/m 19,7 km/h (3 Bft) SW 229 2 min 5,0 UV-I 742 W/m 8,1 C 11,6 C 32,2 km/h (5 Bft)
21.05.2022 13:58 16,3 C 21,1 C 58 % 1023,8 hPa 0,0 l/m 16,2 km/h (3 Bft) W-SW 243 2 min 5,7 UV-I 886 W/m 8,0 C 12,4 C 25,7 km/h (4 Bft)
21.05.2022 14:00 16,2 C 20,6 C 58 % 1023,7 hPa 0,0 l/m 16,7 km/h (3 Bft) S-SW 202 2 min 4,7 UV-I 946 W/m 7,9 C 12,1 C 22,5 km/h (4 Bft)
21.05.2022 14:02 16,1 C 20,6 C 58 % 1023,8 hPa 0,0 l/m 14,1 km/h (3 Bft) W-SW 254 2 min 5,6 UV-I 833 W/m 7,8 C 12,8 C 19,3 km/h (3 Bft)
21.05.2022 14:04 16,3 C 20,6 C 59 % 1023,7 hPa 0,0 l/m 15,8 km/h (3 Bft) W-NW 294 2 min 4,9 UV-I 729 W/m 8,3 C 12,5 C 25,7 km/h (4 Bft)
21.05.2022 14:06 16,4 C 21,7 C 61 % 1023,6 hPa 0,0 l/m 12,3 km/h (3 Bft) W 263 2 min 5,3 UV-I 743 W/m 8,9 C 13,8 C 22,5 km/h (4 Bft)
21.05.2022 14:08 16,7 C 22,2 C 61 % 1023,7 hPa 0,0 l/m 16,8 km/h (3 Bft) W-SW 246 2 min 6,2 UV-I 883 W/m 9,1 C 12,7 C 25,7 km/h (4 Bft)
21.05.2022 14:10 17,0 C 22,8 C 62 % 1023,7 hPa 0,0 l/m 14,2 km/h (3 Bft) SW 216 2 min 6,1 UV-I 906 W/m 9,7 C 13,9 C 24,1 km/h (4 Bft)
21.05.2022 14:12 16,8 C 22,8 C 57 % 1023,7 hPa 0,0 l/m 13,4 km/h (3 Bft) S 171 2 min 6,3 UV-I 893 W/m 8,2 C 13,9 C 22,5 km/h (4 Bft)
21.05.2022 14:14 16,7 C 22,2 C 60 % 1023,7 hPa 0,0 l/m 10,3 km/h (2 Bft) W-NW 284 2 min 6,2 UV-I 864 W/m 8,9 C 14,9 C 19,3 km/h (3 Bft)
21.05.2022 14:16 16,9 C 22,8 C 59 % 1023,6 hPa 0,0 l/m 13,0 km/h (3 Bft) SW 223 2 min 6,1 UV-I 855 W/m 8,8 C 14,1 C 20,9 km/h (4 Bft)
21.05.2022 14:18 17,1 C 23,3 C 60 % 1023,6 hPa 0,0 l/m 10,0 km/h (2 Bft) W-SW 240 2 min 6,2 UV-I 897 W/m 9,3 C 15,4 C 17,7 km/h (3 Bft)
21.05.2022 14:20 17,2 C 22,8 C 59 % 1023,6 hPa 0,0 l/m 14,8 km/h (3 Bft) SW 215 2 min 6,2 UV-I 870 W/m 9,1 C 13,9 C 24,1 km/h (4 Bft)
21.05.2022 14:22 17,2 C 23,3 C 59 % 1023,5 hPa 0,0 l/m 13,5 km/h (3 Bft) S-SW 213 2 min 6,1 UV-I 869 W/m 9,1 C 14,3 C 19,3 km/h (3 Bft)
21.05.2022 14:24 17,0 C 22,2 C 56 % 1023,7 hPa 0,0 l/m 17,1 km/h (3 Bft) S-SW 211 2 min 6,1 UV-I 914 W/m 8,2 C 13,0 C 29,0 km/h (5 Bft)
21.05.2022 14:26 16,8 C 21,1 C 58 % 1023,7 hPa 0,0 l/m 14,5 km/h (3 Bft) W 262 2 min 5,0 UV-I 935 W/m 8,5 C 13,5 C 22,5 km/h (4 Bft)
21.05.2022 14:28 16,6 C 21,1 C 60 % 1023,7 hPa 0,0 l/m 15,3 km/h (3 Bft) W 265 2 min 6,0 UV-I 930 W/m 8,8 C 13,0 C 27,4 km/h (4 Bft)
21.05.2022 14:30 16,8 C 22,2 C 59 % 1023,6 hPa 0,0 l/m 15,3 km/h (3 Bft) SW 217 2 min 6,4 UV-I 920 W/m 8,7 C 13,3 C 25,7 km/h (4 Bft)
21.05.2022 14:32 16,9 C 23,3 C 58 % 1023,5 hPa 0,0 l/m 14,9 km/h (3 Bft) W-SW 242 2 min 6,4 UV-I 941 W/m 8,6 C 13,5 C 20,9 km/h (4 Bft)
21.05.2022 14:34 17,1 C 23,3 C 58 % 1023,6 hPa 0,0 l/m 9,5 km/h (2 Bft) W-SW 250 2 min 5,8 UV-I 893 W/m 8,8 C 15,6 C 16,1 km/h (3 Bft)
21.05.2022 14:36 17,1 C 23,3 C 59 % 1023,5 hPa 0,0 l/m 9,7 km/h (2 Bft) W-NW 284 2 min 6,0 UV-I 882 W/m 9,0 C 15,6 C 24,1 km/h (4 Bft)
21.05.2022 14:38 17,3 C 23,3 C 60 % 1023,5 hPa 0,0 l/m 11,9 km/h (2 Bft) W-SW 238 2 min 5,7 UV-I 969 W/m 9,5 C 15,0 C 19,3 km/h (3 Bft)
21.05.2022 14:40 17,3 C 22,8 C 59 % 1023,4 hPa 0,0 l/m 11,0 km/h (2 Bft) S-SW 203 2 min 5,8 UV-I 933 W/m 9,2 C 15,3 C 17,7 km/h (3 Bft)
21.05.2022 14:42 17,3 C 23,3 C 58 % 1023,5 hPa 0,0 l/m 13,2 km/h (3 Bft) W-SW 257 2 min 5,8 UV-I 870 W/m 9,0 C 14,5 C 22,5 km/h (4 Bft)
21.05.2022 14:44 17,6 C 23,3 C 59 % 1023,5 hPa 0,0 l/m 11,5 km/h (2 Bft) W-SW 242 2 min 5,5 UV-I 867 W/m 9,5 C 15,4 C 19,3 km/h (3 Bft)
21.05.2022 14:46 17,6 C 23,3 C 58 % 1023,5 hPa 0,0 l/m 14,3 km/h (3 Bft) W-SW 240 2 min 5,8 UV-I 864 W/m 9,2 C 14,5 C 20,9 km/h (4 Bft)
21.05.2022 14:48 17,6 C 23,3 C 58 % 1023,5 hPa 0,0 l/m 11,3 km/h (2 Bft) W 279 2 min 5,5 UV-I 807 W/m 9,2 C 15,5 C 19,3 km/h (3 Bft)
21.05.2022 14:50 17,6 C 23,3 C 59 % 1023,5 hPa 0,0 l/m 16,8 km/h (3 Bft) W-SW 238 2 min 5,1 UV-I 708 W/m 9,5 C 13,9 C 25,7 km/h (4 Bft)
21.05.2022 14:52 17,7 C 23,9 C 61 % 1023,5 hPa 0,0 l/m 12,0 km/h (2 Bft) SW 234 2 min 5,8 UV-I 806 W/m 10,1 C 15,4 C 20,9 km/h (4 Bft)
21.05.2022 14:54 17,4 C 23,3 C 56 % 1023,4 hPa 0,0 l/m 14,1 km/h (3 Bft) W-SW 242 2 min 6,2 UV-I 920 W/m 8,5 C 14,4 C 24,1 km/h (4 Bft)
21.05.2022 14:56 17,3 C 23,3 C 58 % 1023,4 hPa 0,0 l/m 10,3 km/h (2 Bft) W 263 2 min 6,0 UV-I 920 W/m 9,0 C 15,5 C 27,4 km/h (4 Bft)
21.05.2022 14:58 17,4 C 24,4 C 58 % 1023,4 hPa 0,0 l/m 12,3 km/h (3 Bft) SW 229 2 min 6,2 UV-I 938 W/m 9,1 C 14,9 C 19,3 km/h (3 Bft)
21.05.2022 15:00 17,3 C 23,9 C 57 % 1023,3 hPa 0,0 l/m 14,1 km/h (3 Bft) S 170 2 min 5,7 UV-I 896 W/m 8,7 C 14,2 C 19,3 km/h (3 Bft)
21.05.2022 15:02 17,0 C 22,8 C 58 % 1023,2 hPa 0,0 l/m 12,5 km/h (3 Bft) W 259 2 min 5,6 UV-I 893 W/m 8,7 C 14,4 C 19,3 km/h (3 Bft)
21.05.2022 15:04 17,1 C 21,7 C 57 % 1023,3 hPa 0,0 l/m 15,3 km/h (3 Bft) W 280 2 min 4,1 UV-I 671 W/m 8,5 C 13,6 C 24,1 km/h (4 Bft)
21.05.2022 15:06 16,9 C 21,1 C 58 % 1023,3 hPa 0,0 l/m 11,0 km/h (2 Bft) W-SW 258 0 min 4,3 UV-I 282 W/m 8,6 C 14,8 C 16,1 km/h (3 Bft)
21.05.2022 15:08 17,1 C 22,8 C 59 % 1023,2 hPa 0,0 l/m 13,0 km/h (3 Bft) SW 229 2 min 5,9 UV-I 715 W/m 9,0 C 14,4 C 20,9 km/h (4 Bft)
21.05.2022 15:10 17,5 C 23,9 C 58 % 1023,3 hPa 0,0 l/m 12,8 km/h (3 Bft) W 263 2 min 6,1 UV-I 939 W/m 9,1 C 14,9 C 22,5 km/h (4 Bft)
21.05.2022 15:12 17,6 C 23,3 C 55 % 1023,3 hPa 0,0 l/m 19,3 km/h (3 Bft) SW 233 2 min 5,1 UV-I 816 W/m 8,5 C 13,3 C 27,4 km/h (4 Bft)
21.05.2022 15:14 17,2 C 22,2 C 55 % 1023,3 hPa 0,0 l/m 12,3 km/h (3 Bft) S-SW 209 2 min 3,9 UV-I 722 W/m 8,1 C 14,7 C 24,1 km/h (4 Bft)
21.05.2022 15:16 17,2 C 22,8 C 57 % 1023,3 hPa 0,0 l/m 11,6 km/h (2 Bft) W 273 2 min 5,5 UV-I 789 W/m 8,6 C 14,9 C 17,7 km/h (3 Bft)
21.05.2022 15:18 17,4 C 23,9 C 56 % 1023,1 hPa 0,0 l/m 14,1 km/h (3 Bft) W 261 2 min 5,8 UV-I 892 W/m 8,5 C 14,4 C 20,9 km/h (4 Bft)
21.05.2022 15:20 17,7 C 24,4 C 57 % 1023,3 hPa 0,0 l/m 11,1 km/h (2 Bft) W-SW 242 2 min 5,7 UV-I 873 W/m 9,1 C 15,7 C 19,3 km/h (3 Bft)
21.05.2022 15:22 17,9 C 25,0 C 56 % 1023,3 hPa 0,0 l/m 15,5 km/h (3 Bft) W 269 2 min 5,8 UV-I 886 W/m 9,0 C 14,6 C 22,5 km/h (4 Bft)
21.05.2022 15:24 17,9 C 25,0 C 56 % 1023,3 hPa 0,0 l/m 14,7 km/h (3 Bft) W 261 2 min 5,8 UV-I 877 W/m 9,0 C 14,8 C 19,3 km/h (3 Bft)
21.05.2022 15:26 18,0 C 24,4 C 56 % 1023,1 hPa 0,0 l/m 11,5 km/h (2 Bft) S-SW 213 2 min 5,6 UV-I 797 W/m 9,1 C 15,9 C 20,9 km/h (4 Bft)
21.05.2022 15:28 17,6 C 23,9 C 56 % 1023,1 hPa 0,0 l/m 16,3 km/h (3 Bft) S-SW 192 2 min 5,3 UV-I 784 W/m 8,7 C 14,0 C 25,7 km/h (4 Bft)
21.05.2022 15:30 17,6 C 23,3 C 56 % 1023,1 hPa 0,0 l/m 14,1 km/h (3 Bft) S 188 2 min 5,5 UV-I 817 W/m 8,7 C 14,6 C 25,7 km/h (4 Bft)
21.05.2022 15:32 17,5 C 23,3 C 57 % 1023,0 hPa 0,0 l/m 10,6 km/h (2 Bft) W 265 2 min 5,3 UV-I 844 W/m 8,9 C 15,6 C 16,1 km/h (3 Bft)
21.05.2022 15:34 17,3 C 23,3 C 55 % 1023,0 hPa 0,0 l/m 9,3 km/h (2 Bft) SW 221 2 min 5,2 UV-I 817 W/m 8,2 C 15,9 C 14,5 km/h (3 Bft)
21.05.2022 15:36 17,0 C 22,2 C 57 % 1023,0 hPa 0,0 l/m 9,9 km/h (2 Bft) S-SW 194 2 min 3,3 UV-I 486 W/m 8,4 C 15,4 C 16,1 km/h (3 Bft)
21.05.2022 15:38 16,9 C 20,6 C 58 % 1023,1 hPa 0,0 l/m 9,5 km/h (2 Bft) S-SW 200 0 min 3,2 UV-I 257 W/m 8,6 C 15,4 C 14,5 km/h (3 Bft)
21.05.2022 15:40 16,8 C 20,0 C 58 % 1023,0 hPa 0,0 l/m 10,3 km/h (2 Bft) SW 230 0 min 3,5 UV-I 257 W/m 8,5 C 15,0 C 16,1 km/h (3 Bft)
21.05.2022 15:42 17,1 C 21,7 C 58 % 1023,0 hPa 0,0 l/m 10,5 km/h (2 Bft) SW 223 0 min 4,8 UV-I 317 W/m 8,8 C 15,2 C 17,7 km/h (3 Bft)
21.05.2022 15:44 17,4 C 23,3 C 56 % 1023,1 hPa 0,0 l/m 12,2 km/h (2 Bft) W-SW 244 2 min 5,2 UV-I 787 W/m 8,5 C 15,0 C 25,7 km/h (4 Bft)
21.05.2022 15:46 17,5 C 23,3 C 55 % 1023,1 hPa 0,0 l/m 11,8 km/h (2 Bft) SW 223 2 min 5,2 UV-I 892 W/m 8,4 C 15,2 C 19,3 km/h (3 Bft)
21.05.2022 15:48 17,4 C 23,9 C 57 % 1023,1 hPa 0,0 l/m 11,3 km/h (2 Bft) W-SW 255 2 min 5,5 UV-I 886 W/m 8,8 C 15,3 C 24,1 km/h (4 Bft)
21.05.2022 15:50 17,8 C 24,4 C 55 % 1023,0 hPa 0,0 l/m 16,5 km/h (3 Bft) S 190 2 min 5,6 UV-I 899 W/m 8,6 C 14,2 C 29,0 km/h (5 Bft)
21.05.2022 15:52 17,8 C 24,4 C 56 % 1023,1 hPa 0,0 l/m 12,7 km/h (3 Bft) S-SW 208 2 min 5,2 UV-I 831 W/m 8,9 C 15,3 C 19,3 km/h (3 Bft)
21.05.2022 15:54 18,2 C 25,0 C 58 % 1023,0 hPa 0,0 l/m 11,9 km/h (2 Bft) W-SW 246 2 min 5,1 UV-I 786 W/m 9,8 C 16,0 C 20,9 km/h (4 Bft)
21.05.2022 15:56 18,1 C 24,4 C 54 % 1023,0 hPa 0,0 l/m 14,7 km/h (3 Bft) W 266 2 min 4,4 UV-I 734 W/m 8,6 C 15,0 C 22,5 km/h (4 Bft)
21.05.2022 15:58 17,6 C 22,8 C 54 % 1023,1 hPa 0,0 l/m 11,3 km/h (2 Bft) S-SW 213 2 min 2,8 UV-I 432 W/m 8,2 C 15,5 C 16,1 km/h (3 Bft)
21.05.2022 16:00 17,2 C 20,6 C 56 % 1023,0 hPa 0,0 l/m 11,8 km/h (2 Bft) W-SW 244 0 min 2,3 UV-I 260 W/m 8,3 C 14,9 C 19,3 km/h (3 Bft)
21.05.2022 16:02 16,9 C 20,0 C 57 % 1023,0 hPa 0,0 l/m 11,8 km/h (2 Bft) W-SW 240 2 min 3,0 UV-I 350 W/m 8,3 C 14,5 C 16,1 km/h (3 Bft)
21.05.2022 16:04 16,9 C 21,1 C 58 % 1022,9 hPa 0,0 l/m 7,9 km/h (2 Bft) W 259 2 min 3,4 UV-I 522 W/m 8,6 C 16,1 C 12,9 km/h (3 Bft)
21.05.2022 16:06 17,2 C 21,1 C 58 % 1022,9 hPa 0,0 l/m 10,7 km/h (2 Bft) SW 236 2 min 3,7 UV-I 549 W/m 8,9 C 15,3 C 17,7 km/h (3 Bft)
21.05.2022 16:08 17,1 C 20,6 C 57 % 1022,9 hPa 0,0 l/m 12,3 km/h (3 Bft) S-SW 213 2 min 3,0 UV-I 368 W/m 8,5 C 14,6 C 17,7 km/h (3 Bft)
21.05.2022 16:10 17,0 C 20,0 C 56 % 1022,8 hPa 0,0 l/m 8,5 km/h (2 Bft) W-SW 246 2 min 3,0 UV-I 391 W/m 8,2 C 16,0 C 12,9 km/h (3 Bft)
21.05.2022 16:12 17,0 C 20,0 C 57 % 1022,9 hPa 0,0 l/m 12,9 km/h (3 Bft) W-SW 258 2 min 3,4 UV-I 441 W/m 8,4 C 14,3 C 19,3 km/h (3 Bft)
21.05.2022 16:14 17,1 C 20,0 C 57 % 1022,7 hPa 0,0 l/m 13,9 km/h (3 Bft) W 263 2 min 3,4 UV-I 453 W/m 8,5 C 14,1 C 24,1 km/h (4 Bft)
21.05.2022 16:16 17,1 C 20,6 C 56 % 1022,8 hPa 0,0 l/m 17,2 km/h (3 Bft) W 259 2 min 3,5 UV-I 468 W/m 8,3 C 13,1 C 22,5 km/h (4 Bft)
21.05.2022 16:18 17,3 C 21,7 C 57 % 1022,8 hPa 0,0 l/m 10,9 km/h (2 Bft) W-SW 251 2 min 4,6 UV-I 550 W/m 8,7 C 15,3 C 19,3 km/h (3 Bft)
21.05.2022 16:20 17,8 C 23,9 C 57 % 1022,7 hPa 0,0 l/m 13,3 km/h (3 Bft) W 266 2 min 4,8 UV-I 853 W/m 9,2 C 15,1 C 19,3 km/h (3 Bft)
21.05.2022 16:22 18,1 C 24,4 C 56 % 1022,8 hPa 0,0 l/m 12,6 km/h (3 Bft) W 269 2 min 4,8 UV-I 867 W/m 9,2 C 15,6 C 20,9 km/h (4 Bft)
21.05.2022 16:24 17,8 C 22,8 C 56 % 1022,6 hPa 0,0 l/m 11,3 km/h (2 Bft) SW 214 2 min 2,8 UV-I 500 W/m 8,9 C 15,7 C 17,7 km/h (3 Bft)
21.05.2022 16:26 17,6 C 22,2 C 55 % 1022,6 hPa 0,0 l/m 11,3 km/h (2 Bft) W-SW 252 2 min 3,7 UV-I 349 W/m 8,5 C 15,5 C 17,7 km/h (3 Bft)
21.05.2022 16:28 17,8 C 24,4 C 55 % 1022,7 hPa 0,0 l/m 4,7 km/h (1 Bft) S-SW 211 2 min 4,8 UV-I 794 W/m 8,6 C 17,8 C 11,3 km/h (2 Bft)
21.05.2022 16:30 17,8 C 25,6 C 54 % 1022,6 hPa 0,0 l/m 4,5 km/h (1 Bft) W 277 2 min 4,4 UV-I 791 W/m 8,4 C 17,8 C 8,0 km/h (2 Bft)
21.05.2022 16:32 18,1 C 26,1 C 55 % 1022,6 hPa 0,0 l/m 10,2 km/h (2 Bft) SW 217 2 min 4,8 UV-I 815 W/m 8,9 C 16,5 C 17,7 km/h (3 Bft)
21.05.2022 16:34 18,1 C 25,0 C 53 % 1022,5 hPa 0,0 l/m 11,7 km/h (2 Bft) SW 214 2 min 4,2 UV-I 760 W/m 8,4 C 15,9 C 20,9 km/h (4 Bft)
21.05.2022 16:36 17,8 C 24,4 C 52 % 1022,5 hPa 0,0 l/m 11,2 km/h (2 Bft) SW 216 2 min 4,4 UV-I 762 W/m 7,8 C 15,8 C 17,7 km/h (3 Bft)
21.05.2022 16:38 17,8 C 24,4 C 53 % 1022,5 hPa 0,0 l/m 8,4 km/h (2 Bft) SW 232 2 min 4,1 UV-I 722 W/m 8,1 C 16,9 C 12,9 km/h (3 Bft)
21.05.2022 16:40 17,9 C 24,4 C 54 % 1022,6 hPa 0,0 l/m 6,1 km/h (2 Bft) W-SW 238 2 min 4,2 UV-I 740 W/m 8,5 C 17,9 C 8,0 km/h (2 Bft)
21.05.2022 16:42 18,1 C 25,6 C 54 % 1022,5 hPa 0,0 l/m 11,4 km/h (2 Bft) W 277 2 min 4,3 UV-I 751 W/m 8,6 C 16,0 C 17,7 km/h (3 Bft)
21.05.2022 16:44 18,2 C 26,1 C 55 % 1022,6 hPa 0,0 l/m 7,2 km/h (2 Bft) SW 216 2 min 4,1 UV-I 710 W/m 9,0 C 17,8 C 12,9 km/h (3 Bft)
21.05.2022 16:46 18,1 C 25,0 C 55 % 1022,5 hPa 0,0 l/m 14,7 km/h (3 Bft) W 269 2 min 3,8 UV-I 614 W/m 8,9 C 15,0 C 22,5 km/h (4 Bft)
21.05.2022 16:48 18,1 C 25,0 C 54 % 1022,5 hPa 0,0 l/m 10,1 km/h (2 Bft) W-SW 248 2 min 4,0 UV-I 584 W/m 8,6 C 16,5 C 17,7 km/h (3 Bft)
21.05.2022 16:50 18,2 C 25,6 C 53 % 1022,6 hPa 0,0 l/m 9,3 km/h (2 Bft) W-SW 237 2 min 4,1 UV-I 712 W/m 8,5 C 16,9 C 16,1 km/h (3 Bft)
21.05.2022 16:52 18,1 C 25,6 C 55 % 1022,5 hPa 0,0 l/m 6,6 km/h (2 Bft) S-SW 200 2 min 4,1 UV-I 738 W/m 8,9 C 18,0 C 11,3 km/h (2 Bft)
21.05.2022 16:54 17,8 C 25,6 C 53 % 1022,5 hPa 0,0 l/m 13,3 km/h (3 Bft) S-SW 203 2 min 4,2 UV-I 764 W/m 8,1 C 15,1 C 20,9 km/h (4 Bft)
21.05.2022 16:56 17,7 C 25,6 C 54 % 1022,5 hPa 0,0 l/m 12,0 km/h (2 Bft) S-SW 200 2 min 4,0 UV-I 758 W/m 8,3 C 15,4 C 17,7 km/h (3 Bft)
21.05.2022 16:58 17,8 C 25,0 C 54 % 1022,4 hPa 0,0 l/m 12,9 km/h (3 Bft) W-SW 242 2 min 3,7 UV-I 731 W/m 8,4 C 15,2 C 19,3 km/h (3 Bft)
21.05.2022 17:00 17,9 C 25,0 C 55 % 1022,4 hPa 0,0 l/m 7,7 km/h (2 Bft) W 262 2 min 4,0 UV-I 736 W/m 8,7 C 17,3 C 12,9 km/h (3 Bft)
21.05.2022 17:02 18,0 C 25,6 C 54 % 1022,4 hPa 0,0 l/m 6,8 km/h (2 Bft) W-SW 242 2 min 3,8 UV-I 740 W/m 8,6 C 17,8 C 11,3 km/h (2 Bft)
21.05.2022 17:04 18,2 C 25,6 C 55 % 1022,4 hPa 0,0 l/m 12,3 km/h (3 Bft) W-NW 282 2 min 3,9 UV-I 737 W/m 9,0 C 15,9 C 25,7 km/h (4 Bft)
21.05.2022 17:06 18,3 C 25,6 C 55 % 1022,4 hPa 0,0 l/m 16,3 km/h (3 Bft) SW 230 2 min 3,6 UV-I 728 W/m 9,1 C 14,9 C 25,7 km/h (4 Bft)
21.05.2022 17:08 18,1 C 22,8 C 53 % 1022,5 hPa 0,0 l/m 12,6 km/h (3 Bft) SW 222 2 min 2,2 UV-I 495 W/m 8,4 C 15,6 C 16,1 km/h (3 Bft)
21.05.2022 17:10 17,4 C 20,0 C 53 % 1022,4 hPa 0,0 l/m 11,3 km/h (2 Bft) S-SW 194 0 min 1,9 UV-I 180 W/m 7,7 C 15,3 C 16,1 km/h (3 Bft)
21.05.2022 17:12 17,0 C 20,0 C 55 % 1022,4 hPa 0,0 l/m 8,3 km/h (2 Bft) W 269 0 min 2,4 UV-I 250 W/m 7,9 C 16,1 C 14,5 km/h (3 Bft)
21.05.2022 17:14 17,4 C 23,9 C 57 % 1022,5 hPa 0,0 l/m 5,5 km/h (1 Bft) SW 227 2 min 3,7 UV-I 497 W/m 8,8 C 17,4 C 9,7 km/h (2 Bft)
21.05.2022 17:16 17,7 C 23,3 C 55 % 1022,4 hPa 0,0 l/m 10,3 km/h (2 Bft) W-SW 257 2 min 2,7 UV-I 773 W/m 8,5 C 16,0 C 20,9 km/h (4 Bft)
21.05.2022 17:18 17,9 C 24,4 C 54 % 1022,5 hPa 0,0 l/m 9,9 km/h (2 Bft) S 171 2 min 3,3 UV-I 594 W/m 8,5 C 16,4 C 16,1 km/h (3 Bft)
21.05.2022 17:20 18,1 C 24,4 C 54 % 1022,2 hPa 0,0 l/m 7,8 km/h (2 Bft) W-SW 243 2 min 3,5 UV-I 680 W/m 8,6 C 17,4 C 11,3 km/h (2 Bft)
21.05.2022 17:22 18,3 C 25,6 C 55 % 1022,4 hPa 0,0 l/m 3,6 km/h (1 Bft) SW 217 2 min 3,6 UV-I 724 W/m 9,1 C 18,3 C 8,0 km/h (2 Bft)
21.05.2022 17:24 18,3 C 26,7 C 53 % 1022,4 hPa 0,0 l/m 9,9 km/h (2 Bft) SW 214 2 min 3,2 UV-I 710 W/m 8,6 C 16,8 C 19,3 km/h (3 Bft)
21.05.2022 17:26 18,3 C 25,0 C 51 % 1022,2 hPa 0,0 l/m 14,8 km/h (3 Bft) W 266 2 min 2,8 UV-I 471 W/m 8,0 C 15,2 C 24,1 km/h (4 Bft)
21.05.2022 17:28 18,2 C 24,4 C 52 % 1022,2 hPa 0,0 l/m 10,4 km/h (2 Bft) S 185 2 min 3,2 UV-I 576 W/m 8,2 C 16,5 C 16,1 km/h (3 Bft)
21.05.2022 17:30 18,2 C 25,0 C 53 % 1022,4 hPa 0,0 l/m 6,7 km/h (2 Bft) SW 233 2 min 3,2 UV-I 605 W/m 8,5 C 18,1 C 11,3 km/h (2 Bft)
21.05.2022 17:32 18,1 C 25,6 C 53 % 1022,2 hPa 0,0 l/m 7,2 km/h (2 Bft) W 274 2 min 3,1 UV-I 588 W/m 8,4 C 17,7 C 11,3 km/h (2 Bft)
21.05.2022 17:34 18,2 C 25,6 C 56 % 1022,2 hPa 0,0 l/m 7,6 km/h (2 Bft) W 275 2 min 2,9 UV-I 568 W/m 9,3 C 17,6 C 16,1 km/h (3 Bft)
21.05.2022 17:36 18,2 C 23,9 C 53 % 1022,2 hPa 0,0 l/m 11,6 km/h (2 Bft) W-NW 284 2 min 2,4 UV-I 483 W/m 8,5 C 16,1 C 16,1 km/h (3 Bft)
21.05.2022 17:38 18,1 C 23,9 C 53 % 1022,2 hPa 0,0 l/m 13,2 km/h (3 Bft) W-SW 242 2 min 2,8 UV-I 512 W/m 8,4 C 15,5 C 19,3 km/h (3 Bft)
21.05.2022 17:40 17,9 C 23,9 C 54 % 1022,2 hPa 0,0 l/m 15,5 km/h (3 Bft) SW 231 2 min 2,6 UV-I 661 W/m 8,5 C 14,6 C 19,3 km/h (3 Bft)
21.05.2022 17:42 17,8 C 23,3 C 54 % 1022,1 hPa 0,0 l/m 12,9 km/h (3 Bft) W-SW 250 2 min 2,5 UV-I 661 W/m 8,4 C 15,2 C 19,3 km/h (3 Bft)
21.05.2022 17:44 18,0 C 25,0 C 55 % 1022,1 hPa 0,0 l/m 6,8 km/h (2 Bft) S-SW 192 2 min 3,0 UV-I 611 W/m 8,8 C 17,8 C 12,9 km/h (3 Bft)
21.05.2022 17:46 18,1 C 25,0 C 54 % 1022,1 hPa 0,0 l/m 7,4 km/h (2 Bft) SW 234 2 min 2,6 UV-I 577 W/m 8,6 C 17,6 C 12,9 km/h (3 Bft)
21.05.2022 17:48 18,1 C 24,4 C 54 % 1022,0 hPa 0,0 l/m 12,2 km/h (2 Bft) W-SW 238 2 min 2,7 UV-I 570 W/m 8,6 C 15,8 C 19,3 km/h (3 Bft)
21.05.2022 17:50 18,0 C 24,4 C 53 % 1022,1 hPa 0,0 l/m 13,6 km/h (3 Bft) S-SW 209 2 min 2,7 UV-I 569 W/m 8,3 C 15,2 C 20,9 km/h (4 Bft)
21.05.2022 17:52 17,8 C 24,4 C 54 % 1022,1 hPa 0,0 l/m 9,7 km/h (2 Bft) W-NW 287 2 min 2,7 UV-I 580 W/m 8,4 C 16,3 C 17,7 km/h (3 Bft)
21.05.2022 17:54 17,8 C 23,9 C 55 % 1022,1 hPa 0,0 l/m 10,2 km/h (2 Bft) SW 225 2 min 2,4 UV-I 478 W/m 8,6 C 16,1 C 16,1 km/h (3 Bft)
21.05.2022 17:56 17,9 C 23,3 C 54 % 1021,9 hPa 0,0 l/m 5,1 km/h (1 Bft) W-SW 243 0 min 1,8 UV-I 311 W/m 8,5 C 17,9 C 11,3 km/h (2 Bft)
21.05.2022 17:58 17,8 C 22,8 C 55 % 1021,9 hPa 0,0 l/m 9,4 km/h (2 Bft) SW 234 0 min 1,8 UV-I 323 W/m 8,6 C 16,4 C 16,1 km/h (3 Bft)
21.05.2022 18:00 17,8 C 22,8 C 56 % 1021,9 hPa 0,0 l/m 6,6 km/h (2 Bft) W-SW 256 0 min 2,2 UV-I 315 W/m 8,9 C 17,7 C 12,9 km/h (3 Bft)
21.05.2022 18:02 17,6 C 22,2 C 55 % 1021,9 hPa 0,0 l/m 10,4 km/h (2 Bft) S 183 0 min 1,9 UV-I 300 W/m 8,5 C 15,8 C 20,9 km/h (4 Bft)
21.05.2022 18:04 17,7 C 21,7 C 56 % 1021,8 hPa 0,0 l/m 9,8 km/h (2 Bft) S-SW 205 2 min 2,1 UV-I 373 W/m 8,8 C 16,2 C 19,3 km/h (3 Bft)
21.05.2022 18:06 17,7 C 22,8 C 56 % 1021,9 hPa 0,0 l/m 9,8 km/h (2 Bft) S-SW 211 2 min 2,1 UV-I 496 W/m 8,8 C 16,2 C 17,7 km/h (3 Bft)
21.05.2022 18:08 17,6 C 22,2 C 55 % 1021,8 hPa 0,0 l/m 9,9 km/h (2 Bft) S 188 2 min 2,0 UV-I 386 W/m 8,5 C 16,0 C 17,7 km/h (3 Bft)
21.05.2022 18:10 17,5 C 20,6 C 55 % 1021,9 hPa 0,0 l/m 14,0 km/h (3 Bft) SW 219 0 min 1,8 UV-I 337 W/m 8,4 C 14,5 C 19,3 km/h (3 Bft)
21.05.2022 18:12 17,3 C 20,0 C 55 % 1021,8 hPa 0,0 l/m 11,1 km/h (2 Bft) SW 223 0 min 1,7 UV-I 313 W/m 8,2 C 15,2 C 16,1 km/h (3 Bft)
21.05.2022 18:14 17,3 C 20,0 C 56 % 1021,8 hPa 0,0 l/m 8,6 km/h (2 Bft) S-SW 205 0 min 1,8 UV-I 324 W/m 8,4 C 16,2 C 17,7 km/h (3 Bft)
21.05.2022 18:16 17,3 C 20,6 C 56 % 1021,7 hPa 0,0 l/m 10,7 km/h (2 Bft) SW 236 0 min 1,8 UV-I 340 W/m 8,4 C 15,4 C 17,7 km/h (3 Bft)
21.05.2022 18:18 17,3 C 20,6 C 56 % 1021,8 hPa 0,0 l/m 7,4 km/h (2 Bft) SW 223 0 min 1,8 UV-I 330 W/m 8,4 C 16,8 C 14,5 km/h (3 Bft)
21.05.2022 18:20 17,4 C 21,1 C 58 % 1021,7 hPa 0,0 l/m 6,1 km/h (2 Bft) SW 235 0 min 1,7 UV-I 342 W/m 9,1 C 17,4 C 11,3 km/h (2 Bft)
21.05.2022 18:22 17,4 C 21,7 C 56 % 1021,7 hPa 0,0 l/m 6,1 km/h (2 Bft) SW 232 2 min 1,9 UV-I 383 W/m 8,5 C 17,4 C 11,3 km/h (2 Bft)
21.05.2022 18:24 17,4 C 22,2 C 56 % 1021,6 hPa 0,0 l/m 8,3 km/h (2 Bft) S 184 2 min 1,9 UV-I 409 W/m 8,5 C 16,5 C 11,3 km/h (2 Bft)
21.05.2022 18:26 17,3 C 21,1 C 55 % 1021,7 hPa 0,0 l/m 10,5 km/h (2 Bft) SW 221 0 min 1,6 UV-I 285 W/m 8,2 C 15,5 C 16,1 km/h (3 Bft)
21.05.2022 18:28 17,2 C 20,0 C 57 % 1021,7 hPa 0,0 l/m 10,2 km/h (2 Bft) W 261 0 min 1,5 UV-I 265 W/m 8,6 C 15,5 C 16,1 km/h (3 Bft)
21.05.2022 18:30 17,2 C 20,0 C 56 % 1021,7 hPa 0,0 l/m 8,4 km/h (2 Bft) W-SW 245 0 min 1,5 UV-I 315 W/m 8,3 C 16,2 C 12,9 km/h (3 Bft)
21.05.2022 18:32 17,2 C 19,4 C 56 % 1021,6 hPa 0,0 l/m 10,3 km/h (2 Bft) W 260 2 min 1,5 UV-I 383 W/m 8,3 C 15,4 C 19,3 km/h (3 Bft)
21.05.2022 18:34 17,1 C 18,9 C 56 % 1021,6 hPa 0,0 l/m 9,8 km/h (2 Bft) W-NW 293 0 min 1,2 UV-I 193 W/m 8,3 C 15,5 C 16,1 km/h (3 Bft)
21.05.2022 18:36 17,0 C 18,3 C 57 % 1021,6 hPa 0,0 l/m 9,1 km/h (2 Bft) W 269 0 min 1,1 UV-I 154 W/m 8,4 C 15,7 C 14,5 km/h (3 Bft)
21.05.2022 18:38 16,8 C 17,8 C 56 % 1021,6 hPa 0,0 l/m 8,9 km/h (2 Bft) SW 234 0 min 1,0 UV-I 139 W/m 8,0 C 15,6 C 14,5 km/h (3 Bft)
21.05.2022 18:40 16,7 C 17,8 C 57 % 1021,5 hPa 0,0 l/m 11,8 km/h (2 Bft) W-SW 250 0 min 1,0 UV-I 144 W/m 8,1 C 14,3 C 17,7 km/h (3 Bft)
21.05.2022 18:42 16,6 C 17,8 C 57 % 1021,5 hPa 0,0 l/m 8,3 km/h (2 Bft) SW 231 0 min 1,0 UV-I 148 W/m 8,0 C 15,6 C 16,1 km/h (3 Bft)
21.05.2022 18:44 16,6 C 17,8 C 57 % 1021,5 hPa 0,0 l/m 8,4 km/h (2 Bft) S-SW 210 0 min 1,0 UV-I 163 W/m 8,0 C 15,6 C 16,1 km/h (3 Bft)
21.05.2022 18:46 16,6 C 17,2 C 58 % 1021,5 hPa 0,0 l/m 8,5 km/h (2 Bft) SW 223 0 min 0,9 UV-I 162 W/m 8,3 C 15,5 C 12,9 km/h (3 Bft)
21.05.2022 18:48 16,6 C 17,2 C 59 % 1021,5 hPa 0,0 l/m 6,2 km/h (2 Bft) W-SW 252 0 min 0,9 UV-I 161 W/m 8,6 C 16,6 C 14,5 km/h (3 Bft)
21.05.2022 18:50 16,6 C 17,8 C 59 % 1021,5 hPa 0,0 l/m 9,5 km/h (2 Bft) W-SW 256 0 min 0,9 UV-I 163 W/m 8,6 C 15,1 C 14,5 km/h (3 Bft)
21.05.2022 18:52 16,6 C 17,2 C 58 % 1021,5 hPa 0,0 l/m 11,7 km/h (2 Bft) W 273 0 min 0,8 UV-I 159 W/m 8,3 C 14,2 C 17,7 km/h (3 Bft)
21.05.2022 18:54 16,6 C 17,8 C 60 % 1021,4 hPa 0,0 l/m 6,1 km/h (2 Bft) W-SW 244 0 min 1,0 UV-I 216 W/m 8,8 C 16,6 C 12,9 km/h (3 Bft)
21.05.2022 18:56 16,7 C 18,3 C 60 % 1021,4 hPa 0,0 l/m 6,9 km/h (2 Bft) W 261 0 min 1,0 UV-I 253 W/m 8,9 C 16,4 C 11,3 km/h (2 Bft)
21.05.2022 18:58 16,7 C 18,3 C 60 % 1021,5 hPa 0,0 l/m 6,4 km/h (2 Bft) W-SW 251 0 min 1,0 UV-I 211 W/m 8,9 C 16,7 C 11,3 km/h (2 Bft)
21.05.2022 19:00 16,7 C 18,3 C 59 % 1021,5 hPa 0,0 l/m 9,4 km/h (2 Bft) W 269 0 min 1,0 UV-I 197 W/m 8,6 C 15,2 C 14,5 km/h (3 Bft)
21.05.2022 19:02 16,6 C 17,8 C 59 % 1021,4 hPa 0,0 l/m 6,6 km/h (2 Bft) W-SW 245 0 min 0,9 UV-I 163 W/m 8,6 C 16,5 C 12,9 km/h (3 Bft)
21.05.2022 19:04 16,6 C 18,3 C 59 % 1021,4 hPa 0,0 l/m 4,8 km/h (1 Bft) SW 216 0 min 0,9 UV-I 150 W/m 8,6 C 16,6 C 8,0 km/h (2 Bft)
21.05.2022 19:06 16,6 C 18,3 C 59 % 1021,4 hPa 0,0 l/m 7,7 km/h (2 Bft) W 279 0 min 0,8 UV-I 177 W/m 8,6 C 15,9 C 12,9 km/h (3 Bft)
21.05.2022 19:08 16,5 C 18,3 C 59 % 1021,4 hPa 0,0 l/m 4,8 km/h (1 Bft) W-SW 245 0 min 0,8 UV-I 153 W/m 8,5 C 16,5 C 6,4 km/h (2 Bft)
21.05.2022 19:10 16,4 C 18,3 C 59 % 1021,3 hPa 0,0 l/m 5,1 km/h (1 Bft) W-SW 249 0 min 0,8 UV-I 172 W/m 8,4 C 16,4 C 8,0 km/h (2 Bft)
21.05.2022 19:12 16,4 C 18,3 C 60 % 1021,4 hPa 0,0 l/m 6,9 km/h (2 Bft) SW 218 0 min 0,8 UV-I 163 W/m 8,6 C 16,1 C 9,7 km/h (2 Bft)
21.05.2022 19:14 16,4 C 18,3 C 59 % 1021,3 hPa 0,0 l/m 4,8 km/h (1 Bft) SW 228 0 min 0,7 UV-I 137 W/m 8,4 C 16,4 C 8,0 km/h (2 Bft)
21.05.2022 19:16 16,3 C 17,8 C 60 % 1021,2 hPa 0,0 l/m 5,8 km/h (2 Bft) W-SW 257 0 min 0,7 UV-I 116 W/m 8,5 C 16,3 C 12,9 km/h (3 Bft)
21.05.2022 19:18 16,2 C 17,2 C 61 % 1021,3 hPa 0,0 l/m 5,7 km/h (1 Bft) SW 229 0 min 0,7 UV-I 114 W/m 8,7 C 16,2 C 11,3 km/h (2 Bft)
21.05.2022 19:20 16,2 C 16,7 C 61 % 1021,3 hPa 0,0 l/m 4,3 km/h (1 Bft) SW 214 0 min 0,6 UV-I 118 W/m 8,7 C 16,2 C 8,0 km/h (2 Bft)
21.05.2022 19:22 16,2 C 16,7 C 62 % 1021,3 hPa 0,0 l/m 2,6 km/h (1 Bft) SW 215 0 min 0,6 UV-I 120 W/m 8,9 C 16,2 C 6,4 km/h (2 Bft)
21.05.2022 19:24 16,1 C 16,7 C 62 % 1021,4 hPa 0,0 l/m 4,9 km/h (1 Bft) W-SW 238 0 min 0,6 UV-I 125 W/m 8,8 C 16,1 C 8,0 km/h (2 Bft)
21.05.2022 19:26 16,1 C 16,7 C 61 % 1021,3 hPa 0,0 l/m 8,0 km/h (2 Bft) SW 233 0 min 0,6 UV-I 124 W/m 8,6 C 15,3 C 12,9 km/h (3 Bft)
21.05.2022 19:28 16,1 C 17,2 C 61 % 1021,3 hPa 0,0 l/m 6,8 km/h (2 Bft) SW 225 0 min 0,7 UV-I 195 W/m 8,6 C 15,9 C 12,9 km/h (3 Bft)
21.05.2022 19:30 16,1 C 17,8 C 61 % 1021,3 hPa 0,0 l/m 5,6 km/h (1 Bft) W 270 0 min 0,7 UV-I 233 W/m 8,6 C 16,1 C 11,3 km/h (2 Bft)
21.05.2022 19:32 16,2 C 18,3 C 61 % 1021,2 hPa 0,0 l/m 6,8 km/h (2 Bft) W-SW 254 0 min 0,7 UV-I 259 W/m 8,7 C 16,0 C 12,9 km/h (3 Bft)
21.05.2022 19:34 16,3 C 18,3 C 61 % 1021,2 hPa 0,0 l/m 7,2 km/h (2 Bft) W-SW 250 0 min 0,7 UV-I 261 W/m 8,8 C 15,9 C 11,3 km/h (2 Bft)
21.05.2022 19:36 16,4 C 19,4 C 61 % 1021,2 hPa 0,0 l/m 4,6 km/h (1 Bft) W-SW 238 0 min 0,8 UV-I 277 W/m 8,9 C 16,4 C 8,0 km/h (2 Bft)
21.05.2022 19:38 16,4 C 19,4 C 60 % 1021,2 hPa 0,0 l/m 6,9 km/h (2 Bft) W-SW 250 0 min 0,7 UV-I 193 W/m 8,6 C 16,1 C 11,3 km/h (2 Bft)
21.05.2022 19:40 16,4 C 18,9 C 61 % 1021,2 hPa 0,0 l/m 4,4 km/h (1 Bft) SW 234 0 min 0,6 UV-I 150 W/m 8,9 C 16,4 C 6,4 km/h (2 Bft)
21.05.2022 19:42 16,4 C 18,3 C 61 % 1021,2 hPa 0,0 l/m 5,1 km/h (1 Bft) W 261 0 min 0,6 UV-I 157 W/m 8,9 C 16,4 C 6,4 km/h (2 Bft)
21.05.2022 19:44 16,3 C 18,9 C 61 % 1021,1 hPa 0,0 l/m 5,4 km/h (1 Bft) W-SW 253 0 min 0,6 UV-I 184 W/m 8,8 C 16,3 C 9,7 km/h (2 Bft)
21.05.2022 19:46 16,3 C 19,4 C 61 % 1021,3 hPa 0,0 l/m 3,4 km/h (1 Bft) W 259 0 min 0,6 UV-I 192 W/m 8,8 C 16,3 C 6,4 km/h (2 Bft)
21.05.2022 19:48 16,3 C 19,4 C 62 % 1021,2 hPa 0,0 l/m 3,6 km/h (1 Bft) W-SW 254 0 min 0,6 UV-I 172 W/m 9,0 C 16,3 C 6,4 km/h (2 Bft)
21.05.2022 19:50 16,3 C 19,4 C 62 % 1021,3 hPa 0,0 l/m 4,2 km/h (1 Bft) W 259 0 min 0,5 UV-I 159 W/m 9,0 C 16,3 C 6,4 km/h (2 Bft)
21.05.2022 19:52 16,2 C 18,3 C 61 % 1021,2 hPa 0,0 l/m 10,4 km/h (2 Bft) W-SW 241 0 min 0,5 UV-I 166 W/m 8,7 C 14,3 C 14,5 km/h (3 Bft)
21.05.2022 19:54 16,2 C 17,8 C 61 % 1021,2 hPa 0,0 l/m 7,0 km/h (2 Bft) W-SW 240 0 min 0,5 UV-I 161 W/m 8,7 C 15,9 C 11,3 km/h (2 Bft)
21.05.2022 19:56 16,1 C 17,2 C 62 % 1021,3 hPa 0,0 l/m 6,4 km/h (2 Bft) W 263 0 min 0,2 UV-I 116 W/m 8,8 C 16,1 C 11,3 km/h (2 Bft)
21.05.2022 19:58 15,9 C 16,7 C 62 % 1021,3 hPa 0,0 l/m 6,3 km/h (2 Bft) W-SW 251 0 min 0,0 UV-I 100 W/m 8,6 C 15,9 C 12,9 km/h (3 Bft)
21.05.2022 20:00 15,9 C 16,1 C 62 % 1021,3 hPa 0,0 l/m 7,1 km/h (2 Bft) W-SW 253 0 min 0,4 UV-I 154 W/m 8,6 C 15,5 C 11,3 km/h (2 Bft)
21.05.2022 20:02 15,8 C 16,1 C 62 % 1021,2 hPa 0,0 l/m 7,6 km/h (2 Bft) W 267 0 min 0,0 UV-I 115 W/m 8,5 C 15,1 C 12,9 km/h (3 Bft)
21.05.2022 20:04 15,8 C 15,6 C 62 % 1021,3 hPa 0,0 l/m 7,3 km/h (2 Bft) W-NW 284 0 min 0,0 UV-I 117 W/m 8,5 C 15,3 C 12,9 km/h (3 Bft)
21.05.2022 20:06 15,7 C 15,6 C 62 % 1021,2 hPa 0,0 l/m 7,2 km/h (2 Bft) SW 224 0 min 0,0 UV-I 123 W/m 8,4 C 15,3 C 11,3 km/h (2 Bft)
21.05.2022 20:08 15,7 C 15,6 C 63 % 1021,3 hPa 0,0 l/m 6,1 km/h (2 Bft) W-SW 248 0 min 0,0 UV-I 102 W/m 8,7 C 15,7 C 9,7 km/h (2 Bft)
21.05.2022 20:10 15,6 C 15,6 C 63 % 1021,3 hPa 0,0 l/m 5,9 km/h (2 Bft) W 262 0 min 0,0 UV-I 70 W/m 8,6 C 15,6 C 9,7 km/h (2 Bft)
21.05.2022 20:12 15,6 C 15,0 C 62 % 1021,3 hPa 0,0 l/m 6,9 km/h (2 Bft) W 263 0 min 0,0 UV-I 66 W/m 8,3 C 15,3 C 11,3 km/h (2 Bft)
21.05.2022 20:14 15,5 C 15,0 C 63 % 1021,2 hPa 0,0 l/m 5,8 km/h (2 Bft) W 273 0 min 0,0 UV-I 61 W/m 8,5 C 15,5 C 11,3 km/h (2 Bft)
21.05.2022 20:16 15,4 C 15,0 C 63 % 1021,3 hPa 0,0 l/m 3,0 km/h (1 Bft) W 272 0 min 0,0 UV-I 56 W/m 8,4 C 15,4 C 4,8 km/h (1 Bft)
21.05.2022 20:18 15,3 C 15,0 C 63 % 1021,3 hPa 0,0 l/m 3,4 km/h (1 Bft) W 272 0 min 0,0 UV-I 56 W/m 8,3 C 15,3 C 4,8 km/h (1 Bft)
21.05.2022 20:20 15,3 C 15,0 C 64 % 1021,3 hPa 0,0 l/m 3,6 km/h (1 Bft) W-SW 257 0 min 0,0 UV-I 54 W/m 8,5 C 15,3 C 6,4 km/h (2 Bft)
21.05.2022 20:22 15,2 C 14,4 C 64 % 1021,3 hPa 0,0 l/m 4,3 km/h (1 Bft) W-SW 252 0 min 0,0 UV-I 50 W/m 8,4 C 15,2 C 8,0 km/h (2 Bft)
21.05.2022 20:24 15,1 C 14,4 C 65 % 1021,3 hPa 0,0 l/m 3,1 km/h (1 Bft) W 267 0 min 0,0 UV-I 47 W/m 8,6 C 15,1 C 9,7 km/h (2 Bft)
21.05.2022 20:26 15,1 C 14,4 C 64 % 1021,4 hPa 0,0 l/m 6,6 km/h (2 Bft) W 259 0 min 0,0 UV-I 48 W/m 8,3 C 15,0 C 9,7 km/h (2 Bft)
21.05.2022 20:28 15,1 C 14,4 C 64 % 1021,4 hPa 0,0 l/m 5,0 km/h (1 Bft) W-SW 243 0 min 0,0 UV-I 46 W/m 8,3 C 15,1 C 9,7 km/h (2 Bft)
21.05.2022 20:30 15,1 C 14,4 C 64 % 1021,4 hPa 0,0 l/m 6,0 km/h (2 Bft) W-SW 254 0 min 0,0 UV-I 45 W/m 8,3 C 15,1 C 11,3 km/h (2 Bft)
21.05.2022 20:32 15,0 C 14,4 C 64 % 1021,5 hPa 0,0 l/m 5,7 km/h (1 Bft) W 262 0 min 0,0 UV-I 43 W/m 8,2 C 15,0 C 11,3 km/h (2 Bft)
21.05.2022 20:34 14,9 C 13,9 C 65 % 1021,5 hPa 0,0 l/m 4,1 km/h (1 Bft) W 261 0 min 0,0 UV-I 40 W/m 8,4 C 14,9 C 6,4 km/h (2 Bft)
21.05.2022 20:36 14,8 C 13,9 C 65 % 1021,4 hPa 0,0 l/m 4,6 km/h (1 Bft) W 260 0 min 0,0 UV-I 37 W/m 8,3 C 14,8 C 6,4 km/h (2 Bft)
21.05.2022 20:38 14,7 C 13,9 C 65 % 1021,4 hPa 0,0 l/m 3,4 km/h (1 Bft) W 260 0 min 0,0 UV-I 33 W/m 8,2 C 14,7 C 4,8 km/h (1 Bft)
21.05.2022 20:40 14,7 C 13,3 C 66 % 1021,5 hPa 0,0 l/m 3,7 km/h (1 Bft) W 259 0 min 0,0 UV-I 29 W/m 8,4 C 14,7 C 6,4 km/h (2 Bft)
21.05.2022 20:42 14,7 C 13,3 C 65 % 1021,4 hPa 0,0 l/m 4,4 km/h (1 Bft) W 260 0 min 0,0 UV-I 26 W/m 8,2 C 14,7 C 6,4 km/h (2 Bft)
21.05.2022 20:44 14,6 C 13,3 C 66 % 1021,4 hPa 0,0 l/m 4,2 km/h (1 Bft) W-SW 258 0 min 0,0 UV-I 25 W/m 8,3 C 14,6 C 6,4 km/h (2 Bft)
21.05.2022 20:46 14,6 C 12,8 C 65 % 1021,4 hPa 0,0 l/m 3,7 km/h (1 Bft) W-SW 258 0 min 0,0 UV-I 23 W/m 8,1 C 14,6 C 6,4 km/h (2 Bft)
21.05.2022 20:48 14,4 C 12,8 C 66 % 1021,4 hPa 0,0 l/m 2,8 km/h (1 Bft) W-SW 258 0 min 0,0 UV-I 22 W/m 8,1 C 14,4 C 4,8 km/h (1 Bft)
21.05.2022 20:50 14,4 C 12,2 C 66 % 1021,5 hPa 0,0 l/m 3,5 km/h (1 Bft) W-SW 258 0 min 0,0 UV-I 21 W/m 8,1 C 14,4 C 6,4 km/h (2 Bft)
21.05.2022 20:52 14,4 C 12,2 C 66 % 1021,4 hPa 0,0 l/m 2,1 km/h (1 Bft) W-SW 258 0 min 0,0 UV-I 19 W/m 8,1 C 14,4 C 4,8 km/h (1 Bft)
21.05.2022 20:54 14,3 C 12,2 C 66 % 1021,4 hPa 0,0 l/m 2,4 km/h (1 Bft) W-SW 258 0 min 0,0 UV-I 18 W/m 8,0 C 14,3 C 4,8 km/h (1 Bft)
21.05.2022 20:56 14,3 C 11,7 C 66 % 1021,4 hPa 0,0 l/m 2,8 km/h (1 Bft) W-SW 258 0 min 0,0 UV-I 18 W/m 8,0 C 14,3 C 4,8 km/h (1 Bft)
21.05.2022 20:58 14,2 C 11,7 C 66 % 1021,4 hPa 0,0 l/m 4,7 km/h (1 Bft) W 261 0 min 0,0 UV-I 16 W/m 7,9 C 14,2 C 6,4 km/h (2 Bft)
21.05.2022 21:00 14,1 C 11,7 C 66 % 1021,4 hPa 0,0 l/m 3,7 km/h (1 Bft) W 261 0 min 0,0 UV-I 16 W/m 7,8 C 14,1 C 6,4 km/h (2 Bft)
21.05.2022 21:02 14,1 C 11,7 C 67 % 1021,4 hPa 0,0 l/m 3,6 km/h (1 Bft) W 261 0 min 0,0 UV-I 14 W/m 8,1 C 14,1 C 6,4 km/h (2 Bft)
21.05.2022 21:04 13,9 C 11,1 C 67 % 1021,4 hPa 0,0 l/m 3,7 km/h (1 Bft) W 261 0 min 0,0 UV-I 13 W/m 7,9 C 13,9 C 4,8 km/h (1 Bft)
21.05.2022 21:06 13,9 C 11,1 C 68 % 1021,5 hPa 0,0 l/m 2,7 km/h (1 Bft) W 261 0 min 0,0 UV-I 12 W/m 8,1 C 13,9 C 4,8 km/h (1 Bft)
21.05.2022 21:08 13,7 C 11,1 C 69 % 1021,5 hPa 0,0 l/m 1,3 km/h (1 Bft) W 261 0 min 0,0 UV-I 11 W/m 8,1 C 13,7 C 3,2 km/h (1 Bft)
21.05.2022 21:10 13,4 C 10,6 C 70 % 1021,4 hPa 0,0 l/m 2,0 km/h (1 Bft) W 261 0 min 0,0 UV-I 10 W/m 8,0 C 13,4 C 3,2 km/h (1 Bft)
21.05.2022 21:12 13,2 C 10,6 C 72 % 1021,6 hPa 0,0 l/m 1,4 km/h (1 Bft) W 261 0 min 0,0 UV-I 9 W/m 8,3 C 13,2 C 3,2 km/h (1 Bft)
21.05.2022 21:14 13,0 C 10,6 C 72 % 1021,5 hPa 0,0 l/m 0,7 km/h (0 Bft) W 261 0 min 0,0 UV-I 9 W/m 8,1 C 13,0 C 1,6 km/h (1 Bft)
21.05.2022 21:16 12,8 C 10,6 C 73 % 1021,5 hPa 0,0 l/m 0,2 km/h (0 Bft) W 261 0 min 0,0 UV-I 7 W/m 8,1 C 12,8 C 1,6 km/h (1 Bft)
21.05.2022 21:18 12,8 C 10,6 C 73 % 1021,5 hPa 0,0 l/m 0,1 km/h (0 Bft) W 261 0 min 0,0 UV-I 5 W/m 8,1 C 12,8 C 1,6 km/h (1 Bft)
21.05.2022 21:20 12,6 C 10,0 C 74 % 1021,4 hPa 0,0 l/m 0,9 km/h (0 Bft) W 261 0 min 0,0 UV-I 5 W/m 8,1 C 12,6 C 3,2 km/h (1 Bft)
21.05.2022 21:22 12,6 C 10,0 C 74 % 1021,5 hPa 0,0 l/m 1,3 km/h (1 Bft) W 261 0 min 0,0 UV-I 0 W/m 8,1 C 12,6 C 3,2 km/h (1 Bft)
21.05.2022 21:24 12,6 C 10,0 C 74 % 1021,5 hPa 0,0 l/m 0,1 km/h (0 Bft) W 261 0 min 0,0 UV-I 0 W/m 8,1 C 12,6 C 1,6 km/h (1 Bft)
21.05.2022 21:26 12,5 C 10,0 C 74 % 1021,4 hPa 0,0 l/m 0,0 km/h (0 Bft) W 261 0 min 0,0 UV-I 0 W/m 8,0 C 12,5 C 0,0 km/h (0 Bft)
21.05.2022 21:28 12,4 C 10,0 C 74 % 1021,5 hPa 0,0 l/m 0,0 km/h (0 Bft) W 261 0 min 0,0 UV-I 0 W/m 7,9 C 12,4 C 0,0 km/h (0 Bft)
21.05.2022 21:30 12,2 C 9,4 C 75 % 1021,5 hPa 0,0 l/m 0,9 km/h (0 Bft) W 261 0 min 0,0 UV-I 0 W/m 7,9 C 12,2 C 1,6 km/h (1 Bft)
21.05.2022 21:32 12,1 C 9,4 C 75 % 1021,5 hPa 0,0 l/m 2,0 km/h (1 Bft) W 261 0 min 0,0 UV-I 0 W/m 7,8 C 12,1 C 3,2 km/h (1 Bft)
21.05.2022 21:34 12,0 C 9,4 C 76 % 1021,5 hPa 0,0 l/m 2,3 km/h (1 Bft) W 261 0 min 0,0 UV-I 0 W/m 7,9 C 12,0 C 3,2 km/h (1 Bft)
21.05.2022 21:36 11,9 C 9,4 C 76 % 1021,5 hPa 0,0 l/m 2,7 km/h (1 Bft) W 261 0 min 0,0 UV-I 0 W/m 7,8 C 11,9 C 3,2 km/h (1 Bft)
21.05.2022 21:38 11,8 C 9,4 C 77 % 1021,5 hPa 0,0 l/m 1,4 km/h (1 Bft) W 261 0 min 0,0 UV-I 0 W/m 7,9 C 11,8 C 3,2 km/h (1 Bft)
21.05.2022 21:40 11,7 C 8,9 C 77 % 1021,5 hPa 0,0 l/m 0,2 km/h (0 Bft) W 261 0 min 0,0 UV-I 0 W/m 7,8 C 11,7 C 1,6 km/h (1 Bft)
21.05.2022 21:42 11,6 C 8,9 C 78 % 1021,6 hPa 0,0 l/m 0,0 km/h (0 Bft) W 261 0 min 0,0 UV-I 0 W/m 7,9 C 11,6 C 0,0 km/h (0 Bft)
21.05.2022 21:44 11,6 C 8,9 C 78 % 1021,6 hPa 0,0 l/m 0,0 km/h (0 Bft) W 261 0 min 0,0 UV-I 0 W/m 7,9 C 11,6 C 0,0 km/h (0 Bft)
21.05.2022 21:46 11,6 C 8,9 C 78 % 1021,6 hPa 0,0 l/m 0,2 km/h (0 Bft) W 261 0 min 0,0 UV-I 0 W/m 7,9 C 11,6 C 1,6 km/h (1 Bft)
21.05.2022 21:48 11,5 C 8,9 C 78 % 1021,6 hPa 0,0 l/m 0,3 km/h (0 Bft) W 261 0 min 0,0 UV-I 0 W/m 7,8 C 11,5 C 1,6 km/h (1 Bft)
21.05.2022 21:50 11,4 C 8,9 C 78 % 1021,7 hPa 0,0 l/m 0,2 km/h (0 Bft) W 261 0 min 0,0 UV-I 0 W/m 7,7 C 11,4 C 1,6 km/h (1 Bft)
21.05.2022 21:52 11,4 C 8,9 C 79 % 1021,6 hPa 0,0 l/m 0,0 km/h (0 Bft) W 261 0 min 0,0 UV-I 0 W/m 7,9 C 11,4 C 0,0 km/h (0 Bft)
21.05.2022 21:54 11,3 C 8,9 C 79 % 1021,8 hPa 0,0 l/m 0,1 km/h (0 Bft) W 261 0 min 0,0 UV-I 0 W/m 7,8 C 11,3 C 1,6 km/h (1 Bft)
21.05.2022 21:56 11,3 C 8,9 C 79 % 1021,6 hPa 0,0 l/m 0,6 km/h (0 Bft) W 261 0 min 0,0 UV-I 0 W/m 7,8 C 11,3 C 1,6 km/h (1 Bft)
21.05.2022 21:58 11,3 C 8,9 C 79 % 1021,7 hPa 0,0 l/m 0,2 km/h (0 Bft) W 261 0 min 0,0 UV-I 0 W/m 7,8 C 11,3 C 1,6 km/h (1 Bft)
21.05.2022 22:00 11,3 C 8,3 C 79 % 1021,7 hPa 0,0 l/m 0,0 km/h (0 Bft) W 261 0 min 0,0 UV-I 0 W/m 7,8 C 11,3 C 0,0 km/h (0 Bft)
21.05.2022 22:02 11,3 C 8,9 C 80 % 1021,6 hPa 0,0 l/m 0,0 km/h (0 Bft) W 261 0 min 0,0 UV-I 0 W/m 8,0 C 11,3 C 1,6 km/h (1 Bft)
21.05.2022 22:04 11,2 C 8,9 C 80 % 1021,6 hPa 0,0 l/m 0,0 km/h (0 Bft) W 261 0 min 0,0 UV-I 0 W/m 7,9 C 11,2 C 1,6 km/h (1 Bft)
21.05.2022 22:06 11,1 C 8,9 C 80 % 1021,7 hPa 0,0 l/m 0,0 km/h (0 Bft) W 261 0 min 0,0 UV-I 0 W/m 7,8 C 11,1 C 0,0 km/h (0 Bft)
21.05.2022 22:08 10,9 C 8,9 C 81 % 1021,7 hPa 0,0 l/m 0,0 km/h (0 Bft) W 261 0 min 0,0 UV-I 0 W/m 7,8 C 10,9 C 0,0 km/h (0 Bft)
21.05.2022 22:10 10,8 C 8,9 C 81 % 1021,6 hPa 0,0 l/m 0,0 km/h (0 Bft) W 261 0 min 0,0 UV-I 0 W/m 7,7 C 10,8 C 0,0 km/h (0 Bft)
21.05.2022 22:12 10,8 C 8,9 C 82 % 1021,7 hPa 0,0 l/m 0,0 km/h (0 Bft) W 261 0 min 0,0 UV-I 0 W/m 7,9 C 10,8 C 0,0 km/h (0 Bft)
21.05.2022 22:14 10,8 C 8,9 C 82 % 1021,6 hPa 0,0 l/m 0,0 km/h (0 Bft) W 261 0 min 0,0 UV-I 0 W/m 7,9 C 10,8 C 0,0 km/h (0 Bft)
21.05.2022 22:16 10,7 C 8,9 C 82 % 1021,7 hPa 0,0 l/m 0,0 km/h (0 Bft) W 261 0 min 0,0 UV-I 0 W/m 7,8 C 10,7 C 0,0 km/h (0 Bft)
21.05.2022 22:18 10,8 C 8,9 C 82 % 1021,8 hPa 0,0 l/m 0,0 km/h (0 Bft) W 261 0 min 0,0 UV-I 0 W/m 7,9 C 10,8 C 0,0 km/h (0 Bft)
21.05.2022 22:20 10,8 C 8,3 C 82 % 1021,6 hPa 0,0 l/m 0,0 km/h (0 Bft) W 261 0 min 0,0 UV-I 0 W/m 7,9 C 10,8 C 0,0 km/h (0 Bft)
21.05.2022 22:22 10,7 C 8,3 C 82 % 1021,6 hPa 0,0 l/m 0,0 km/h (0 Bft) W 261 0 min 0,0 UV-I 0 W/m 7,8 C 10,7 C 0,0 km/h (0 Bft)
21.05.2022 22:24 10,4 C 8,3 C 82 % 1021,6 hPa 0,0 l/m 0,0 km/h (0 Bft) W 261 0 min 0,0 UV-I 0 W/m 7,5 C 10,4 C 0,0 km/h (0 Bft)
21.05.2022 22:26 10,2 C 7,8 C 82 % 1021,6 hPa 0,0 l/m 0,0 km/h (0 Bft) W 261 0 min 0,0 UV-I 0 W/m 7,3 C 10,2 C 0,0 km/h (0 Bft)
21.05.2022 22:28 9,9 C 7,8 C 83 % 1021,6 hPa 0,0 l/m 0,0 km/h (0 Bft) W 261 0 min 0,0 UV-I 0 W/m 7,2 C 9,9 C 0,0 km/h (0 Bft)
21.05.2022 22:30 9,8 C 7,8 C 84 % 1021,6 hPa 0,0 l/m 0,0 km/h (0 Bft) W 261 0 min 0,0 UV-I 0 W/m 7,2 C 9,8 C 0,0 km/h (0 Bft)
21.05.2022 22:32 9,8 C 7,8 C 84 % 1021,6 hPa 0,0 l/m 0,0 km/h (0 Bft) W 261 0 min 0,0 UV-I 0 W/m 7,2 C 9,8 C 0,0 km/h (0 Bft)
21.05.2022 22:34 9,6 C 7,8 C 84 % 1021,7 hPa 0,0 l/m 0,0 km/h (0 Bft) W 261 0 min 0,0 UV-I 0 W/m 7,0 C 9,6 C 0,0 km/h (0 Bft)
21.05.2022 22:36 9,6 C 7,8 C 85 % 1021,7 hPa 0,0 l/m 0,0 km/h (0 Bft) W 261 0 min 0,0 UV-I 0 W/m 7,2 C 9,6 C 0,0 km/h (0 Bft)
21.05.2022 22:38 9,7 C 7,8 C 86 % 1021,8 hPa 0,0 l/m 0,0 km/h (0 Bft) W 261 0 min 0,0 UV-I 0 W/m 7,5 C 9,7 C 0,0 km/h (0 Bft)
21.05.2022 22:40 9,8 C 8,3 C 85 % 1021,7 hPa 0,0 l/m 0,0 km/h (0 Bft) W 261 0 min 0,0 UV-I 0 W/m 7,4 C 9,8 C 0,0 km/h (0 Bft)
21.05.2022 22:42 9,7 C 7,8 C 84 % 1021,7 hPa 0,0 l/m 0,0 km/h (0 Bft) W 261 0 min 0,0 UV-I 0 W/m 7,1 C 9,7 C 0,0 km/h (0 Bft)
21.05.2022 22:44 9,6 C 7,8 C 85 % 1021,7 hPa 0,0 l/m 0,0 km/h (0 Bft) W 261 0 min 0,0 UV-I 0 W/m 7,2 C 9,6 C 0,0 km/h (0 Bft)
21.05.2022 22:46 9,5 C 7,8 C 85 % 1021,8 hPa 0,0 l/m 0,0 km/h (0 Bft) W 261 0 min 0,0 UV-I 0 W/m 7,1 C 9,5 C 0,0 km/h (0 Bft)
21.05.2022 22:48 9,4 C 7,8 C 85 % 1021,9 hPa 0,0 l/m 0,0 km/h (0 Bft) W 261 0 min 0,0 UV-I 0 W/m 7,0 C 9,4 C 1,6 km/h (1 Bft)
21.05.2022 22:50 9,4 C 7,8 C 86 % 1021,9 hPa 0,0 l/m 0,0 km/h (0 Bft) W 261 0 min 0,0 UV-I 0 W/m 7,2 C 9,4 C 0,0 km/h (0 Bft)
21.05.2022 22:52 9,4 C 7,8 C 86 % 1022,0 hPa 0,0 l/m 0,0 km/h (0 Bft) W 261 0 min 0,0 UV-I 0 W/m 7,2 C 9,4 C 0,0 km/h (0 Bft)
21.05.2022 22:54 9,4 C 7,8 C 86 % 1021,9 hPa 0,0 l/m 0,0 km/h (0 Bft) W 261 0 min 0,0 UV-I 0 W/m 7,2 C 9,4 C 0,0 km/h (0 Bft)
21.05.2022 22:56 9,4 C 7,8 C 86 % 1021,9 hPa 0,0 l/m 0,0 km/h (0 Bft) W 261 0 min 0,0 UV-I 0 W/m 7,2 C 9,4 C 0,0 km/h (0 Bft)
21.05.2022 22:58 9,4 C 7,8 C 85 % 1021,9 hPa 0,0 l/m 0,0 km/h (0 Bft) W 261 0 min 0,0 UV-I 0 W/m 7,0 C 9,4 C 0,0 km/h (0 Bft)
21.05.2022 23:00 9,4 C 7,8 C 85 % 1021,8 hPa 0,0 l/m 0,0 km/h (0 Bft) W 261 0 min 0,0 UV-I 0 W/m 7,0 C 9,4 C 0,0 km/h (0 Bft)
21.05.2022 23:02 9,3 C 7,8 C 86 % 1021,9 hPa 0,0 l/m 0,0 km/h (0 Bft) W 261 0 min 0,0 UV-I 0 W/m 7,1 C 9,3 C 0,0 km/h (0 Bft)
21.05.2022 23:04 9,4 C 7,8 C 86 % 1021,9 hPa 0,0 l/m 0,0 km/h (0 Bft) W 261 0 min 0,0 UV-I 0 W/m 7,2 C 9,4 C 0,0 km/h (0 Bft)
21.05.2022 23:06 9,4 C 7,8 C 86 % 1022,0 hPa 0,0 l/m 0,0 km/h (0 Bft) W 261 0 min 0,0 UV-I 0 W/m 7,2 C 9,4 C 0,0 km/h (0 Bft)
21.05.2022 23:08 9,5 C 7,8 C 86 % 1022,0 hPa 0,0 l/m 0,0 km/h (0 Bft) W 261 0 min 0,0 UV-I 0 W/m 7,3 C 9,5 C 0,0 km/h (0 Bft)
21.05.2022 23:10 9,6 C 7,8 C 86 % 1022,0 hPa 0,0 l/m 0,0 km/h (0 Bft) W 261 0 min 0,0 UV-I 0 W/m 7,4 C 9,6 C 0,0 km/h (0 Bft)
21.05.2022 23:12 9,5 C 7,8 C 86 % 1021,9 hPa 0,0 l/m 0,0 km/h (0 Bft) W 261 0 min 0,0 UV-I 0 W/m 7,3 C 9,5 C 0,0 km/h (0 Bft)
21.05.2022 23:14 9,4 C 7,8 C 85 % 1021,9 hPa 0,0 l/m 0,0 km/h (0 Bft) W 261 0 min 0,0 UV-I 0 W/m 7,0 C 9,4 C 0,0 km/h (0 Bft)
21.05.2022 23:16 9,3 C 7,8 C 86 % 1021,8 hPa 0,0 l/m 0,0 km/h (0 Bft) W 261 0 min 0,0 UV-I 0 W/m 7,1 C 9,3 C 0,0 km/h (0 Bft)
21.05.2022 23:18 9,2 C 7,8 C 86 % 1021,9 hPa 0,0 l/m 0,0 km/h (0 Bft) W 261 0 min 0,0 UV-I 0 W/m 7,0 C 9,2 C 0,0 km/h (0 Bft)
21.05.2022 23:20 9,1 C 7,2 C 86 % 1021,9 hPa 0,0 l/m 0,0 km/h (0 Bft) W 261 0 min 0,0 UV-I 0 W/m 6,9 C 9,1 C 0,0 km/h (0 Bft)
21.05.2022 23:22 9,1 C 7,2 C 86 % 1021,8 hPa 0,0 l/m 0,0 km/h (0 Bft) W 261 0 min 0,0 UV-I 0 W/m 6,9 C 9,1 C 0,0 km/h (0 Bft)
21.05.2022 23:24 9,1 C 7,2 C 87 % 1021,8 hPa 0,0 l/m 0,0 km/h (0 Bft) W 261 0 min 0,0 UV-I 0 W/m 7,1 C 9,1 C 0,0 km/h (0 Bft)
21.05.2022 23:26 9,1 C 7,2 C 87 % 1021,7 hPa 0,0 l/m 0,0 km/h (0 Bft) W 261 0 min 0,0 UV-I 0 W/m 7,1 C 9,1 C 0,0 km/h (0 Bft)
21.05.2022 23:28 9,1 C 7,2 C 87 % 1021,7 hPa 0,0 l/m 0,0 km/h (0 Bft) W 261 0 min 0,0 UV-I 0 W/m 7,1 C 9,1 C 0,0 km/h (0 Bft)
21.05.2022 23:30 9,1 C 7,2 C 87 % 1021,6 hPa 0,0 l/m 0,0 km/h (0 Bft) W 261 0 min 0,0 UV-I 0 W/m 7,1 C 9,1 C 0,0 km/h (0 Bft)
21.05.2022 23:32 9,1 C 7,2 C 87 % 1021,6 hPa 0,0 l/m 0,0 km/h (0 Bft) W 261 0 min 0,0 UV-I 0 W/m 7,1 C 9,1 C 0,0 km/h (0 Bft)
21.05.2022 23:34 9,0 C 7,2 C 87 % 1021,5 hPa 0,0 l/m 0,0 km/h (0 Bft) W 261 0 min 0,0 UV-I 0 W/m 7,0 C 9,0 C 0,0 km/h (0 Bft)
21.05.2022 23:36 9,0 C 7,2 C 87 % 1021,4 hPa 0,0 l/m 0,0 km/h (0 Bft) W 261 0 min 0,0 UV-I 0 W/m 7,0 C 9,0 C 0,0 km/h (0 Bft)
21.05.2022 23:38 8,9 C 7,2 C 87 % 1021,4 hPa 0,0 l/m 0,0 km/h (0 Bft) W 261 0 min 0,0 UV-I 0 W/m 6,9 C 8,9 C 0,0 km/h (0 Bft)
21.05.2022 23:40 8,8 C 7,2 C 87 % 1021,4 hPa 0,0 l/m 0,0 km/h (0 Bft) W 261 0 min 0,0 UV-I 0 W/m 6,8 C 8,8 C 0,0 km/h (0 Bft)
21.05.2022 23:42 8,7 C 7,2 C 87 % 1021,4 hPa 0,0 l/m 0,0 km/h (0 Bft) W 261 0 min 0,0 UV-I 0 W/m 6,7 C 8,7 C 0,0 km/h (0 Bft)
21.05.2022 23:44 8,4 C 6,7 C 86 % 1021,4 hPa 0,0 l/m 0,0 km/h (0 Bft) W 261 0 min 0,0 UV-I 0 W/m 6,2 C 8,4 C 0,0 km/h (0 Bft)
21.05.2022 23:46 8,2 C 6,7 C 87 % 1021,4 hPa 0,0 l/m 0,0 km/h (0 Bft) W 261 0 min 0,0 UV-I 0 W/m 6,2 C 8,2 C 0,0 km/h (0 Bft)
21.05.2022 23:48 8,2 C 6,7 C 88 % 1021,4 hPa 0,0 l/m 0,0 km/h (0 Bft) W 261 0 min 0,0 UV-I 0 W/m 6,3 C 8,2 C 0,0 km/h (0 Bft)
21.05.2022 23:50 8,3 C 6,7 C 88 % 1021,3 hPa 0,0 l/m 0,0 km/h (0 Bft) W 261 0 min 0,0 UV-I 0 W/m 6,4 C 8,3 C 0,0 km/h (0 Bft)
21.05.2022 23:52 8,3 C 7,2 C 88 % 1021,4 hPa 0,0 l/m 0,0 km/h (0 Bft) W 261 0 min 0,0 UV-I 0 W/m 6,4 C 8,3 C 0,0 km/h (0 Bft)
21.05.2022 23:54 8,3 C 7,2 C 88 % 1021,3 hPa 0,0 l/m 0,0 km/h (0 Bft) W 261 0 min 0,0 UV-I 0 W/m 6,4 C 8,3 C 0,0 km/h (0 Bft)
21.05.2022 23:56 8,2 C 6,7 C 88 % 1021,4 hPa 0,0 l/m 0,0 km/h (0 Bft) W 261 0 min 0,0 UV-I 0 W/m 6,3 C 8,2 C 0,0 km/h (0 Bft)
21.05.2022 23:58 8,1 C 6,7 C 88 % 1021,4 hPa 0,0 l/m 0,0 km/h (0 Bft) W 261 0 min 0,0 UV-I 0 W/m 6,2 C 8,1 C 0,0 km/h (0 Bft)
21.05.2022 23:59 8,1 C 6,7 C 88 % 1021,3 hPa 0,0 l/m 0,0 km/h (0 Bft) N 0 0 min 0,0 UV-I 0 W/m 6,2 C 8,1 C 0,0 km/h (0 Bft)
_ Min-Zeit 04:17 03:12 17:26 19:44 - 21:26 - - - - - 23:46 06:59 21:26
Minimum _ 7,8 C 6,7 C 51 % 1021,1 hPa - 0,0 km/h (0 Bft) - - - - - 6,2 C 2,4 C 0,0 km/h (0 Bft)
_ Max-Zeit 17:24 17:24 04:37 11:34 00:00 13:56 - - 09:20 13:10 13:10 14:52 17:22 02:14
Maximum _ 18,4 C 26,7 C 91 % 1024,0 hPa 0,0 l/m 19,7 km/h
SW (3 Bft)
- - 2 min 6,7 UV-I 1077 W/m 10,1 C 18,3 C 32,2 km/h
SW (5 Bft)
Durchschnitt _ 12,4 C 13,8 C 75 % 1022,5 hPa #0,0 l/m 9,0 km/h (2 Bft) S-SW - #6:50 h 3,2 UV-I 392 W/m 7,9 C 10,6 C 14,4 km/h (3 Bft)